<?xml version='1.0' encoding='UTF-8'?><gpx version="1.1" creator="JPX - https://github.com/jenetics/jpx" xmlns="http://www.topografix.com/GPX/1/1"><trk><trkseg><trkpt lat="42.23008583689849" lon="13.859110220854332"><ele>662.0</ele><time>2026-05-02T08:51:24.001Z</time></trkpt><trkpt lat="42.2300269071643" lon="13.859063511509861"><ele>662.0</ele><time>2026-05-02T08:51:25.001Z</time></trkpt><trkpt lat="42.22991634720368" lon="13.859000485422902"><ele>662.0</ele><time>2026-05-02T08:51:27.001Z</time></trkpt><trkpt lat="42.22983102895523" lon="13.858931116511298"><ele>662.0</ele><time>2026-05-02T08:51:29.001Z</time></trkpt><trkpt lat="42.22973821295503" lon="13.85895300961953"><ele>662.0</ele><time>2026-05-02T08:51:31.001Z</time></trkpt><trkpt lat="42.2296659026889" lon="13.858942446995126"><ele>663.8333333333333</ele><time>2026-05-02T08:51:32.001Z</time></trkpt><trkpt lat="42.229602830277926" lon="13.858915286048822"><ele>665.6666666666666</ele><time>2026-05-02T08:51:33.001Z</time></trkpt><trkpt lat="42.22951867445444" lon="13.85887713369989"><ele>667.5</ele><time>2026-05-02T08:51:35.001Z</time></trkpt><trkpt lat="42.22944511372872" lon="13.858859446382214"><ele>669.3333333333334</ele><time>2026-05-02T08:51:37.001Z</time></trkpt><trkpt lat="42.22935181804812" lon="13.858794412028717"><ele>671.1666666666667</ele><time>2026-05-02T08:51:39.001Z</time></trkpt><trkpt lat="42.2293002895327" lon="13.858699732354381"><ele>673.0</ele><time>2026-05-02T08:51:41.001Z</time></trkpt><trkpt lat="42.229231151820784" lon="13.85859970444235"><ele>673.0</ele><time>2026-05-02T08:51:43.001Z</time></trkpt><trkpt lat="42.229176199634765" lon="13.85846197202007"><ele>673.0</ele><time>2026-05-02T08:51:45.001Z</time></trkpt><trkpt lat="42.22910549336727" lon="13.858312647844444"><ele>673.0</ele><time>2026-05-02T08:51:47.001Z</time></trkpt><trkpt lat="42.229055286876324" lon="13.858233884831764"><ele>673.0</ele><time>2026-05-02T08:51:48.001Z</time></trkpt><trkpt lat="42.22899257005585" lon="13.858135682553456"><ele>673.0</ele><time>2026-05-02T08:51:49.001Z</time></trkpt><trkpt lat="42.22893366934953" lon="13.858044332334554"><ele>676.5</ele><time>2026-05-02T08:51:50.001Z</time></trkpt><trkpt lat="42.228877136225655" lon="13.857966750597523"><ele>680.0</ele><time>2026-05-02T08:51:51.001Z</time></trkpt><trkpt lat="42.22882056664604" lon="13.85789999875631"><ele>683.5</ele><time>2026-05-02T08:51:52.001Z</time></trkpt><trkpt lat="42.22876140792802" lon="13.857849054274299"><ele>687.0</ele><time>2026-05-02T08:51:53.001Z</time></trkpt><trkpt lat="42.22868135584124" lon="13.857796182827077"><ele>690.5</ele><time>2026-05-02T08:51:54.001Z</time></trkpt><trkpt lat="42.22858788551164" lon="13.857732898678716"><ele>694.0</ele><time>2026-05-02T08:51:55.001Z</time></trkpt><trkpt lat="42.228503453998066" lon="13.857683091652948"><ele>694.0</ele><time>2026-05-02T08:51:56.001Z</time></trkpt><trkpt lat="42.22840569209945" lon="13.857684483182808"><ele>694.0</ele><time>2026-05-02T08:51:58.001Z</time></trkpt><trkpt lat="42.22828373889162" lon="13.857752383313656"><ele>694.0</ele><time>2026-05-02T08:52:00.001Z</time></trkpt><trkpt lat="42.228211167566194" lon="13.857757522360382"><ele>694.0</ele><time>2026-05-02T08:52:01.001Z</time></trkpt><trkpt lat="42.22808413926196" lon="13.857668639311713"><ele>694.0</ele><time>2026-05-02T08:52:03.001Z</time></trkpt><trkpt lat="42.22801957174503" lon="13.857611821775455"><ele>698.7142857142858</ele><time>2026-05-02T08:52:04.001Z</time></trkpt><trkpt lat="42.227949928170595" lon="13.857549964316826"><ele>703.4285714285713</ele><time>2026-05-02T08:52:05.001Z</time></trkpt><trkpt lat="42.227887818422694" lon="13.857497553774003"><ele>708.1428571428571</ele><time>2026-05-02T08:52:06.001Z</time></trkpt><trkpt lat="42.22783308328815" lon="13.857428301319262"><ele>712.8571428571429</ele><time>2026-05-02T08:52:07.001Z</time></trkpt><trkpt lat="42.2277947090006" lon="13.857356929705674"><ele>717.5714285714287</ele><time>2026-05-02T08:52:08.001Z</time></trkpt><trkpt lat="42.22774569816331" lon="13.857287211538075"><ele>722.2857142857142</ele><time>2026-05-02T08:52:09.001Z</time></trkpt><trkpt lat="42.22769271922" lon="13.857213847693183"><ele>727.0</ele><time>2026-05-02T08:52:10.001Z</time></trkpt><trkpt lat="42.22764594147335" lon="13.857122118932294"><ele>727.0</ele><time>2026-05-02T08:52:11.001Z</time></trkpt><trkpt lat="42.22760303786939" lon="13.857007815040419"><ele>727.0</ele><time>2026-05-02T08:52:12.001Z</time></trkpt><trkpt lat="42.22757637332156" lon="13.856889001223493"><ele>727.0</ele><time>2026-05-02T08:52:13.001Z</time></trkpt><trkpt lat="42.22755062105143" lon="13.85680655514848"><ele>727.0</ele><time>2026-05-02T08:52:14.001Z</time></trkpt><trkpt lat="42.22750151328028" lon="13.8567481361664"><ele>727.0</ele><time>2026-05-02T08:52:15.001Z</time></trkpt><trkpt lat="42.22743275606872" lon="13.856719287059413"><ele>727.0</ele><time>2026-05-02T08:52:16.001Z</time></trkpt><trkpt lat="42.227354320971465" lon="13.856705563270683"><ele>731.3333333333334</ele><time>2026-05-02T08:52:17.001Z</time></trkpt><trkpt lat="42.227268384925644" lon="13.856709706575229"><ele>735.6666666666667</ele><time>2026-05-02T08:52:18.001Z</time></trkpt><trkpt lat="42.22716571943814" lon="13.85671948937798"><ele>740.0</ele><time>2026-05-02T08:52:19.001Z</time></trkpt><trkpt lat="42.227070861116225" lon="13.856731536700767"><ele>744.3333333333334</ele><time>2026-05-02T08:52:20.001Z</time></trkpt><trkpt lat="42.22700040167423" lon="13.856704392016644"><ele>748.6666666666666</ele><time>2026-05-02T08:52:21.001Z</time></trkpt><trkpt lat="42.22694008915408" lon="13.856654649943769"><ele>753.0</ele><time>2026-05-02T08:52:22.001Z</time></trkpt><trkpt lat="42.22687524502926" lon="13.856597440971665"><ele>753.0</ele><time>2026-05-02T08:52:23.001Z</time></trkpt><trkpt lat="42.226795811729495" lon="13.85652278937411"><ele>753.0</ele><time>2026-05-02T08:52:24.001Z</time></trkpt><trkpt lat="42.22670695927208" lon="13.856443032479456"><ele>753.0</ele><time>2026-05-02T08:52:25.001Z</time></trkpt><trkpt lat="42.22663546094706" lon="13.85637038525047"><ele>753.0</ele><time>2026-05-02T08:52:26.001Z</time></trkpt><trkpt lat="42.22659109431701" lon="13.856299212482556"><ele>753.0</ele><time>2026-05-02T08:52:27.001Z</time></trkpt><trkpt lat="42.22655567517836" lon="13.856198431475244"><ele>753.0</ele><time>2026-05-02T08:52:28.001Z</time></trkpt><trkpt lat="42.22651179551756" lon="13.85607219377917"><ele>756.2</ele><time>2026-05-02T08:52:29.001Z</time></trkpt><trkpt lat="42.22645189208953" lon="13.85595712677545"><ele>759.4</ele><time>2026-05-02T08:52:30.001Z</time></trkpt><trkpt lat="42.226378128733316" lon="13.855851519880758"><ele>762.6</ele><time>2026-05-02T08:52:31.001Z</time></trkpt><trkpt lat="42.22630769942932" lon="13.855768761218348"><ele>765.8000000000001</ele><time>2026-05-02T08:52:32.001Z</time></trkpt><trkpt lat="42.226252167663965" lon="13.855682593351286"><ele>769.0</ele><time>2026-05-02T08:52:33.001Z</time></trkpt><trkpt lat="42.226195318234275" lon="13.855595456280316"><ele>768.9999999999999</ele><time>2026-05-02T08:52:34.001Z</time></trkpt><trkpt lat="42.226144458609426" lon="13.855524363186056"><ele>769.0</ele><time>2026-05-02T08:52:35.001Z</time></trkpt><trkpt lat="42.22607604418509" lon="13.855449820564925"><ele>769.0</ele><time>2026-05-02T08:52:36.001Z</time></trkpt><trkpt lat="42.22600597806131" lon="13.855390846046085"><ele>769.0</ele><time>2026-05-02T08:52:37.001Z</time></trkpt><trkpt lat="42.225933643992555" lon="13.855346657056845"><ele>768.9999999999999</ele><time>2026-05-02T08:52:38.001Z</time></trkpt><trkpt lat="42.22584334041274" lon="13.85529794373065"><ele>769.0</ele><time>2026-05-02T08:52:39.001Z</time></trkpt><trkpt lat="42.225759127422215" lon="13.855267799549672"><ele>769.0</ele><time>2026-05-02T08:52:40.001Z</time></trkpt><trkpt lat="42.22565450853523" lon="13.855264309516752"><ele>769.0</ele><time>2026-05-02T08:52:42.001Z</time></trkpt><trkpt lat="42.225538080477016" lon="13.85523817534427"><ele>769.0</ele><time>2026-05-02T08:52:44.001Z</time></trkpt><trkpt lat="42.225444613384475" lon="13.855206020621678"><ele>769.0</ele><time>2026-05-02T08:52:46.001Z</time></trkpt><trkpt lat="42.225416036771236" lon="13.855084484833068"><ele>769.0</ele><time>2026-05-02T08:54:55.001Z</time></trkpt><trkpt lat="42.225379682778645" lon="13.855007058874481"><ele>771.3333333333333</ele><time>2026-05-02T08:54:56.001Z</time></trkpt><trkpt lat="42.225344006857554" lon="13.854931510123293"><ele>773.6666666666666</ele><time>2026-05-02T08:54:57.001Z</time></trkpt><trkpt lat="42.22531111155796" lon="13.854820823043543"><ele>776.0</ele><time>2026-05-02T08:54:59.001Z</time></trkpt><trkpt lat="42.2252688415157" lon="13.854682618111266"><ele>778.3333333333333</ele><time>2026-05-02T08:55:01.001Z</time></trkpt><trkpt lat="42.22526646081704" lon="13.854569293602967"><ele>780.6666666666666</ele><time>2026-05-02T08:55:03.001Z</time></trkpt><trkpt lat="42.2252291394411" lon="13.854685514991418"><ele>783.0</ele><time>2026-05-02T08:55:07.001Z</time></trkpt><trkpt lat="42.22525893230851" lon="13.85459329874464"><ele>783.0</ele><time>2026-05-02T08:55:08.001Z</time></trkpt><trkpt lat="42.22521416516689" lon="13.854504286238445"><ele>783.0</ele><time>2026-05-02T08:55:21.001Z</time></trkpt><trkpt lat="42.225180212757714" lon="13.854408069036106"><ele>783.0</ele><time>2026-05-02T08:55:24.001Z</time></trkpt><trkpt lat="42.225138265134724" lon="13.85428555587247"><ele>783.0</ele><time>2026-05-02T08:55:27.001Z</time></trkpt><trkpt lat="42.225082386931994" lon="13.854135247529834"><ele>783.0</ele><time>2026-05-02T08:55:29.001Z</time></trkpt><trkpt lat="42.22503723557874" lon="13.854061249978448"><ele>784.0</ele><time>2026-05-02T08:55:31.001Z</time></trkpt><trkpt lat="42.22501937214684" lon="13.853938398135126"><ele>785.0</ele><time>2026-05-02T08:55:34.001Z</time></trkpt><trkpt lat="42.225014469618706" lon="13.85383414501528"><ele>786.0</ele><time>2026-05-02T08:55:35.001Z</time></trkpt><trkpt lat="42.22500799886547" lon="13.853740232844693"><ele>787.0</ele><time>2026-05-02T08:55:36.001Z</time></trkpt><trkpt lat="42.2249932626499" lon="13.853590193894707"><ele>788.0</ele><time>2026-05-02T08:55:38.001Z</time></trkpt><trkpt lat="42.225001792636995" lon="13.853492251565328"><ele>789.0</ele><time>2026-05-02T08:55:40.001Z</time></trkpt><trkpt lat="42.22501524145002" lon="13.853337679479568"><ele>789.2</ele><time>2026-05-02T08:55:47.001Z</time></trkpt><trkpt lat="42.22504062844508" lon="13.853232840114984"><ele>789.4000000000001</ele><time>2026-05-02T08:55:48.001Z</time></trkpt><trkpt lat="42.22508152858387" lon="13.853125781444255"><ele>789.6</ele><time>2026-05-02T08:55:49.001Z</time></trkpt><trkpt lat="42.225128255469016" lon="13.853015051101005"><ele>789.8</ele><time>2026-05-02T08:55:50.001Z</time></trkpt><trkpt lat="42.22517763211196" lon="13.852905669914966"><ele>790.0</ele><time>2026-05-02T08:55:51.001Z</time></trkpt><trkpt lat="42.22522792646818" lon="13.8528019443514"><ele>789.9999999999999</ele><time>2026-05-02T08:55:52.001Z</time></trkpt><trkpt lat="42.22527534656871" lon="13.85271704009649"><ele>790.0</ele><time>2026-05-02T08:55:53.001Z</time></trkpt><trkpt lat="42.225332646249996" lon="13.852642798894403"><ele>790.0</ele><time>2026-05-02T08:55:54.001Z</time></trkpt><trkpt lat="42.22538952283452" lon="13.852579396105785"><ele>790.0</ele><time>2026-05-02T08:55:55.001Z</time></trkpt><trkpt lat="42.2254555020561" lon="13.852498269306157"><ele>789.9999999999999</ele><time>2026-05-02T08:55:56.001Z</time></trkpt><trkpt lat="42.22550501739733" lon="13.852409303925079"><ele>790.0</ele><time>2026-05-02T08:55:57.001Z</time></trkpt><trkpt lat="42.22553808334144" lon="13.852314852974663"><ele>790.3333333333333</ele><time>2026-05-02T08:55:58.001Z</time></trkpt><trkpt lat="42.22555842107649" lon="13.852231082579687"><ele>790.6666666666666</ele><time>2026-05-02T08:55:59.001Z</time></trkpt><trkpt lat="42.22557763393728" lon="13.852136743523578"><ele>791.0</ele><time>2026-05-02T08:56:00.001Z</time></trkpt><trkpt lat="42.22559175946074" lon="13.852044474085748"><ele>791.3333333333333</ele><time>2026-05-02T08:56:01.001Z</time></trkpt><trkpt lat="42.22560105449062" lon="13.851935109753114"><ele>791.6666666666666</ele><time>2026-05-02T08:56:02.001Z</time></trkpt><trkpt lat="42.225606547142284" lon="13.851822701448251"><ele>792.0</ele><time>2026-05-02T08:56:03.001Z</time></trkpt><trkpt lat="42.22561806143153" lon="13.8517116452392"><ele>794.1666666666666</ele><time>2026-05-02T08:56:04.001Z</time></trkpt><trkpt lat="42.22562480305039" lon="13.85159488077877"><ele>796.3333333333333</ele><time>2026-05-02T08:56:05.001Z</time></trkpt><trkpt lat="42.22563509411892" lon="13.851482299542292"><ele>798.5</ele><time>2026-05-02T08:56:06.001Z</time></trkpt><trkpt lat="42.225644120414906" lon="13.851369786209524"><ele>800.6666666666666</ele><time>2026-05-02T08:56:07.001Z</time></trkpt><trkpt lat="42.225655765142065" lon="13.851252706567887"><ele>802.8333333333333</ele><time>2026-05-02T08:56:08.001Z</time></trkpt><trkpt lat="42.22565646884104" lon="13.85114207726144"><ele>805.0</ele><time>2026-05-02T08:56:09.001Z</time></trkpt><trkpt lat="42.22565687909906" lon="13.851020545357505"><ele>807.6666666666666</ele><time>2026-05-02T08:56:10.001Z</time></trkpt><trkpt lat="42.22565349391702" lon="13.850911500717254"><ele>810.3333333333333</ele><time>2026-05-02T08:56:11.001Z</time></trkpt><trkpt lat="42.225639169974315" lon="13.850799915969382"><ele>813.0</ele><time>2026-05-02T08:56:12.001Z</time></trkpt><trkpt lat="42.22562313709985" lon="13.850680159358749"><ele>815.6666666666667</ele><time>2026-05-02T08:56:13.001Z</time></trkpt><trkpt lat="42.22560870077245" lon="13.850559845429636"><ele>818.3333333333334</ele><time>2026-05-02T08:56:14.001Z</time></trkpt><trkpt lat="42.22559611636924" lon="13.850438434107364"><ele>821.0</ele><time>2026-05-02T08:56:15.001Z</time></trkpt><trkpt lat="42.22558245791367" lon="13.850319028412997"><ele>821.0000000000001</ele><time>2026-05-02T08:56:16.001Z</time></trkpt><trkpt lat="42.225570031017064" lon="13.850200508013298"><ele>821.0</ele><time>2026-05-02T08:56:17.001Z</time></trkpt><trkpt lat="42.22556102635939" lon="13.850077343612803"><ele>821.0</ele><time>2026-05-02T08:56:18.001Z</time></trkpt><trkpt lat="42.22555395306769" lon="13.849968499792073"><ele>821.0</ele><time>2026-05-02T08:56:19.001Z</time></trkpt><trkpt lat="42.22554369592712" lon="13.849880642719489"><ele>821.0000000000001</ele><time>2026-05-02T08:56:20.001Z</time></trkpt><trkpt lat="42.2255188062882" lon="13.849774761736386"><ele>821.0</ele><time>2026-05-02T08:56:21.001Z</time></trkpt><trkpt lat="42.22549419550304" lon="13.84968080534636"><ele>824.4</ele><time>2026-05-02T08:56:22.001Z</time></trkpt><trkpt lat="42.22547144023452" lon="13.849569341210087"><ele>827.8</ele><time>2026-05-02T08:56:23.001Z</time></trkpt><trkpt lat="42.225501165379285" lon="13.84942398939917"><ele>831.1999999999999</ele><time>2026-05-02T08:56:25.001Z</time></trkpt><trkpt lat="42.22561303470235" lon="13.84934336763097"><ele>834.5999999999999</ele><time>2026-05-02T08:56:27.001Z</time></trkpt><trkpt lat="42.225687507444285" lon="13.84933019342628"><ele>838.0</ele><time>2026-05-02T08:56:28.001Z</time></trkpt><trkpt lat="42.225778744369855" lon="13.849310005681525"><ele>845.4</ele><time>2026-05-02T08:56:29.001Z</time></trkpt><trkpt lat="42.225882809788004" lon="13.849275009733512"><ele>852.8</ele><time>2026-05-02T08:56:30.001Z</time></trkpt><trkpt lat="42.22598025550503" lon="13.849225105657984"><ele>860.2</ele><time>2026-05-02T08:56:31.001Z</time></trkpt><trkpt lat="42.22607571518722" lon="13.849178288384786"><ele>867.6</ele><time>2026-05-02T08:56:32.001Z</time></trkpt><trkpt lat="42.22618152171782" lon="13.849141168132808"><ele>875.0</ele><time>2026-05-02T08:56:33.001Z</time></trkpt><trkpt lat="42.22631133957818" lon="13.84910997519465"><ele>875.0</ele><time>2026-05-02T08:56:34.001Z</time></trkpt><trkpt lat="42.2264383727686" lon="13.849091490800138"><ele>875.0</ele><time>2026-05-02T08:56:35.001Z</time></trkpt><trkpt lat="42.22655756428535" lon="13.849070195589146"><ele>875.0</ele><time>2026-05-02T08:56:36.001Z</time></trkpt><trkpt lat="42.22666828772403" lon="13.84903760728237"><ele>875.0</ele><time>2026-05-02T08:56:37.001Z</time></trkpt><trkpt lat="42.22677812774941" lon="13.84900944729934"><ele>874.1666666666667</ele><time>2026-05-02T08:56:38.001Z</time></trkpt><trkpt lat="42.22687403831442" lon="13.848995933954047"><ele>873.3333333333334</ele><time>2026-05-02T08:56:39.001Z</time></trkpt><trkpt lat="42.226969614711344" lon="13.84897306490007"><ele>872.5</ele><time>2026-05-02T08:56:40.001Z</time></trkpt><trkpt lat="42.22705106856875" lon="13.848951861045192"><ele>871.6666666666667</ele><time>2026-05-02T08:56:41.001Z</time></trkpt><trkpt lat="42.22713804216677" lon="13.848923429271446"><ele>870.8333333333334</ele><time>2026-05-02T08:56:42.001Z</time></trkpt><trkpt lat="42.227214278196406" lon="13.848909853246852"><ele>870.0</ele><time>2026-05-02T08:56:43.001Z</time></trkpt><trkpt lat="42.22734408670202" lon="13.848864706628952"><ele>868.7142857142858</ele><time>2026-05-02T08:56:45.001Z</time></trkpt><trkpt lat="42.227421595551164" lon="13.848839860271202"><ele>867.4285714285714</ele><time>2026-05-02T08:56:46.001Z</time></trkpt><trkpt lat="42.22748581166978" lon="13.848824481268103"><ele>866.1428571428571</ele><time>2026-05-02T08:56:47.001Z</time></trkpt><trkpt lat="42.22758709569331" lon="13.84881821742451"><ele>864.8571428571429</ele><time>2026-05-02T08:56:49.001Z</time></trkpt><trkpt lat="42.22765258046033" lon="13.848825821577728"><ele>863.5714285714286</ele><time>2026-05-02T08:56:50.001Z</time></trkpt><trkpt lat="42.22772052869547" lon="13.848842922993542"><ele>862.2857142857143</ele><time>2026-05-02T08:56:51.001Z</time></trkpt><trkpt lat="42.22778042589213" lon="13.848874729007468"><ele>861.0</ele><time>2026-05-02T08:56:52.001Z</time></trkpt><trkpt lat="42.2278930027036" lon="13.84890398881157"><ele>861.0</ele><time>2026-05-02T08:56:54.001Z</time></trkpt><trkpt lat="42.227963262495074" lon="13.848941314079555"><ele>860.9999999999999</ele><time>2026-05-02T08:56:55.001Z</time></trkpt><trkpt lat="42.2280386508062" lon="13.848966113241017"><ele>860.9999999999999</ele><time>2026-05-02T08:56:56.001Z</time></trkpt><trkpt lat="42.22816363431765" lon="13.848977429356143"><ele>861.0</ele><time>2026-05-02T08:56:58.001Z</time></trkpt><trkpt lat="42.228242109324846" lon="13.848974045101116"><ele>861.0</ele><time>2026-05-02T08:56:59.001Z</time></trkpt><trkpt lat="42.22835915474838" lon="13.849007532462142"><ele>863.0</ele><time>2026-05-02T08:57:01.001Z</time></trkpt><trkpt lat="42.22848327396683" lon="13.848991886805193"><ele>864.9999999999999</ele><time>2026-05-02T08:57:03.001Z</time></trkpt><trkpt lat="42.22855209523502" lon="13.848958119524399"><ele>866.9999999999999</ele><time>2026-05-02T08:57:04.001Z</time></trkpt><trkpt lat="42.22867857362686" lon="13.848898696361362"><ele>869.0</ele><time>2026-05-02T08:57:06.001Z</time></trkpt><trkpt lat="42.228746978125" lon="13.848893365620324"><ele>871.0</ele><time>2026-05-02T08:57:07.001Z</time></trkpt><trkpt lat="42.22887073946379" lon="13.848936435248513"><ele>870.9999999999999</ele><time>2026-05-02T08:57:09.001Z</time></trkpt><trkpt lat="42.228944854117906" lon="13.848978905563303"><ele>871.0</ele><time>2026-05-02T08:57:10.001Z</time></trkpt><trkpt lat="42.229022281661415" lon="13.849035250685972"><ele>871.0</ele><time>2026-05-02T08:57:11.001Z</time></trkpt><trkpt lat="42.22910409152731" lon="13.849085371940726"><ele>871.0</ele><time>2026-05-02T08:57:12.001Z</time></trkpt><trkpt lat="42.22918650425102" lon="13.849136971293085"><ele>870.9999999999999</ele><time>2026-05-02T08:57:13.001Z</time></trkpt><trkpt lat="42.2292549280446" lon="13.849185752665534"><ele>871.0</ele><time>2026-05-02T08:57:14.001Z</time></trkpt><trkpt lat="42.22930992421863" lon="13.849233346319359"><ele>872.5714285714286</ele><time>2026-05-02T08:57:15.001Z</time></trkpt><trkpt lat="42.22936325544319" lon="13.849290189035674"><ele>874.1428571428571</ele><time>2026-05-02T08:57:16.001Z</time></trkpt><trkpt lat="42.22941934479303" lon="13.849340779456634"><ele>875.7142857142858</ele><time>2026-05-02T08:57:17.001Z</time></trkpt><trkpt lat="42.229480534257085" lon="13.849367852488001"><ele>877.2857142857142</ele><time>2026-05-02T08:57:18.001Z</time></trkpt><trkpt lat="42.22958650186141" lon="13.84932890245479"><ele>878.8571428571429</ele><time>2026-05-02T08:57:20.001Z</time></trkpt><trkpt lat="42.229645781155284" lon="13.849299682324677"><ele>880.4285714285714</ele><time>2026-05-02T08:57:21.001Z</time></trkpt><trkpt lat="42.229712920936315" lon="13.849261583254506"><ele>882.0</ele><time>2026-05-02T08:57:22.001Z</time></trkpt><trkpt lat="42.22978600049091" lon="13.849213438257754"><ele>882.6666666666666</ele><time>2026-05-02T08:57:23.001Z</time></trkpt><trkpt lat="42.22985056134167" lon="13.849188203529595"><ele>883.3333333333333</ele><time>2026-05-02T08:57:24.001Z</time></trkpt><trkpt lat="42.229924893584155" lon="13.849133637972974"><ele>884.0</ele><time>2026-05-02T08:57:25.001Z</time></trkpt><trkpt lat="42.230003988437545" lon="13.849070835930052"><ele>884.6666666666666</ele><time>2026-05-02T08:57:26.001Z</time></trkpt><trkpt lat="42.23008522214621" lon="13.849028658631678"><ele>885.3333333333333</ele><time>2026-05-02T08:57:27.001Z</time></trkpt><trkpt lat="42.230161802933864" lon="13.848992269667496"><ele>886.0</ele><time>2026-05-02T08:57:28.001Z</time></trkpt><trkpt lat="42.230256246222886" lon="13.848950968954895"><ele>886.0</ele><time>2026-05-02T08:57:29.001Z</time></trkpt><trkpt lat="42.23035373094568" lon="13.848906563923222"><ele>885.9999999999999</ele><time>2026-05-02T08:57:30.001Z</time></trkpt><trkpt lat="42.23044981534419" lon="13.848857958203626"><ele>885.9999999999999</ele><time>2026-05-02T08:57:31.001Z</time></trkpt><trkpt lat="42.23052923210303" lon="13.848824379071244"><ele>886.0</ele><time>2026-05-02T08:57:32.001Z</time></trkpt><trkpt lat="42.23060808306725" lon="13.848785769696724"><ele>886.0</ele><time>2026-05-02T08:57:33.001Z</time></trkpt><trkpt lat="42.2306926243469" lon="13.84875572335721"><ele>885.9999999999999</ele><time>2026-05-02T08:57:34.001Z</time></trkpt><trkpt lat="42.23077606951883" lon="13.848716483110122"><ele>886.0</ele><time>2026-05-02T08:57:35.001Z</time></trkpt><trkpt lat="42.2308656277839" lon="13.848679295014227"><ele>886.0</ele><time>2026-05-02T08:57:36.001Z</time></trkpt><trkpt lat="42.230956757093374" lon="13.84865255432033"><ele>886.0</ele><time>2026-05-02T08:57:37.001Z</time></trkpt><trkpt lat="42.23104440621663" lon="13.84861001970807"><ele>885.9999999999999</ele><time>2026-05-02T08:57:38.001Z</time></trkpt><trkpt lat="42.23111538078758" lon="13.848577724750852"><ele>886.0</ele><time>2026-05-02T08:57:39.001Z</time></trkpt><trkpt lat="42.231186419897" lon="13.848553201783231"><ele>885.9999999999999</ele><time>2026-05-02T08:57:40.001Z</time></trkpt><trkpt lat="42.23126479016542" lon="13.84851683041771"><ele>886.0</ele><time>2026-05-02T08:57:41.001Z</time></trkpt><trkpt lat="42.23134104138618" lon="13.848474660719017"><ele>886.0</ele><time>2026-05-02T08:57:42.001Z</time></trkpt><trkpt lat="42.23142930205134" lon="13.848420033785567"><ele>886.0</ele><time>2026-05-02T08:57:43.001Z</time></trkpt><trkpt lat="42.23151756460287" lon="13.848385703046034"><ele>885.9999999999999</ele><time>2026-05-02T08:57:44.001Z</time></trkpt><trkpt lat="42.23160062083785" lon="13.848372966119161"><ele>886.0</ele><time>2026-05-02T08:57:45.001Z</time></trkpt><trkpt lat="42.231687231462544" lon="13.848381815572187"><ele>889.3333333333333</ele><time>2026-05-02T08:57:46.001Z</time></trkpt><trkpt lat="42.231769783574755" lon="13.848373634417397"><ele>892.6666666666666</ele><time>2026-05-02T08:57:47.001Z</time></trkpt><trkpt lat="42.231855943215265" lon="13.848362084897856"><ele>896.0</ele><time>2026-05-02T08:57:48.001Z</time></trkpt><trkpt lat="42.23193453339491" lon="13.84834251479748"><ele>899.3333333333333</ele><time>2026-05-02T08:57:49.001Z</time></trkpt><trkpt lat="42.23199999480793" lon="13.848319463304433"><ele>902.6666666666666</ele><time>2026-05-02T08:57:50.001Z</time></trkpt><trkpt lat="42.23209729913482" lon="13.848241403381028"><ele>906.0</ele><time>2026-05-02T08:57:52.001Z</time></trkpt><trkpt lat="42.2321720885399" lon="13.84812167379257"><ele>906.0</ele><time>2026-05-02T08:57:54.001Z</time></trkpt><trkpt lat="42.23227570773747" lon="13.848042207709161"><ele>906.0</ele><time>2026-05-02T08:57:56.001Z</time></trkpt><trkpt lat="42.23234513208252" lon="13.848028673781563"><ele>906.0</ele><time>2026-05-02T08:57:57.001Z</time></trkpt><trkpt lat="42.23241886328942" lon="13.84802790366126"><ele>906.0</ele><time>2026-05-02T08:57:58.001Z</time></trkpt><trkpt lat="42.23249762333223" lon="13.848031080426809"><ele>906.0</ele><time>2026-05-02T08:57:59.001Z</time></trkpt><trkpt lat="42.232577801623016" lon="13.848040740748027"><ele>906.0</ele><time>2026-05-02T08:58:01.001Z</time></trkpt><trkpt lat="42.232638542237424" lon="13.84810442395328"><ele>905.8</ele><time>2026-05-02T08:58:05.001Z</time></trkpt><trkpt lat="42.23268912724118" lon="13.848155728471989"><ele>905.5999999999999</ele><time>2026-05-02T08:58:34Z</time></trkpt><trkpt lat="42.232725679604506" lon="13.848240767183519"><ele>905.4</ele><time>2026-05-02T08:58:46Z</time></trkpt><trkpt lat="42.232636278114754" lon="13.848093818017375"><ele>905.2</ele><time>2026-05-02T08:59:08Z</time></trkpt><trkpt lat="42.232566967299995" lon="13.847982428980842"><ele>905.0</ele><time>2026-05-02T08:59:09Z</time></trkpt><trkpt lat="42.23249915429838" lon="13.847907503366866"><ele>905.0</ele><time>2026-05-02T08:59:10Z</time></trkpt><trkpt lat="42.23241036928073" lon="13.847834212590216"><ele>905.0</ele><time>2026-05-02T08:59:11Z</time></trkpt><trkpt lat="42.23231698376052" lon="13.847760552083287"><ele>905.0</ele><time>2026-05-02T08:59:12Z</time></trkpt><trkpt lat="42.232211708875916" lon="13.847676041017616"><ele>905.0</ele><time>2026-05-02T08:59:13Z</time></trkpt><trkpt lat="42.23209966470874" lon="13.847579072550886"><ele>910.2</ele><time>2026-05-02T08:59:14Z</time></trkpt><trkpt lat="42.231989211181826" lon="13.84748242037611"><ele>915.4</ele><time>2026-05-02T08:59:15Z</time></trkpt><trkpt lat="42.23189818885839" lon="13.84740511646603"><ele>920.5999999999999</ele><time>2026-05-02T08:59:16Z</time></trkpt><trkpt lat="42.231809393986275" lon="13.847337414312697"><ele>925.8</ele><time>2026-05-02T08:59:17Z</time></trkpt><trkpt lat="42.2317204958417" lon="13.847301855673962"><ele>931.0</ele><time>2026-05-02T08:59:18Z</time></trkpt><trkpt lat="42.231625818780806" lon="13.847292174289928"><ele>931.0</ele><time>2026-05-02T08:59:19Z</time></trkpt><trkpt lat="42.23152284134886" lon="13.847290413832555"><ele>930.9999999999999</ele><time>2026-05-02T08:59:20Z</time></trkpt><trkpt lat="42.23142073052291" lon="13.84729761313228"><ele>930.9999999999999</ele><time>2026-05-02T08:59:21Z</time></trkpt><trkpt lat="42.231330586670786" lon="13.847252411081314"><ele>931.0</ele><time>2026-05-02T08:59:22Z</time></trkpt><trkpt lat="42.23125163444503" lon="13.847167392418987"><ele>931.0</ele><time>2026-05-02T08:59:23Z</time></trkpt><trkpt lat="42.231177427706484" lon="13.847076455162215"><ele>930.9999999999999</ele><time>2026-05-02T08:59:24Z</time></trkpt><trkpt lat="42.23110037408624" lon="13.84699597008235"><ele>931.0</ele><time>2026-05-02T08:59:25Z</time></trkpt><trkpt lat="42.231027432133565" lon="13.846945679706213"><ele>931.0</ele><time>2026-05-02T08:59:26Z</time></trkpt><trkpt lat="42.2309506577083" lon="13.846930949984108"><ele>931.0</ele><time>2026-05-02T08:59:27Z</time></trkpt><trkpt lat="42.23088321499106" lon="13.846939168677906"><ele>930.9999999999999</ele><time>2026-05-02T08:59:28Z</time></trkpt><trkpt lat="42.23081117699181" lon="13.84697027983572"><ele>931.0</ele><time>2026-05-02T08:59:29Z</time></trkpt><trkpt lat="42.23072471903385" lon="13.847006357885645"><ele>931.0</ele><time>2026-05-02T08:59:30Z</time></trkpt><trkpt lat="42.23064521660089" lon="13.84703285264967"><ele>930.9999999999999</ele><time>2026-05-02T08:59:31Z</time></trkpt><trkpt lat="42.23058246443707" lon="13.847055604924757"><ele>930.9999999999999</ele><time>2026-05-02T08:59:32Z</time></trkpt><trkpt lat="42.23046443534936" lon="13.847103946056444"><ele>931.0</ele><time>2026-05-02T08:59:34Z</time></trkpt><trkpt lat="42.23037537445125" lon="13.847129961026054"><ele>931.0</ele><time>2026-05-02T08:59:36Z</time></trkpt><trkpt lat="42.23028269975747" lon="13.84716006106311"><ele>931.5999999999999</ele><time>2026-05-02T08:59:38Z</time></trkpt><trkpt lat="42.230176951794775" lon="13.84719611449179"><ele>932.1999999999999</ele><time>2026-05-02T08:59:40Z</time></trkpt><trkpt lat="42.230098657891645" lon="13.847227038363373"><ele>932.8000000000001</ele><time>2026-05-02T08:59:41Z</time></trkpt><trkpt lat="42.23000797178791" lon="13.847259072083661"><ele>933.4000000000001</ele><time>2026-05-02T08:59:42Z</time></trkpt><trkpt lat="42.229929698062186" lon="13.847287544717135"><ele>934.0</ele><time>2026-05-02T08:59:43Z</time></trkpt><trkpt lat="42.229848363678606" lon="13.847328594959814"><ele>934.9999999999999</ele><time>2026-05-02T08:59:44Z</time></trkpt><trkpt lat="42.22975854961498" lon="13.847375423499901"><ele>936.0</ele><time>2026-05-02T08:59:45Z</time></trkpt><trkpt lat="42.229672180934706" lon="13.84741615612633"><ele>937.0</ele><time>2026-05-02T08:59:46Z</time></trkpt><trkpt lat="42.229589574731676" lon="13.847453830493667"><ele>938.0</ele><time>2026-05-02T08:59:47Z</time></trkpt><trkpt lat="42.22951151396343" lon="13.847490661747505"><ele>938.9999999999999</ele><time>2026-05-02T08:59:48Z</time></trkpt><trkpt lat="42.22943423817555" lon="13.847527721545445"><ele>940.0</ele><time>2026-05-02T08:59:49Z</time></trkpt><trkpt lat="42.22935017103145" lon="13.847564444936088"><ele>939.9999999999999</ele><time>2026-05-02T08:59:50Z</time></trkpt><trkpt lat="42.22927620458307" lon="13.847590713709959"><ele>940.0</ele><time>2026-05-02T08:59:51Z</time></trkpt><trkpt lat="42.229211574035766" lon="13.84760907866464"><ele>940.0</ele><time>2026-05-02T08:59:52Z</time></trkpt><trkpt lat="42.22910987037158" lon="13.847631708150276"><ele>940.0</ele><time>2026-05-02T08:59:54Z</time></trkpt><trkpt lat="42.22903816510763" lon="13.847658154051054"><ele>939.9999999999999</ele><time>2026-05-02T09:00:05Z</time></trkpt><trkpt lat="42.22893122158112" lon="13.847658031784897"><ele>940.0</ele><time>2026-05-02T09:02:22.001Z</time></trkpt><trkpt lat="42.228839881203356" lon="13.84767845565829"><ele>933.2</ele><time>2026-05-02T09:02:24.001Z</time></trkpt><trkpt lat="42.22872065722438" lon="13.847708377249816"><ele>926.4</ele><time>2026-05-02T09:02:26.001Z</time></trkpt><trkpt lat="42.228584715387186" lon="13.847747292586021"><ele>919.5999999999999</ele><time>2026-05-02T09:02:28.001Z</time></trkpt><trkpt lat="42.228506121421916" lon="13.847758262835042"><ele>912.8</ele><time>2026-05-02T09:02:29.001Z</time></trkpt><trkpt lat="42.22844345592694" lon="13.84778251606493"><ele>906.0</ele><time>2026-05-02T09:02:30.001Z</time></trkpt><trkpt lat="42.2283662852576" lon="13.847793290137858"><ele>906.0</ele><time>2026-05-02T09:02:31.001Z</time></trkpt><trkpt lat="42.22828794396089" lon="13.847794678854996"><ele>906.0</ele><time>2026-05-02T09:02:32.001Z</time></trkpt><trkpt lat="42.22821227340869" lon="13.847805712936735"><ele>906.0</ele><time>2026-05-02T09:02:33.001Z</time></trkpt><trkpt lat="42.228141771324665" lon="13.847811132994924"><ele>906.0</ele><time>2026-05-02T09:02:34.001Z</time></trkpt><trkpt lat="42.2280725267912" lon="13.847820706096448"><ele>906.0</ele><time>2026-05-02T09:02:35.001Z</time></trkpt><trkpt lat="42.22800551210875" lon="13.847827459709524"><ele>906.0</ele><time>2026-05-02T09:02:36.001Z</time></trkpt><trkpt lat="42.22788064567601" lon="13.847823491254967"><ele>905.142857142857</ele><time>2026-05-02T09:02:38.001Z</time></trkpt><trkpt lat="42.227813372764764" lon="13.847816438456185"><ele>904.2857142857142</ele><time>2026-05-02T09:02:39.001Z</time></trkpt><trkpt lat="42.227748136705124" lon="13.847809409835763"><ele>903.4285714285714</ele><time>2026-05-02T09:02:40.001Z</time></trkpt><trkpt lat="42.227683640994755" lon="13.847795355573963"><ele>902.5714285714286</ele><time>2026-05-02T09:02:41.001Z</time></trkpt><trkpt lat="42.22761149319117" lon="13.847791952231491"><ele>901.7142857142858</ele><time>2026-05-02T09:02:42.001Z</time></trkpt><trkpt lat="42.22753427722632" lon="13.847791911144082"><ele>900.857142857143</ele><time>2026-05-02T09:02:43.001Z</time></trkpt><trkpt lat="42.22745717270572" lon="13.847792466572812"><ele>900.0000000000001</ele><time>2026-05-02T09:02:44.001Z</time></trkpt><trkpt lat="42.22737947624617" lon="13.847787774133897"><ele>900.5</ele><time>2026-05-02T09:02:45.001Z</time></trkpt><trkpt lat="42.22729774532923" lon="13.84778364395256"><ele>901.0</ele><time>2026-05-02T09:02:46.001Z</time></trkpt><trkpt lat="42.22720970686121" lon="13.847773402904982"><ele>901.5</ele><time>2026-05-02T09:02:47.001Z</time></trkpt><trkpt lat="42.22713945706302" lon="13.84778154996959"><ele>902.0</ele><time>2026-05-02T09:02:48.001Z</time></trkpt><trkpt lat="42.22706425014304" lon="13.84777858572427"><ele>902.5</ele><time>2026-05-02T09:02:49.001Z</time></trkpt><trkpt lat="42.226985345897795" lon="13.847779021159363"><ele>903.0</ele><time>2026-05-02T09:02:50.001Z</time></trkpt><trkpt lat="42.22689835743261" lon="13.847781291880207"><ele>903.0</ele><time>2026-05-02T09:02:51.001Z</time></trkpt><trkpt lat="42.22679216857863" lon="13.847786895583964"><ele>903.0</ele><time>2026-05-02T09:02:52.001Z</time></trkpt><trkpt lat="42.2266785332698" lon="13.847792964961739"><ele>903.0</ele><time>2026-05-02T09:02:53.001Z</time></trkpt><trkpt lat="42.22655858821209" lon="13.847791294897812"><ele>903.0</ele><time>2026-05-02T09:02:54.001Z</time></trkpt><trkpt lat="42.22642485229794" lon="13.847796466300464"><ele>903.5</ele><time>2026-05-02T09:02:55.001Z</time></trkpt><trkpt lat="42.226279941468185" lon="13.847802057717583"><ele>904.0</ele><time>2026-05-02T09:02:56.001Z</time></trkpt><trkpt lat="42.22613248226658" lon="13.847802770408974"><ele>904.5</ele><time>2026-05-02T09:02:57.001Z</time></trkpt><trkpt lat="42.22599799625768" lon="13.84780417582997"><ele>905.0</ele><time>2026-05-02T09:02:58.001Z</time></trkpt><trkpt lat="42.22586672344385" lon="13.84781202767471"><ele>905.0</ele><time>2026-05-02T09:02:59.001Z</time></trkpt><trkpt lat="42.225738992689756" lon="13.847803599476235"><ele>905.0</ele><time>2026-05-02T09:03:00.001Z</time></trkpt><trkpt lat="42.22562468801027" lon="13.847781263916994"><ele>905.0</ele><time>2026-05-02T09:03:01.001Z</time></trkpt><trkpt lat="42.22552173661333" lon="13.84773696958269"><ele>905.0</ele><time>2026-05-02T09:03:02.001Z</time></trkpt><trkpt lat="42.22541376674497" lon="13.847677347879904"><ele>908.75</ele><time>2026-05-02T09:03:03.001Z</time></trkpt><trkpt lat="42.22529562029729" lon="13.847596572225086"><ele>912.5</ele><time>2026-05-02T09:03:04.001Z</time></trkpt><trkpt lat="42.22516407918071" lon="13.84752019268337"><ele>916.25</ele><time>2026-05-02T09:03:05.001Z</time></trkpt><trkpt lat="42.225024789118244" lon="13.847459844295038"><ele>920.0</ele><time>2026-05-02T09:03:06.001Z</time></trkpt><trkpt lat="42.224901120248205" lon="13.847408486995556"><ele>916.2</ele><time>2026-05-02T09:03:07.001Z</time></trkpt><trkpt lat="42.22479936749445" lon="13.847365294501493"><ele>912.4</ele><time>2026-05-02T09:03:08.001Z</time></trkpt><trkpt lat="42.2247264807402" lon="13.847323990346624"><ele>908.5999999999999</ele><time>2026-05-02T09:03:09.001Z</time></trkpt><trkpt lat="42.224649356691216" lon="13.847199921337472"><ele>904.8</ele><time>2026-05-02T09:03:11.001Z</time></trkpt><trkpt lat="42.22463178438987" lon="13.84710055369766"><ele>901.0</ele><time>2026-05-02T09:03:12.001Z</time></trkpt><trkpt lat="42.22462315336119" lon="13.84697816821958"><ele>901.0</ele><time>2026-05-02T09:03:13.001Z</time></trkpt><trkpt lat="42.22462229987775" lon="13.846856020107431"><ele>900.9999999999999</ele><time>2026-05-02T09:03:14.001Z</time></trkpt><trkpt lat="42.22464789597204" lon="13.846750255204968"><ele>900.9999999999999</ele><time>2026-05-02T09:03:15.001Z</time></trkpt><trkpt lat="42.224706499916664" lon="13.846640543471175"><ele>901.0</ele><time>2026-05-02T09:03:16.001Z</time></trkpt><trkpt lat="42.224780289895804" lon="13.846550925671467"><ele>901.0</ele><time>2026-05-02T09:03:17.001Z</time></trkpt><trkpt lat="42.224849690111085" lon="13.846454826248822"><ele>910.0</ele><time>2026-05-02T09:03:18.001Z</time></trkpt><trkpt lat="42.22492581938414" lon="13.846343184196098"><ele>919.0</ele><time>2026-05-02T09:03:19.001Z</time></trkpt><trkpt lat="42.22501045613399" lon="13.846230743563108"><ele>928.0</ele><time>2026-05-02T09:03:20.001Z</time></trkpt><trkpt lat="42.225110080848516" lon="13.846107972580748"><ele>937.0</ele><time>2026-05-02T09:03:21.001Z</time></trkpt><trkpt lat="42.22521767691603" lon="13.846014990723535"><ele>939.75</ele><time>2026-05-02T09:03:22.001Z</time></trkpt><trkpt lat="42.22533117265497" lon="13.84593318669457"><ele>942.5</ele><time>2026-05-02T09:03:23.001Z</time></trkpt><trkpt lat="42.22545470467634" lon="13.845848817613907"><ele>945.25</ele><time>2026-05-02T09:03:24.001Z</time></trkpt><trkpt lat="42.2255837272645" lon="13.845767501772217"><ele>948.0</ele><time>2026-05-02T09:03:25.001Z</time></trkpt><trkpt lat="42.22570014734802" lon="13.845692751619898"><ele>948.5</ele><time>2026-05-02T09:03:26.001Z</time></trkpt><trkpt lat="42.22580546812396" lon="13.845620367840189"><ele>949.0</ele><time>2026-05-02T09:03:27.001Z</time></trkpt><trkpt lat="42.22591099061063" lon="13.845545616670528"><ele>949.5</ele><time>2026-05-02T09:03:28.001Z</time></trkpt><trkpt lat="42.226014599108346" lon="13.845452943109336"><ele>950.0</ele><time>2026-05-02T09:03:29.001Z</time></trkpt><trkpt lat="42.226128169818836" lon="13.845349241076224"><ele>950.0</ele><time>2026-05-02T09:03:30.001Z</time></trkpt><trkpt lat="42.22624399754877" lon="13.845239244084755"><ele>950.0</ele><time>2026-05-02T09:03:31.001Z</time></trkpt><trkpt lat="42.226361832652394" lon="13.845130376834438"><ele>950.0</ele><time>2026-05-02T09:03:32.001Z</time></trkpt><trkpt lat="42.22646537012846" lon="13.845022496132497"><ele>950.0</ele><time>2026-05-02T09:03:33.001Z</time></trkpt><trkpt lat="42.22657094163265" lon="13.844913303164125"><ele>953.5</ele><time>2026-05-02T09:03:34.001Z</time></trkpt><trkpt lat="42.22668023494755" lon="13.844812545070809"><ele>957.0</ele><time>2026-05-02T09:03:35.001Z</time></trkpt><trkpt lat="42.22679409856013" lon="13.844721532631759"><ele>960.5</ele><time>2026-05-02T09:03:36.001Z</time></trkpt><trkpt lat="42.226923717836215" lon="13.844614529468673"><ele>964.0</ele><time>2026-05-02T09:03:37.001Z</time></trkpt><trkpt lat="42.22705392840055" lon="13.844506573461098"><ele>964.0</ele><time>2026-05-02T09:03:38.001Z</time></trkpt><trkpt lat="42.22716787806536" lon="13.84440913745007"><ele>964.0</ele><time>2026-05-02T09:03:39.001Z</time></trkpt><trkpt lat="42.22727751790509" lon="13.844323637697332"><ele>964.0</ele><time>2026-05-02T09:03:40.001Z</time></trkpt><trkpt lat="42.22737578445282" lon="13.84425220765948"><ele>964.0</ele><time>2026-05-02T09:03:41.001Z</time></trkpt><trkpt lat="42.227466507326156" lon="13.844186649444081"><ele>967.0</ele><time>2026-05-02T09:03:42.001Z</time></trkpt><trkpt lat="42.22754700797821" lon="13.84413052251495"><ele>970.0000000000001</ele><time>2026-05-02T09:03:43.001Z</time></trkpt><trkpt lat="42.22761239526029" lon="13.844070786900712"><ele>973.0000000000001</ele><time>2026-05-02T09:03:44.001Z</time></trkpt><trkpt lat="42.22766068395064" lon="13.843937487206762"><ele>976.0</ele><time>2026-05-02T09:03:46.001Z</time></trkpt><trkpt lat="42.22762063509103" lon="13.84382393907253"><ele>979.0</ele><time>2026-05-02T09:03:48.001Z</time></trkpt><trkpt lat="42.227524656036785" lon="13.843747280920065"><ele>978.9999999999999</ele><time>2026-05-02T09:03:50.001Z</time></trkpt><trkpt lat="42.227458303177144" lon="13.843766115117745"><ele>979.0</ele><time>2026-05-02T09:03:51.001Z</time></trkpt><trkpt lat="42.22738851412238" lon="13.843798318806849"><ele>979.0</ele><time>2026-05-02T09:03:52.001Z</time></trkpt><trkpt lat="42.22731018920936" lon="13.843822790640969"><ele>979.0</ele><time>2026-05-02T09:03:53.001Z</time></trkpt><trkpt lat="42.227219858614255" lon="13.843840314881508"><ele>978.9999999999999</ele><time>2026-05-02T09:03:54.001Z</time></trkpt><trkpt lat="42.22712685679376" lon="13.84384265954752"><ele>979.0</ele><time>2026-05-02T09:03:55.001Z</time></trkpt><trkpt lat="42.22702612215221" lon="13.84384754289302"><ele>980.2</ele><time>2026-05-02T09:03:56.001Z</time></trkpt><trkpt lat="42.226923060494904" lon="13.843846810000347"><ele>981.4000000000001</ele><time>2026-05-02T09:03:57.001Z</time></trkpt><trkpt lat="42.22681816580679" lon="13.84383985062785"><ele>982.6</ele><time>2026-05-02T09:03:58.001Z</time></trkpt><trkpt lat="42.226734854636234" lon="13.843825660993275"><ele>983.8</ele><time>2026-05-02T09:03:59.001Z</time></trkpt><trkpt lat="42.22664444194647" lon="13.843801159738163"><ele>985.0</ele><time>2026-05-02T09:04:01.001Z</time></trkpt><trkpt lat="42.22655865506449" lon="13.843867024369185"><ele>985.0</ele><time>2026-05-02T09:04:38.001Z</time></trkpt><trkpt lat="42.22648405941102" lon="13.843925498033123"><ele>985.0</ele><time>2026-05-02T09:04:39.001Z</time></trkpt><trkpt lat="42.22639258173038" lon="13.843970267771873"><ele>985.0</ele><time>2026-05-02T09:04:40.001Z</time></trkpt><trkpt lat="42.22628988519506" lon="13.844011831921682"><ele>985.0</ele><time>2026-05-02T09:04:41.001Z</time></trkpt><trkpt lat="42.226173404685454" lon="13.844064765149149"><ele>985.0</ele><time>2026-05-02T09:04:42.001Z</time></trkpt><trkpt lat="42.22605931176437" lon="13.844120735725403"><ele>986.25</ele><time>2026-05-02T09:04:43.001Z</time></trkpt><trkpt lat="42.22593935452445" lon="13.844173728699818"><ele>987.5</ele><time>2026-05-02T09:04:44.001Z</time></trkpt><trkpt lat="42.225809477035305" lon="13.844225295025181"><ele>988.75</ele><time>2026-05-02T09:04:45.001Z</time></trkpt><trkpt lat="42.22569398278465" lon="13.844264766325052"><ele>990.0</ele><time>2026-05-02T09:04:46.001Z</time></trkpt><trkpt lat="42.225603206194904" lon="13.844302547873578"><ele>986.4</ele><time>2026-05-02T09:04:47.001Z</time></trkpt><trkpt lat="42.22552520530713" lon="13.844351575580436"><ele>982.8</ele><time>2026-05-02T09:04:48.001Z</time></trkpt><trkpt lat="42.22545024093843" lon="13.84440779979526"><ele>979.2</ele><time>2026-05-02T09:04:49.001Z</time></trkpt><trkpt lat="42.22537048429614" lon="13.84447599583466"><ele>975.6</ele><time>2026-05-02T09:04:50.001Z</time></trkpt><trkpt lat="42.22528662167124" lon="13.844536393988314"><ele>972.0</ele><time>2026-05-02T09:04:51.001Z</time></trkpt><trkpt lat="42.225195930196826" lon="13.844580729890659"><ele>972.0</ele><time>2026-05-02T09:04:52.001Z</time></trkpt><trkpt lat="42.225089225124435" lon="13.844598368455015"><ele>972.0</ele><time>2026-05-02T09:04:53.001Z</time></trkpt><trkpt lat="42.22496931370504" lon="13.844599062769687"><ele>972.0</ele><time>2026-05-02T09:04:54.001Z</time></trkpt><trkpt lat="42.22485800431465" lon="13.844600904992797"><ele>972.0</ele><time>2026-05-02T09:04:55.001Z</time></trkpt><trkpt lat="42.22475152648759" lon="13.844599510308102"><ele>972.0</ele><time>2026-05-02T09:04:56.001Z</time></trkpt><trkpt lat="42.22467964496053" lon="13.844586891823155"><ele>969.8</ele><time>2026-05-02T09:04:57.001Z</time></trkpt><trkpt lat="42.22458638529469" lon="13.844465735321155"><ele>967.6</ele><time>2026-05-02T09:04:59.001Z</time></trkpt><trkpt lat="42.22457558648868" lon="13.844368616500523"><ele>965.3999999999999</ele><time>2026-05-02T09:05:00.001Z</time></trkpt><trkpt lat="42.22459166848114" lon="13.844264994656644"><ele>963.1999999999999</ele><time>2026-05-02T09:05:01.001Z</time></trkpt><trkpt lat="42.22463745786587" lon="13.844145255931647"><ele>961.0</ele><time>2026-05-02T09:05:02.001Z</time></trkpt><trkpt lat="42.22469609184352" lon="13.843998383485609"><ele>959.75</ele><time>2026-05-02T09:05:03.001Z</time></trkpt><trkpt lat="42.22476590041385" lon="13.84382515732411"><ele>958.5</ele><time>2026-05-02T09:05:04.001Z</time></trkpt><trkpt lat="42.22482482966417" lon="13.843655699338262"><ele>957.25</ele><time>2026-05-02T09:05:05.001Z</time></trkpt><trkpt lat="42.22488527657664" lon="13.843494221263688"><ele>956.0</ele><time>2026-05-02T09:05:06.001Z</time></trkpt><trkpt lat="42.2249563646987" lon="13.8433495194692"><ele>959.75</ele><time>2026-05-02T09:05:07.001Z</time></trkpt><trkpt lat="42.22503610126613" lon="13.843223912218745"><ele>963.5</ele><time>2026-05-02T09:05:08.001Z</time></trkpt><trkpt lat="42.22512342727558" lon="13.843118063326381"><ele>967.25</ele><time>2026-05-02T09:05:09.001Z</time></trkpt><trkpt lat="42.22520920677966" lon="13.843021946348756"><ele>971.0</ele><time>2026-05-02T09:05:10.001Z</time></trkpt><trkpt lat="42.22529175607195" lon="13.842919393879441"><ele>971.0</ele><time>2026-05-02T09:05:11.001Z</time></trkpt><trkpt lat="42.22536895362163" lon="13.842808504371364"><ele>971.0</ele><time>2026-05-02T09:05:12.001Z</time></trkpt><trkpt lat="42.225447925672576" lon="13.842690277951043"><ele>971.0</ele><time>2026-05-02T09:05:13.001Z</time></trkpt><trkpt lat="42.22552128606244" lon="13.842577824570041"><ele>971.0</ele><time>2026-05-02T09:05:14.001Z</time></trkpt><trkpt lat="42.22559973278854" lon="13.84246974087414"><ele>970.4</ele><time>2026-05-02T09:05:15.001Z</time></trkpt><trkpt lat="42.22568244213122" lon="13.842371540721274"><ele>969.8</ele><time>2026-05-02T09:05:16.001Z</time></trkpt><trkpt lat="42.22576898383159" lon="13.842280064684529"><ele>969.1999999999999</ele><time>2026-05-02T09:05:17Z</time></trkpt><trkpt lat="42.22585853935829" lon="13.842209394716466"><ele>968.5999999999999</ele><time>2026-05-02T09:05:18Z</time></trkpt><trkpt lat="42.22595047547591" lon="13.842150888267321"><ele>968.0</ele><time>2026-05-02T09:05:19Z</time></trkpt><trkpt lat="42.226043618612415" lon="13.842112728136593"><ele>968.0000000000001</ele><time>2026-05-02T09:05:20Z</time></trkpt><trkpt lat="42.22613146946502" lon="13.842083416279724"><ele>968.0</ele><time>2026-05-02T09:05:21Z</time></trkpt><trkpt lat="42.226212406159114" lon="13.842070019072079"><ele>968.0</ele><time>2026-05-02T09:05:22Z</time></trkpt><trkpt lat="42.226293326613096" lon="13.842069526547297"><ele>968.0</ele><time>2026-05-02T09:05:23Z</time></trkpt><trkpt lat="42.22638504581065" lon="13.842086558048784"><ele>968.0000000000001</ele><time>2026-05-02T09:05:24Z</time></trkpt><trkpt lat="42.22648324558694" lon="13.842100499205321"><ele>968.0</ele><time>2026-05-02T09:05:25Z</time></trkpt><trkpt lat="42.22658615087194" lon="13.842090776801921"><ele>968.8</ele><time>2026-05-02T09:05:26Z</time></trkpt><trkpt lat="42.22669308982647" lon="13.84207783548628"><ele>969.5999999999999</ele><time>2026-05-02T09:05:27Z</time></trkpt><trkpt lat="42.226802578129416" lon="13.842057374923833"><ele>970.4000000000001</ele><time>2026-05-02T09:05:28Z</time></trkpt><trkpt lat="42.22690887503897" lon="13.842049195590974"><ele>971.2</ele><time>2026-05-02T09:05:29Z</time></trkpt><trkpt lat="42.22702069557904" lon="13.842043464794598"><ele>972.0</ele><time>2026-05-02T09:05:30Z</time></trkpt><trkpt lat="42.227131793251125" lon="13.842035127619692"><ele>972.0</ele><time>2026-05-02T09:05:31Z</time></trkpt><trkpt lat="42.22723812207613" lon="13.842029762833269"><ele>972.0</ele><time>2026-05-02T09:05:32Z</time></trkpt><trkpt lat="42.22734378927992" lon="13.842022007578835"><ele>972.0</ele><time>2026-05-02T09:05:33Z</time></trkpt><trkpt lat="42.22745026212287" lon="13.842004514175095"><ele>972.0</ele><time>2026-05-02T09:05:34Z</time></trkpt><trkpt lat="42.22756127866252" lon="13.841989360680909"><ele>972.0</ele><time>2026-05-02T09:05:35Z</time></trkpt><trkpt lat="42.227673879677376" lon="13.841975557666855"><ele>971.4000000000001</ele><time>2026-05-02T09:05:36Z</time></trkpt><trkpt lat="42.22778869234433" lon="13.84196151804122"><ele>970.8000000000001</ele><time>2026-05-02T09:05:37Z</time></trkpt><trkpt lat="42.22789803183514" lon="13.841935293512467"><ele>970.2</ele><time>2026-05-02T09:05:38Z</time></trkpt><trkpt lat="42.227999423861654" lon="13.841903177680475"><ele>969.6</ele><time>2026-05-02T09:05:39Z</time></trkpt><trkpt lat="42.228101205238545" lon="13.841866755707775"><ele>969.0</ele><time>2026-05-02T09:05:40Z</time></trkpt><trkpt lat="42.22820578383926" lon="13.841826211138532"><ele>961.6</ele><time>2026-05-02T09:05:41Z</time></trkpt><trkpt lat="42.22831597657139" lon="13.841778790424593"><ele>954.2</ele><time>2026-05-02T09:05:42Z</time></trkpt><trkpt lat="42.228417146490486" lon="13.841727532213554"><ele>946.8000000000001</ele><time>2026-05-02T09:05:43Z</time></trkpt><trkpt lat="42.228508137019446" lon="13.841662492782453"><ele>939.4000000000001</ele><time>2026-05-02T09:05:44Z</time></trkpt><trkpt lat="42.22858148956962" lon="13.84156819786793"><ele>932.0</ele><time>2026-05-02T09:05:45Z</time></trkpt><trkpt lat="42.228646655706406" lon="13.841459994175011"><ele>932.0</ele><time>2026-05-02T09:05:46Z</time></trkpt><trkpt lat="42.2287040935294" lon="13.841335451565786"><ele>932.0</ele><time>2026-05-02T09:05:47Z</time></trkpt><trkpt lat="42.228760439878876" lon="13.841196781753224"><ele>932.0</ele><time>2026-05-02T09:05:48Z</time></trkpt><trkpt lat="42.22881438446705" lon="13.841047380958479"><ele>932.0</ele><time>2026-05-02T09:05:49Z</time></trkpt><trkpt lat="42.22887529021776" lon="13.840886074285246"><ele>933.25</ele><time>2026-05-02T09:05:50Z</time></trkpt><trkpt lat="42.22893355472104" lon="13.840723246892184"><ele>934.5</ele><time>2026-05-02T09:05:51Z</time></trkpt><trkpt lat="42.228987335488185" lon="13.840557854199798"><ele>935.75</ele><time>2026-05-02T09:05:52Z</time></trkpt><trkpt lat="42.22904034822993" lon="13.840390982040676"><ele>937.0</ele><time>2026-05-02T09:05:53Z</time></trkpt><trkpt lat="42.22909391865433" lon="13.840227174557718"><ele>931.25</ele><time>2026-05-02T09:05:54Z</time></trkpt><trkpt lat="42.229155609620136" lon="13.840068731889634"><ele>925.5</ele><time>2026-05-02T09:05:55Z</time></trkpt><trkpt lat="42.22921989558675" lon="13.839912170745615"><ele>919.75</ele><time>2026-05-02T09:05:56Z</time></trkpt><trkpt lat="42.22928930731537" lon="13.83976128611733"><ele>914.0</ele><time>2026-05-02T09:05:57Z</time></trkpt><trkpt lat="42.22935798615401" lon="13.83960657027393"><ele>914.0</ele><time>2026-05-02T09:05:58Z</time></trkpt><trkpt lat="42.229432573997016" lon="13.839458986097181"><ele>914.0</ele><time>2026-05-02T09:05:59Z</time></trkpt><trkpt lat="42.22952076787493" lon="13.839321502852219"><ele>914.0</ele><time>2026-05-02T09:06:00Z</time></trkpt><trkpt lat="42.22961398933392" lon="13.839192892795122"><ele>914.0</ele><time>2026-05-02T09:06:01Z</time></trkpt><trkpt lat="42.22970499751594" lon="13.83906300724092"><ele>918.0</ele><time>2026-05-02T09:06:02Z</time></trkpt><trkpt lat="42.22978512220388" lon="13.838929684150171"><ele>922.0</ele><time>2026-05-02T09:06:03Z</time></trkpt><trkpt lat="42.22986738981621" lon="13.838793057623603"><ele>926.0</ele><time>2026-05-02T09:06:04Z</time></trkpt><trkpt lat="42.22994159686106" lon="13.838651601648275"><ele>930.0</ele><time>2026-05-02T09:06:05Z</time></trkpt><trkpt lat="42.23001724993849" lon="13.838521321899103"><ele>921.5</ele><time>2026-05-02T09:06:06Z</time></trkpt><trkpt lat="42.23008819928679" lon="13.838382359471778"><ele>913.0</ele><time>2026-05-02T09:06:07Z</time></trkpt><trkpt lat="42.23015192562152" lon="13.838237847195838"><ele>904.5</ele><time>2026-05-02T09:06:08Z</time></trkpt><trkpt lat="42.23020977814713" lon="13.838104698892463"><ele>896.0</ele><time>2026-05-02T09:06:09Z</time></trkpt><trkpt lat="42.230270297074185" lon="13.83799033931181"><ele>896.0</ele><time>2026-05-02T09:06:10Z</time></trkpt><trkpt lat="42.23034471065516" lon="13.837877599838443"><ele>896.0</ele><time>2026-05-02T09:06:11Z</time></trkpt><trkpt lat="42.23044046027381" lon="13.8377825532637"><ele>896.0</ele><time>2026-05-02T09:06:12Z</time></trkpt><trkpt lat="42.230546641959435" lon="13.837694928628071"><ele>896.0</ele><time>2026-05-02T09:06:13Z</time></trkpt><trkpt lat="42.23065049419855" lon="13.83761109174575"><ele>894.8</ele><time>2026-05-02T09:06:14Z</time></trkpt><trkpt lat="42.23074030715249" lon="13.837543174667491"><ele>893.5999999999999</ele><time>2026-05-02T09:06:15Z</time></trkpt><trkpt lat="42.23082906570328" lon="13.837482561801812"><ele>892.4</ele><time>2026-05-02T09:06:16Z</time></trkpt><trkpt lat="42.230919299902624" lon="13.83741817250387"><ele>891.2</ele><time>2026-05-02T09:06:17Z</time></trkpt><trkpt lat="42.23101634180757" lon="13.837358615095225"><ele>890.0</ele><time>2026-05-02T09:06:18Z</time></trkpt><trkpt lat="42.23113112435644" lon="13.837315281977055"><ele>890.0</ele><time>2026-05-02T09:06:19Z</time></trkpt><trkpt lat="42.231255596046175" lon="13.837278239244984"><ele>890.0</ele><time>2026-05-02T09:06:20Z</time></trkpt><trkpt lat="42.231383901933555" lon="13.837244904214023"><ele>890.0</ele><time>2026-05-02T09:06:21Z</time></trkpt><trkpt lat="42.23151300123635" lon="13.837214718661254"><ele>890.0</ele><time>2026-05-02T09:06:22Z</time></trkpt><trkpt lat="42.231640248283796" lon="13.837178333488591"><ele>892.5</ele><time>2026-05-02T09:06:23Z</time></trkpt><trkpt lat="42.23176859585736" lon="13.83714547173162"><ele>895.0</ele><time>2026-05-02T09:06:24Z</time></trkpt><trkpt lat="42.23189435560178" lon="13.837122659025084"><ele>897.5</ele><time>2026-05-02T09:06:25Z</time></trkpt><trkpt lat="42.2320188026543" lon="13.837102929826528"><ele>900.0</ele><time>2026-05-02T09:06:26Z</time></trkpt><trkpt lat="42.23213837406146" lon="13.837084254184829"><ele>900.0</ele><time>2026-05-02T09:06:27Z</time></trkpt><trkpt lat="42.23224392234395" lon="13.837090194704937"><ele>900.0</ele><time>2026-05-02T09:06:28Z</time></trkpt><trkpt lat="42.23232890168831" lon="13.837112648955133"><ele>900.0</ele><time>2026-05-02T09:06:29Z</time></trkpt><trkpt lat="42.23240087964691" lon="13.8371309099145"><ele>900.0</ele><time>2026-05-02T09:06:30Z</time></trkpt><trkpt lat="42.23249271174499" lon="13.837114726452622"><ele>900.0</ele><time>2026-05-02T09:06:32Z</time></trkpt><trkpt lat="42.232480715565025" lon="13.837005815763943"><ele>900.0</ele><time>2026-05-02T09:06:34.001Z</time></trkpt><trkpt lat="42.23241105496564" lon="13.83695753229313"><ele>900.0</ele><time>2026-05-02T09:06:35.001Z</time></trkpt><trkpt lat="42.23231566455553" lon="13.836940597850056"><ele>900.0</ele><time>2026-05-02T09:06:36.001Z</time></trkpt><trkpt lat="42.23221942970697" lon="13.836911160764771"><ele>900.0</ele><time>2026-05-02T09:06:37.001Z</time></trkpt><trkpt lat="42.23209320278022" lon="13.836875214952064"><ele>900.0</ele><time>2026-05-02T09:06:38.001Z</time></trkpt><trkpt lat="42.23196631268471" lon="13.836838992062178"><ele>900.0</ele><time>2026-05-02T09:06:39.001Z</time></trkpt><trkpt lat="42.23183226082171" lon="13.836803225274926"><ele>900.0</ele><time>2026-05-02T09:06:40.001Z</time></trkpt><trkpt lat="42.23170118832158" lon="13.836770075431968"><ele>900.0</ele><time>2026-05-02T09:06:41.001Z</time></trkpt><trkpt lat="42.23157127223761" lon="13.836736603169335"><ele>900.0</ele><time>2026-05-02T09:06:42.001Z</time></trkpt><trkpt lat="42.23143979946008" lon="13.836706147504302"><ele>888.25</ele><time>2026-05-02T09:06:43.001Z</time></trkpt><trkpt lat="42.2313164204314" lon="13.836676327580196"><ele>876.5</ele><time>2026-05-02T09:06:44.001Z</time></trkpt><trkpt lat="42.231189847037776" lon="13.83664637531227"><ele>864.75</ele><time>2026-05-02T09:06:45.001Z</time></trkpt><trkpt lat="42.23106427919865" lon="13.836633900176805"><ele>853.0</ele><time>2026-05-02T09:06:46.001Z</time></trkpt><trkpt lat="42.230942283202126" lon="13.83663612778927"><ele>853.0</ele><time>2026-05-02T09:06:47.001Z</time></trkpt><trkpt lat="42.230817021469164" lon="13.83666085498481"><ele>853.0</ele><time>2026-05-02T09:06:48.001Z</time></trkpt><trkpt lat="42.23068055477407" lon="13.836715020451063"><ele>853.0</ele><time>2026-05-02T09:06:49.001Z</time></trkpt><trkpt lat="42.23052964567709" lon="13.836796794888334"><ele>853.0</ele><time>2026-05-02T09:06:50.001Z</time></trkpt><trkpt lat="42.23037616932357" lon="13.836883904508516"><ele>856.3333333333333</ele><time>2026-05-02T09:06:51.001Z</time></trkpt><trkpt lat="42.23022875099749" lon="13.83696344024991"><ele>859.6666666666667</ele><time>2026-05-02T09:06:52.001Z</time></trkpt><trkpt lat="42.230083699279824" lon="13.837039762430686"><ele>863.0</ele><time>2026-05-02T09:06:53.001Z</time></trkpt><trkpt lat="42.22993298838237" lon="13.837121715673504"><ele>854.6666666666667</ele><time>2026-05-02T09:06:54.001Z</time></trkpt><trkpt lat="42.22979183727598" lon="13.837203117736394"><ele>846.3333333333333</ele><time>2026-05-02T09:06:55.001Z</time></trkpt><trkpt lat="42.229645437517185" lon="13.837278026897541"><ele>838.0</ele><time>2026-05-02T09:06:56.001Z</time></trkpt><trkpt lat="42.229510333196124" lon="13.837350318394504"><ele>838.0</ele><time>2026-05-02T09:06:57.001Z</time></trkpt><trkpt lat="42.229375124631225" lon="13.83741402161373"><ele>838.0</ele><time>2026-05-02T09:06:58.001Z</time></trkpt><trkpt lat="42.22924055622734" lon="13.837478851799426"><ele>838.0</ele><time>2026-05-02T09:06:59.001Z</time></trkpt><trkpt lat="42.22910844621918" lon="13.837543770161115"><ele>838.0</ele><time>2026-05-02T09:07:00.001Z</time></trkpt><trkpt lat="42.22898439539139" lon="13.837608247084212"><ele>841.2</ele><time>2026-05-02T09:07:01Z</time></trkpt><trkpt lat="42.22886695138188" lon="13.837668115581998"><ele>844.4</ele><time>2026-05-02T09:07:02Z</time></trkpt><trkpt lat="42.228768024560125" lon="13.837731213225156"><ele>847.6000000000001</ele><time>2026-05-02T09:07:03Z</time></trkpt><trkpt lat="42.228677768463754" lon="13.837790016481293"><ele>850.8000000000001</ele><time>2026-05-02T09:07:04Z</time></trkpt><trkpt lat="42.228599869987356" lon="13.837830390689541"><ele>854.0</ele><time>2026-05-02T09:07:05Z</time></trkpt><trkpt lat="42.22853429283405" lon="13.837848407504527"><ele>854.0</ele><time>2026-05-02T09:07:06Z</time></trkpt><trkpt lat="42.22848122778773" lon="13.837753811927389"><ele>854.0000000000001</ele><time>2026-05-02T09:07:09Z</time></trkpt><trkpt lat="42.22853606035248" lon="13.837684624660955"><ele>854.0000000000001</ele><time>2026-05-02T09:07:10Z</time></trkpt><trkpt lat="42.22861703238592" lon="13.837653305226045"><ele>854.0</ele><time>2026-05-02T09:07:11Z</time></trkpt><trkpt lat="42.228703974123235" lon="13.837594791636795"><ele>854.0</ele><time>2026-05-02T09:07:12Z</time></trkpt><trkpt lat="42.2288024654332" lon="13.837512898594605"><ele>850.0</ele><time>2026-05-02T09:07:13Z</time></trkpt><trkpt lat="42.228901740691455" lon="13.837412633116788"><ele>846.0</ele><time>2026-05-02T09:07:14Z</time></trkpt><trkpt lat="42.229009516039405" lon="13.837298475644566"><ele>842.0</ele><time>2026-05-02T09:07:15Z</time></trkpt><trkpt lat="42.229120214462924" lon="13.837187590312004"><ele>838.0</ele><time>2026-05-02T09:07:16Z</time></trkpt><trkpt lat="42.229235014710646" lon="13.837090090775911"><ele>838.0</ele><time>2026-05-02T09:07:17Z</time></trkpt><trkpt lat="42.229352879148635" lon="13.83699306433522"><ele>838.0</ele><time>2026-05-02T09:07:18Z</time></trkpt><trkpt lat="42.229464591739536" lon="13.836891890553238"><ele>838.0</ele><time>2026-05-02T09:07:19Z</time></trkpt><trkpt lat="42.22957434101276" lon="13.836778758668743"><ele>838.0</ele><time>2026-05-02T09:07:20Z</time></trkpt><trkpt lat="42.22968505768402" lon="13.836635316551956"><ele>835.3333333333333</ele><time>2026-05-02T09:07:21Z</time></trkpt><trkpt lat="42.22979456141048" lon="13.836490290733993"><ele>832.6666666666667</ele><time>2026-05-02T09:07:22Z</time></trkpt><trkpt lat="42.229908979080385" lon="13.836345784054751"><ele>830.0</ele><time>2026-05-02T09:07:23Z</time></trkpt><trkpt lat="42.23003228842572" lon="13.836208711014788"><ele>830.0</ele><time>2026-05-02T09:07:24Z</time></trkpt><trkpt lat="42.23014831673109" lon="13.8360806287353"><ele>830.0</ele><time>2026-05-02T09:07:25Z</time></trkpt><trkpt lat="42.230265496737424" lon="13.835956635126387"><ele>830.0</ele><time>2026-05-02T09:07:26Z</time></trkpt><trkpt lat="42.23038555803685" lon="13.835831037366761"><ele>827.75</ele><time>2026-05-02T09:07:27Z</time></trkpt><trkpt lat="42.230503927219644" lon="13.83571902594006"><ele>825.5</ele><time>2026-05-02T09:07:28Z</time></trkpt><trkpt lat="42.230618127572626" lon="13.835615554401485"><ele>823.25</ele><time>2026-05-02T09:07:29Z</time></trkpt><trkpt lat="42.23073160210585" lon="13.835522399307127"><ele>821.0</ele><time>2026-05-02T09:07:30Z</time></trkpt><trkpt lat="42.230854737554594" lon="13.835436425743445"><ele>821.0</ele><time>2026-05-02T09:07:31Z</time></trkpt><trkpt lat="42.230981605448434" lon="13.83536401312716"><ele>821.0</ele><time>2026-05-02T09:07:32Z</time></trkpt><trkpt lat="42.2311067622017" lon="13.835305986667542"><ele>821.0</ele><time>2026-05-02T09:07:33Z</time></trkpt><trkpt lat="42.23124700391629" lon="13.835267417813292"><ele>821.0</ele><time>2026-05-02T09:07:34Z</time></trkpt><trkpt lat="42.23139663267997" lon="13.83523538601609"><ele>823.0</ele><time>2026-05-02T09:07:35Z</time></trkpt><trkpt lat="42.23153602954344" lon="13.835210982796925"><ele>825.0</ele><time>2026-05-02T09:07:36Z</time></trkpt><trkpt lat="42.23165210746512" lon="13.835192083770359"><ele>827.0</ele><time>2026-05-02T09:07:37Z</time></trkpt><trkpt lat="42.231745711276204" lon="13.83517479624541"><ele>829.0</ele><time>2026-05-02T09:07:38Z</time></trkpt><trkpt lat="42.23182674989495" lon="13.835160607695466"><ele>831.0</ele><time>2026-05-02T09:07:39Z</time></trkpt><trkpt lat="42.231895988758275" lon="13.835140647121028"><ele>825.4</ele><time>2026-05-02T09:07:40Z</time></trkpt><trkpt lat="42.23194475512606" lon="13.835048154076816"><ele>819.8</ele><time>2026-05-02T09:07:42Z</time></trkpt><trkpt lat="42.23183304924224" lon="13.83497842456832"><ele>814.1999999999999</ele><time>2026-05-02T09:07:44Z</time></trkpt><trkpt lat="42.23173913069521" lon="13.834986861244033"><ele>808.5999999999999</ele><time>2026-05-02T09:07:45Z</time></trkpt><trkpt lat="42.23162162077468" lon="13.834994709358003"><ele>803.0</ele><time>2026-05-02T09:07:46Z</time></trkpt><trkpt lat="42.23150177725621" lon="13.834983648854887"><ele>800.25</ele><time>2026-05-02T09:07:47Z</time></trkpt><trkpt lat="42.23138636177515" lon="13.834963157579327"><ele>797.5</ele><time>2026-05-02T09:07:48Z</time></trkpt><trkpt lat="42.231270975294784" lon="13.83493378359659"><ele>794.75</ele><time>2026-05-02T09:07:49Z</time></trkpt><trkpt lat="42.231153788530065" lon="13.834904254083979"><ele>792.0</ele><time>2026-05-02T09:07:50Z</time></trkpt><trkpt lat="42.23104700205257" lon="13.834889291664755"><ele>792.0</ele><time>2026-05-02T09:07:51Z</time></trkpt><trkpt lat="42.23093714236703" lon="13.834893411636386"><ele>792.0</ele><time>2026-05-02T09:07:52Z</time></trkpt><trkpt lat="42.230808219648836" lon="13.834924035290559"><ele>792.0</ele><time>2026-05-02T09:07:53Z</time></trkpt><trkpt lat="42.2306712290623" lon="13.834956304932732"><ele>792.0</ele><time>2026-05-02T09:07:54Z</time></trkpt><trkpt lat="42.23053397979664" lon="13.834997414698455"><ele>794.0</ele><time>2026-05-02T09:07:55Z</time></trkpt><trkpt lat="42.230389240744515" lon="13.83504392239244"><ele>796.0</ele><time>2026-05-02T09:07:56Z</time></trkpt><trkpt lat="42.230244744433826" lon="13.83508472129199"><ele>798.0</ele><time>2026-05-02T09:07:57Z</time></trkpt><trkpt lat="42.230111684040466" lon="13.835130906995907"><ele>800.0</ele><time>2026-05-02T09:07:58Z</time></trkpt><trkpt lat="42.229971369506025" lon="13.835175131555996"><ele>800.0</ele><time>2026-05-02T09:07:59Z</time></trkpt><trkpt lat="42.22983618459514" lon="13.835225529161852"><ele>800.0</ele><time>2026-05-02T09:08:00Z</time></trkpt><trkpt lat="42.22970568802164" lon="13.835273790242127"><ele>800.0</ele><time>2026-05-02T09:08:01Z</time></trkpt><trkpt lat="42.229575597118846" lon="13.835327626067189"><ele>800.0</ele><time>2026-05-02T09:08:02Z</time></trkpt><trkpt lat="42.22945407226865" lon="13.8353945564047"><ele>795.0</ele><time>2026-05-02T09:08:03Z</time></trkpt><trkpt lat="42.2293363030947" lon="13.835450255295939"><ele>790.0</ele><time>2026-05-02T09:08:04Z</time></trkpt><trkpt lat="42.22922552420817" lon="13.835510701382367"><ele>785.0</ele><time>2026-05-02T09:08:05Z</time></trkpt><trkpt lat="42.22912092470086" lon="13.835587891899603"><ele>780.0</ele><time>2026-05-02T09:08:06Z</time></trkpt><trkpt lat="42.22901949720313" lon="13.835676108476092"><ele>777.25</ele><time>2026-05-02T09:08:07Z</time></trkpt><trkpt lat="42.22891524443582" lon="13.8357624482634"><ele>774.5</ele><time>2026-05-02T09:08:08Z</time></trkpt><trkpt lat="42.228807595343724" lon="13.835829724178023"><ele>771.75</ele><time>2026-05-02T09:08:09Z</time></trkpt><trkpt lat="42.228695941880794" lon="13.835889423190972"><ele>769.0</ele><time>2026-05-02T09:08:10Z</time></trkpt><trkpt lat="42.2285940985432" lon="13.835936540554433"><ele>769.6666666666666</ele><time>2026-05-02T09:08:11Z</time></trkpt><trkpt lat="42.22850017772178" lon="13.835997237608634"><ele>770.3333333333333</ele><time>2026-05-02T09:08:12Z</time></trkpt><trkpt lat="42.228416277906646" lon="13.836051994830708"><ele>771.0</ele><time>2026-05-02T09:08:13Z</time></trkpt><trkpt lat="42.22834440754386" lon="13.836080236446662"><ele>771.6666666666667</ele><time>2026-05-02T09:08:14Z</time></trkpt><trkpt lat="42.2282735108905" lon="13.836081199280324"><ele>772.3333333333334</ele><time>2026-05-02T09:08:15Z</time></trkpt><trkpt lat="42.22817718265319" lon="13.836035478031473"><ele>773.0</ele><time>2026-05-02T09:08:16Z</time></trkpt><trkpt lat="42.22806547606582" lon="13.835948794476774"><ele>773.0</ele><time>2026-05-02T09:08:17Z</time></trkpt><trkpt lat="42.22793431959517" lon="13.835858195349454"><ele>773.0</ele><time>2026-05-02T09:08:18Z</time></trkpt><trkpt lat="42.22780211649882" lon="13.835765972754572"><ele>773.0</ele><time>2026-05-02T09:08:19Z</time></trkpt><trkpt lat="42.2276764437926" lon="13.835681778411287"><ele>773.0</ele><time>2026-05-02T09:08:20Z</time></trkpt><trkpt lat="42.22755342274317" lon="13.835604660087206"><ele>773.0</ele><time>2026-05-02T09:08:21Z</time></trkpt><trkpt lat="42.22743594513143" lon="13.835531687384922"><ele>773.0</ele><time>2026-05-02T09:08:22Z</time></trkpt><trkpt lat="42.22732951180317" lon="13.835469717452682"><ele>773.0</ele><time>2026-05-02T09:08:23Z</time></trkpt><trkpt lat="42.22722577793044" lon="13.835426277544965"><ele>773.0</ele><time>2026-05-02T09:08:24Z</time></trkpt><trkpt lat="42.22711796716895" lon="13.835388551587657"><ele>772.0</ele><time>2026-05-02T09:08:25Z</time></trkpt><trkpt lat="42.22703100564465" lon="13.835369585405797"><ele>771.0</ele><time>2026-05-02T09:08:26Z</time></trkpt><trkpt lat="42.226947171829224" lon="13.83536049625061"><ele>770.0</ele><time>2026-05-02T09:08:27Z</time></trkpt><trkpt lat="42.22687032944883" lon="13.835368403029204"><ele>769.0</ele><time>2026-05-02T09:08:28Z</time></trkpt><trkpt lat="42.22676746037019" lon="13.835395289021232"><ele>768.0</ele><time>2026-05-02T09:08:29Z</time></trkpt><trkpt lat="42.226653132191615" lon="13.835425762896051"><ele>768.0</ele><time>2026-05-02T09:08:30Z</time></trkpt><trkpt lat="42.226530909870355" lon="13.835452427318808"><ele>768.0</ele><time>2026-05-02T09:08:31Z</time></trkpt><trkpt lat="42.22641182064159" lon="13.83549342109388"><ele>768.0</ele><time>2026-05-02T09:08:32Z</time></trkpt><trkpt lat="42.22629901338069" lon="13.83553713860202"><ele>768.0</ele><time>2026-05-02T09:08:33Z</time></trkpt><trkpt lat="42.226184761994475" lon="13.835579378549687"><ele>763.5</ele><time>2026-05-02T09:08:34Z</time></trkpt><trkpt lat="42.22608782217693" lon="13.835613699200056"><ele>759.0</ele><time>2026-05-02T09:08:35Z</time></trkpt><trkpt lat="42.225981674209834" lon="13.835655089063675"><ele>754.5</ele><time>2026-05-02T09:08:36Z</time></trkpt><trkpt lat="42.22587523442662" lon="13.835706067026196"><ele>750.0</ele><time>2026-05-02T09:08:37Z</time></trkpt><trkpt lat="42.22575832214027" lon="13.835770517164088"><ele>748.0</ele><time>2026-05-02T09:08:38.001Z</time></trkpt><trkpt lat="42.22563952871489" lon="13.835841281208861"><ele>746.0</ele><time>2026-05-02T09:08:39.001Z</time></trkpt><trkpt lat="42.22552782236045" lon="13.835909995876694"><ele>744.0</ele><time>2026-05-02T09:08:40.001Z</time></trkpt><trkpt lat="42.22542344801366" lon="13.835981460687664"><ele>742.0</ele><time>2026-05-02T09:08:41.001Z</time></trkpt><trkpt lat="42.22532249478312" lon="13.836066769689092"><ele>742.0</ele><time>2026-05-02T09:08:42.001Z</time></trkpt><trkpt lat="42.22520383790621" lon="13.836188496674739"><ele>742.0</ele><time>2026-05-02T09:08:43.001Z</time></trkpt><trkpt lat="42.22507292207165" lon="13.836308939669316"><ele>742.0</ele><time>2026-05-02T09:08:44.001Z</time></trkpt><trkpt lat="42.22495135330415" lon="13.836408838415219"><ele>742.0</ele><time>2026-05-02T09:08:45.001Z</time></trkpt><trkpt lat="42.22484400013014" lon="13.836494118865579"><ele>742.0</ele><time>2026-05-02T09:08:46.001Z</time></trkpt><trkpt lat="42.22474664826635" lon="13.836574094068222"><ele>742.0</ele><time>2026-05-02T09:08:47.001Z</time></trkpt><trkpt lat="42.224655688683335" lon="13.836669074994914"><ele>742.0</ele><time>2026-05-02T09:08:48.001Z</time></trkpt><trkpt lat="42.22456958999006" lon="13.836791727152159"><ele>737.5</ele><time>2026-05-02T09:08:49.001Z</time></trkpt><trkpt lat="42.22450104520341" lon="13.836943782189756"><ele>733.0</ele><time>2026-05-02T09:08:50.001Z</time></trkpt><trkpt lat="42.22442962437373" lon="13.837101443179849"><ele>728.5</ele><time>2026-05-02T09:08:51.001Z</time></trkpt><trkpt lat="42.22434211696644" lon="13.83724864324139"><ele>724.0</ele><time>2026-05-02T09:08:52.001Z</time></trkpt><trkpt lat="42.22424851734291" lon="13.83738552974112"><ele>724.0</ele><time>2026-05-02T09:08:53Z</time></trkpt><trkpt lat="42.224158212362624" lon="13.837526675787682"><ele>724.0</ele><time>2026-05-02T09:08:54Z</time></trkpt><trkpt lat="42.22408157652721" lon="13.8376872611178"><ele>724.0</ele><time>2026-05-02T09:08:55Z</time></trkpt><trkpt lat="42.22401535835545" lon="13.837850460078172"><ele>724.0</ele><time>2026-05-02T09:08:56Z</time></trkpt><trkpt lat="42.22394795678643" lon="13.837996732738223"><ele>719.75</ele><time>2026-05-02T09:08:57Z</time></trkpt><trkpt lat="42.22387565934877" lon="13.838116195990246"><ele>715.5</ele><time>2026-05-02T09:08:58Z</time></trkpt><trkpt lat="42.22379556356313" lon="13.838215733415858"><ele>711.25</ele><time>2026-05-02T09:08:59Z</time></trkpt><trkpt lat="42.22370639540834" lon="13.838302098687008"><ele>707.0</ele><time>2026-05-02T09:09:00Z</time></trkpt><trkpt lat="42.223599698929924" lon="13.838383351663795"><ele>707.75</ele><time>2026-05-02T09:09:01Z</time></trkpt><trkpt lat="42.223490393816114" lon="13.838468850522032"><ele>708.5</ele><time>2026-05-02T09:09:02Z</time></trkpt><trkpt lat="42.22337332805398" lon="13.838539759871633"><ele>709.25</ele><time>2026-05-02T09:09:03Z</time></trkpt><trkpt lat="42.22324779087912" lon="13.83860201052354"><ele>710.0</ele><time>2026-05-02T09:09:04Z</time></trkpt><trkpt lat="42.223115418155885" lon="13.838649740767982"><ele>710.0</ele><time>2026-05-02T09:09:05Z</time></trkpt><trkpt lat="42.222978318272055" lon="13.838704431105093"><ele>710.0</ele><time>2026-05-02T09:09:06Z</time></trkpt><trkpt lat="42.22284741165134" lon="13.838761697374206"><ele>710.0</ele><time>2026-05-02T09:09:07Z</time></trkpt><trkpt lat="42.222714377851275" lon="13.83881448090322"><ele>710.0</ele><time>2026-05-02T09:09:08Z</time></trkpt><trkpt lat="42.22258417228219" lon="13.838862350705757"><ele>710.0</ele><time>2026-05-02T09:09:09Z</time></trkpt><trkpt lat="42.22247006658565" lon="13.838918893392522"><ele>710.0</ele><time>2026-05-02T09:09:10Z</time></trkpt><trkpt lat="42.22236640540826" lon="13.838986593120172"><ele>710.0</ele><time>2026-05-02T09:09:11Z</time></trkpt><trkpt lat="42.222271848245704" lon="13.839067959603659"><ele>710.0</ele><time>2026-05-02T09:09:12Z</time></trkpt><trkpt lat="42.22218993203893" lon="13.839155087677517"><ele>708.4</ele><time>2026-05-02T09:09:13Z</time></trkpt><trkpt lat="42.222124705659596" lon="13.839240369315265"><ele>706.8</ele><time>2026-05-02T09:09:14Z</time></trkpt><trkpt lat="42.22208071485575" lon="13.83930804464622"><ele>705.2</ele><time>2026-05-02T09:09:15Z</time></trkpt><trkpt lat="42.22199050498903" lon="13.839332210412786"><ele>703.6</ele><time>2026-05-02T09:09:17Z</time></trkpt><trkpt lat="42.22194131406626" lon="13.839173785042718"><ele>702.0</ele><time>2026-05-02T09:09:19Z</time></trkpt><trkpt lat="42.221978044609614" lon="13.839048371583127"><ele>697.75</ele><time>2026-05-02T09:09:20Z</time></trkpt><trkpt lat="42.222034518480456" lon="13.838916340319468"><ele>693.5</ele><time>2026-05-02T09:09:21Z</time></trkpt><trkpt lat="42.22209767430615" lon="13.838767435607577"><ele>689.25</ele><time>2026-05-02T09:09:22Z</time></trkpt><trkpt lat="42.222161608007845" lon="13.838617359995554"><ele>685.0</ele><time>2026-05-02T09:09:23Z</time></trkpt><trkpt lat="42.222230321268874" lon="13.838468200983785"><ele>687.25</ele><time>2026-05-02T09:09:24Z</time></trkpt><trkpt lat="42.222306480184685" lon="13.838332455509132"><ele>689.5</ele><time>2026-05-02T09:09:25Z</time></trkpt><trkpt lat="42.22239387795464" lon="13.838206713843805"><ele>691.75</ele><time>2026-05-02T09:09:26Z</time></trkpt><trkpt lat="42.2225023820468" lon="13.838077069325294"><ele>694.0</ele><time>2026-05-02T09:09:27Z</time></trkpt><trkpt lat="42.22260686346824" lon="13.837943651204862"><ele>694.0</ele><time>2026-05-02T09:09:28Z</time></trkpt><trkpt lat="42.22270982798362" lon="13.837810869379295"><ele>694.0</ele><time>2026-05-02T09:09:29Z</time></trkpt><trkpt lat="42.222797145862174" lon="13.837689792693233"><ele>694.0</ele><time>2026-05-02T09:09:30Z</time></trkpt><trkpt lat="42.222869376807076" lon="13.837565554598251"><ele>694.0</ele><time>2026-05-02T09:09:31Z</time></trkpt><trkpt lat="42.22292616284156" lon="13.837434916364106"><ele>688.0</ele><time>2026-05-02T09:09:32Z</time></trkpt><trkpt lat="42.22297056517512" lon="13.837289741808535"><ele>682.0</ele><time>2026-05-02T09:09:33Z</time></trkpt><trkpt lat="42.22301004568429" lon="13.837122486079378"><ele>676.0</ele><time>2026-05-02T09:09:34Z</time></trkpt><trkpt lat="42.223042755297556" lon="13.83693712100992"><ele>670.0</ele><time>2026-05-02T09:09:35Z</time></trkpt><trkpt lat="42.22306237719235" lon="13.836755976526593"><ele>667.6</ele><time>2026-05-02T09:09:36Z</time></trkpt><trkpt lat="42.223070432822766" lon="13.836579151419109"><ele>665.2</ele><time>2026-05-02T09:09:37Z</time></trkpt><trkpt lat="42.22307308199943" lon="13.836428346295698"><ele>662.8</ele><time>2026-05-02T09:09:38Z</time></trkpt><trkpt lat="42.22307382702838" lon="13.836300663115022"><ele>660.4</ele><time>2026-05-02T09:09:39Z</time></trkpt><trkpt lat="42.22307326913527" lon="13.836185627510147"><ele>658.0</ele><time>2026-05-02T09:09:40Z</time></trkpt><trkpt lat="42.223074841217844" lon="13.836086297963051"><ele>658.0</ele><time>2026-05-02T09:09:41Z</time></trkpt><trkpt lat="42.223009748068634" lon="13.835990230890785"><ele>658.0</ele><time>2026-05-02T09:09:43Z</time></trkpt><trkpt lat="42.22294450595124" lon="13.836018370575598"><ele>658.0</ele><time>2026-05-02T09:09:44Z</time></trkpt><trkpt lat="42.22288074757477" lon="13.836118204708214"><ele>658.0</ele><time>2026-05-02T09:09:45Z</time></trkpt><trkpt lat="42.2228205422501" lon="13.836265364474114"><ele>658.0</ele><time>2026-05-02T09:09:46Z</time></trkpt><trkpt lat="42.22275326579307" lon="13.836422376139181"><ele>658.0</ele><time>2026-05-02T09:09:47Z</time></trkpt><trkpt lat="42.222687082520565" lon="13.836562501823606"><ele>658.0</ele><time>2026-05-02T09:09:48Z</time></trkpt><trkpt lat="42.222617221522384" lon="13.836672202706552"><ele>658.0</ele><time>2026-05-02T09:09:49Z</time></trkpt><trkpt lat="42.22253796025695" lon="13.836761283271665"><ele>658.0</ele><time>2026-05-02T09:09:50Z</time></trkpt><trkpt lat="42.22244591746377" lon="13.8368322769215"><ele>658.0</ele><time>2026-05-02T09:09:51Z</time></trkpt><trkpt lat="42.222336508276534" lon="13.83690093909161"><ele>657.75</ele><time>2026-05-02T09:09:52Z</time></trkpt><trkpt lat="42.22220224907404" lon="13.83698151596642"><ele>657.5</ele><time>2026-05-02T09:09:53Z</time></trkpt><trkpt lat="42.22206415980933" lon="13.837060096586617"><ele>657.25</ele><time>2026-05-02T09:09:54Z</time></trkpt><trkpt lat="42.22193355681345" lon="13.837138165591762"><ele>657.0</ele><time>2026-05-02T09:09:55Z</time></trkpt><trkpt lat="42.2218063604071" lon="13.837214073629413"><ele>657.0</ele><time>2026-05-02T09:09:56Z</time></trkpt><trkpt lat="42.221684286411445" lon="13.837280513109903"><ele>657.0</ele><time>2026-05-02T09:09:57Z</time></trkpt><trkpt lat="42.22157352090798" lon="13.837345233944937"><ele>657.0</ele><time>2026-05-02T09:09:58Z</time></trkpt><trkpt lat="42.22147762883049" lon="13.83740300637793"><ele>657.0</ele><time>2026-05-02T09:09:59Z</time></trkpt><trkpt lat="42.22138857548086" lon="13.837464566743174"><ele>651.4</ele><time>2026-05-02T09:10:00Z</time></trkpt><trkpt lat="42.221312432966535" lon="13.837515182955979"><ele>645.8000000000001</ele><time>2026-05-02T09:10:01Z</time></trkpt><trkpt lat="42.22121414946785" lon="13.837538958575799"><ele>640.2</ele><time>2026-05-02T09:10:03Z</time></trkpt><trkpt lat="42.22119058352941" lon="13.83739033293409"><ele>634.6</ele><time>2026-05-02T09:10:05Z</time></trkpt><trkpt lat="42.22125758220071" lon="13.83731306763062"><ele>629.0</ele><time>2026-05-02T09:10:06Z</time></trkpt><trkpt lat="42.2213514278187" lon="13.837229948484513"><ele>629.0</ele><time>2026-05-02T09:10:07Z</time></trkpt><trkpt lat="42.22147214679309" lon="13.837114601619087"><ele>629.0</ele><time>2026-05-02T09:10:08Z</time></trkpt><trkpt lat="42.22159005213048" lon="13.836964769161556"><ele>629.0</ele><time>2026-05-02T09:10:09Z</time></trkpt><trkpt lat="42.22169531740864" lon="13.836821481544394"><ele>632.0</ele><time>2026-05-02T09:10:10Z</time></trkpt><trkpt lat="42.221790509620575" lon="13.83668710105742"><ele>635.0</ele><time>2026-05-02T09:10:11Z</time></trkpt><trkpt lat="42.22187530344379" lon="13.836535683362422"><ele>638.0</ele><time>2026-05-02T09:10:12Z</time></trkpt><trkpt lat="42.22195010260034" lon="13.836377025516"><ele>641.0</ele><time>2026-05-02T09:10:13Z</time></trkpt><trkpt lat="42.2220088832814" lon="13.836247024853268"><ele>641.0</ele><time>2026-05-02T09:10:14Z</time></trkpt><trkpt lat="42.22206261934346" lon="13.836146932839855"><ele>641.0</ele><time>2026-05-02T09:10:15Z</time></trkpt><trkpt lat="42.22210472118425" lon="13.836071908210155"><ele>641.0</ele><time>2026-05-02T09:10:16Z</time></trkpt><trkpt lat="42.222076303771125" lon="13.835948339211805"><ele>641.0</ele><time>2026-05-02T09:10:18Z</time></trkpt><trkpt lat="42.221999915669656" lon="13.835938708294352"><ele>641.0</ele><time>2026-05-02T09:10:19Z</time></trkpt><trkpt lat="42.221923953292716" lon="13.836012381161165"><ele>641.0</ele><time>2026-05-02T09:10:20Z</time></trkpt><trkpt lat="42.221848347398904" lon="13.836128512155913"><ele>641.0</ele><time>2026-05-02T09:10:21Z</time></trkpt><trkpt lat="42.22175183113603" lon="13.836251178651795"><ele>641.0</ele><time>2026-05-02T09:10:22Z</time></trkpt><trkpt lat="42.2216397820489" lon="13.83636194975598"><ele>641.0</ele><time>2026-05-02T09:10:23Z</time></trkpt><trkpt lat="42.221528137493074" lon="13.836477201824792"><ele>641.0</ele><time>2026-05-02T09:10:24Z</time></trkpt><trkpt lat="42.22139412253869" lon="13.83659482317077"><ele>638.0</ele><time>2026-05-02T09:10:25Z</time></trkpt><trkpt lat="42.22124819502068" lon="13.836699685206888"><ele>635.0</ele><time>2026-05-02T09:10:26Z</time></trkpt><trkpt lat="42.22111256898646" lon="13.836788903425141"><ele>632.0</ele><time>2026-05-02T09:10:27Z</time></trkpt><trkpt lat="42.22099935839683" lon="13.836872657594023"><ele>629.0</ele><time>2026-05-02T09:10:28Z</time></trkpt><trkpt lat="42.22090013350203" lon="13.836962382563456"><ele>629.0</ele><time>2026-05-02T09:10:29Z</time></trkpt><trkpt lat="42.22081227805726" lon="13.83708187767564"><ele>629.0</ele><time>2026-05-02T09:10:30Z</time></trkpt><trkpt lat="42.22072789253199" lon="13.837220865003"><ele>629.0</ele><time>2026-05-02T09:10:31Z</time></trkpt><trkpt lat="42.22064550848389" lon="13.837354526831325"><ele>629.0</ele><time>2026-05-02T09:10:32Z</time></trkpt><trkpt lat="42.22057464853907" lon="13.83749894094749"><ele>618.25</ele><time>2026-05-02T09:10:33Z</time></trkpt><trkpt lat="42.220506518960484" lon="13.83765280580203"><ele>607.5</ele><time>2026-05-02T09:10:34Z</time></trkpt><trkpt lat="42.220443359445184" lon="13.837810705083914"><ele>596.75</ele><time>2026-05-02T09:10:35Z</time></trkpt><trkpt lat="42.22039092995514" lon="13.837981005398236"><ele>586.0</ele><time>2026-05-02T09:10:36Z</time></trkpt><trkpt lat="42.22035193734797" lon="13.838161196813614"><ele>586.0</ele><time>2026-05-02T09:10:37Z</time></trkpt><trkpt lat="42.220307941173466" lon="13.838320601233196"><ele>586.0</ele><time>2026-05-02T09:10:38Z</time></trkpt><trkpt lat="42.22027785103099" lon="13.83846458766201"><ele>586.0</ele><time>2026-05-02T09:10:39Z</time></trkpt><trkpt lat="42.22026923703078" lon="13.838598943258118"><ele>586.0</ele><time>2026-05-02T09:10:40Z</time></trkpt><trkpt lat="42.220291630775044" lon="13.838744809505123"><ele>586.0</ele><time>2026-05-02T09:10:41Z</time></trkpt><trkpt lat="42.22029930337233" lon="13.838874512964773"><ele>589.25</ele><time>2026-05-02T09:10:42Z</time></trkpt><trkpt lat="42.220256302941394" lon="13.83898817219276"><ele>592.5</ele><time>2026-05-02T09:10:43Z</time></trkpt><trkpt lat="42.22017875940073" lon="13.83910620862721"><ele>595.75</ele><time>2026-05-02T09:10:44.001Z</time></trkpt><trkpt lat="42.22009991078216" lon="13.839235804181474"><ele>599.0</ele><time>2026-05-02T09:10:45.001Z</time></trkpt><trkpt lat="42.220030632311115" lon="13.839371982596301"><ele>604.75</ele><time>2026-05-02T09:10:46.001Z</time></trkpt><trkpt lat="42.219954191988656" lon="13.839502837554242"><ele>610.5</ele><time>2026-05-02T09:10:47.001Z</time></trkpt><trkpt lat="42.21985819617047" lon="13.839631363586442"><ele>616.25</ele><time>2026-05-02T09:10:48.001Z</time></trkpt><trkpt lat="42.21975647016686" lon="13.839762741450121"><ele>622.0</ele><time>2026-05-02T09:10:49Z</time></trkpt><trkpt lat="42.21965408894084" lon="13.839889972042412"><ele>617.0</ele><time>2026-05-02T09:10:50Z</time></trkpt><trkpt lat="42.21955539951641" lon="13.840022623985023"><ele>612.0</ele><time>2026-05-02T09:10:51Z</time></trkpt><trkpt lat="42.21946079506207" lon="13.840157245373405"><ele>607.0</ele><time>2026-05-02T09:10:52Z</time></trkpt><trkpt lat="42.21937772386534" lon="13.840281988288112"><ele>602.0</ele><time>2026-05-02T09:10:53Z</time></trkpt><trkpt lat="42.21930757773911" lon="13.840388752665167"><ele>602.0</ele><time>2026-05-02T09:10:54Z</time></trkpt><trkpt lat="42.21924149118079" lon="13.840491199264715"><ele>602.0</ele><time>2026-05-02T09:10:55Z</time></trkpt><trkpt lat="42.21919475429785" lon="13.840579967236552"><ele>602.0</ele><time>2026-05-02T09:10:56Z</time></trkpt><trkpt lat="42.21910949825829" lon="13.840685093945881"><ele>602.0</ele><time>2026-05-02T09:10:58Z</time></trkpt><trkpt lat="42.219033314229776" lon="13.840660782325388"><ele>602.0</ele><time>2026-05-02T09:11:00Z</time></trkpt><trkpt lat="42.21901722980983" lon="13.840573476825341"><ele>602.0</ele><time>2026-05-02T09:11:01Z</time></trkpt><trkpt lat="42.219047120125964" lon="13.84046285711875"><ele>602.0</ele><time>2026-05-02T09:11:02Z</time></trkpt><trkpt lat="42.21910830691019" lon="13.840350920272902"><ele>602.0</ele><time>2026-05-02T09:11:03Z</time></trkpt><trkpt lat="42.21918979585735" lon="13.840219210607659"><ele>602.0</ele><time>2026-05-02T09:11:04Z</time></trkpt><trkpt lat="42.21925758203886" lon="13.840068988807843"><ele>602.0</ele><time>2026-05-02T09:11:05Z</time></trkpt><trkpt lat="42.21931306264228" lon="13.83991193325148"><ele>594.75</ele><time>2026-05-02T09:11:06Z</time></trkpt><trkpt lat="42.21937510558023" lon="13.839758588497181"><ele>587.5</ele><time>2026-05-02T09:11:07Z</time></trkpt><trkpt lat="42.21943891106023" lon="13.839600625809414"><ele>580.25</ele><time>2026-05-02T09:11:08Z</time></trkpt><trkpt lat="42.21949969692958" lon="13.83943768462281"><ele>573.0</ele><time>2026-05-02T09:11:09Z</time></trkpt><trkpt lat="42.21956129399157" lon="13.839278416876144"><ele>569.0</ele><time>2026-05-02T09:11:10Z</time></trkpt><trkpt lat="42.21962309859488" lon="13.839124388193886"><ele>565.0</ele><time>2026-05-02T09:11:11Z</time></trkpt><trkpt lat="42.219678964296826" lon="13.838993531538671"><ele>561.0</ele><time>2026-05-02T09:11:12Z</time></trkpt><trkpt lat="42.2197281138767" lon="13.838887564839887"><ele>557.0</ele><time>2026-05-02T09:11:13Z</time></trkpt><trkpt lat="42.21974961966908" lon="13.838792159749785"><ele>553.0</ele><time>2026-05-02T09:11:14Z</time></trkpt><trkpt lat="42.21974993746397" lon="13.838681384819667"><ele>553.0</ele><time>2026-05-02T09:11:15Z</time></trkpt><trkpt lat="42.21973328881871" lon="13.838557952875796"><ele>553.0</ele><time>2026-05-02T09:11:16Z</time></trkpt><trkpt lat="42.219706420501126" lon="13.838410694135309"><ele>553.0</ele><time>2026-05-02T09:11:17Z</time></trkpt><trkpt lat="42.21968176228799" lon="13.838241747990532"><ele>553.0</ele><time>2026-05-02T09:11:18Z</time></trkpt><trkpt lat="42.21966866875497" lon="13.838058088988916"><ele>548.25</ele><time>2026-05-02T09:11:19Z</time></trkpt><trkpt lat="42.21966146623114" lon="13.837877479716013"><ele>543.5</ele><time>2026-05-02T09:11:20Z</time></trkpt><trkpt lat="42.21966027704139" lon="13.837681695154453"><ele>538.75</ele><time>2026-05-02T09:11:21Z</time></trkpt><trkpt lat="42.2196597192767" lon="13.837496205011673"><ele>534.0</ele><time>2026-05-02T09:11:22Z</time></trkpt><trkpt lat="42.21966744173248" lon="13.83731411600569"><ele>531.75</ele><time>2026-05-02T09:11:23Z</time></trkpt><trkpt lat="42.219692789662815" lon="13.837128684382023"><ele>529.5</ele><time>2026-05-02T09:11:24Z</time></trkpt><trkpt lat="42.219726595376194" lon="13.836944394577442"><ele>527.25</ele><time>2026-05-02T09:11:25Z</time></trkpt><trkpt lat="42.21975961432955" lon="13.836767465805533"><ele>525.0</ele><time>2026-05-02T09:11:26Z</time></trkpt><trkpt lat="42.21980580423471" lon="13.836593619765809"><ele>534.0</ele><time>2026-05-02T09:11:27Z</time></trkpt><trkpt lat="42.21986213663695" lon="13.836432597176477"><ele>543.0</ele><time>2026-05-02T09:11:28Z</time></trkpt><trkpt lat="42.219912900325724" lon="13.836276707991159"><ele>552.0</ele><time>2026-05-02T09:11:29Z</time></trkpt><trkpt lat="42.219973874120335" lon="13.836138043973017"><ele>561.0</ele><time>2026-05-02T09:11:30Z</time></trkpt><trkpt lat="42.22004370559545" lon="13.836029262858947"><ele>561.0</ele><time>2026-05-02T09:11:31Z</time></trkpt><trkpt lat="42.22010907055038" lon="13.835954206679762"><ele>561.0</ele><time>2026-05-02T09:11:32Z</time></trkpt><trkpt lat="42.22014873053943" lon="13.835887789566648"><ele>561.0</ele><time>2026-05-02T09:11:33Z</time></trkpt><trkpt lat="42.22010716855513" lon="13.835806663574932"><ele>561.0</ele><time>2026-05-02T09:11:35Z</time></trkpt><trkpt lat="42.21996989906135" lon="13.835889568940829"><ele>561.0</ele><time>2026-05-02T09:11:37Z</time></trkpt><trkpt lat="42.219884788913774" lon="13.835984891637745"><ele>548.5</ele><time>2026-05-02T09:11:38Z</time></trkpt><trkpt lat="42.21979404642934" lon="13.836109754610197"><ele>536.0</ele><time>2026-05-02T09:11:39Z</time></trkpt><trkpt lat="42.21970839057078" lon="13.836248629114056"><ele>523.5</ele><time>2026-05-02T09:11:40Z</time></trkpt><trkpt lat="42.21962610920776" lon="13.836391995908663"><ele>511.0</ele><time>2026-05-02T09:11:41Z</time></trkpt><trkpt lat="42.21954435392163" lon="13.836540259233137"><ele>511.0</ele><time>2026-05-02T09:11:42Z</time></trkpt><trkpt lat="42.219462424869185" lon="13.836704008099051"><ele>511.0</ele><time>2026-05-02T09:11:43Z</time></trkpt><trkpt lat="42.219375358448836" lon="13.83688755007951"><ele>511.0</ele><time>2026-05-02T09:11:44Z</time></trkpt><trkpt lat="42.21929673020598" lon="13.837064969917522"><ele>514.5</ele><time>2026-05-02T09:11:45Z</time></trkpt><trkpt lat="42.21922698253562" lon="13.8372227757813"><ele>518.0</ele><time>2026-05-02T09:11:46Z</time></trkpt><trkpt lat="42.21916564638037" lon="13.837369748193286"><ele>521.5</ele><time>2026-05-02T09:11:47Z</time></trkpt><trkpt lat="42.21910867288842" lon="13.837523202940318"><ele>525.0</ele><time>2026-05-02T09:11:48Z</time></trkpt><trkpt lat="42.219065470185775" lon="13.837697805831489"><ele>527.25</ele><time>2026-05-02T09:11:49Z</time></trkpt><trkpt lat="42.219033084309714" lon="13.837874961628915"><ele>529.5</ele><time>2026-05-02T09:11:50Z</time></trkpt><trkpt lat="42.21901269715919" lon="13.838051973615292"><ele>531.75</ele><time>2026-05-02T09:11:51Z</time></trkpt><trkpt lat="42.21900104239682" lon="13.838217702310319"><ele>534.0</ele><time>2026-05-02T09:11:52Z</time></trkpt><trkpt lat="42.218980029235354" lon="13.838352164902213"><ele>526.75</ele><time>2026-05-02T09:11:53Z</time></trkpt><trkpt lat="42.218943981578846" lon="13.838460818646166"><ele>519.5</ele><time>2026-05-02T09:11:54Z</time></trkpt><trkpt lat="42.218878233673" lon="13.838550329966479"><ele>512.25</ele><time>2026-05-02T09:11:55Z</time></trkpt><trkpt lat="42.21877708120856" lon="13.838654935400506"><ele>505.0</ele><time>2026-05-02T09:11:56Z</time></trkpt><trkpt lat="42.21865613690438" lon="13.838769291980244"><ele>505.0</ele><time>2026-05-02T09:11:57Z</time></trkpt><trkpt lat="42.21853178468695" lon="13.83888961500368"><ele>505.0</ele><time>2026-05-02T09:11:58Z</time></trkpt><trkpt lat="42.2184190090135" lon="13.839030684596993"><ele>505.0</ele><time>2026-05-02T09:11:59Z</time></trkpt><trkpt lat="42.218305958522784" lon="13.839182263631887"><ele>500.33333333333337</ele><time>2026-05-02T09:12:00Z</time></trkpt><trkpt lat="42.21819501013381" lon="13.839330656644004"><ele>495.66666666666663</ele><time>2026-05-02T09:12:01Z</time></trkpt><trkpt lat="42.21808390652408" lon="13.839475918531834"><ele>491.0</ele><time>2026-05-02T09:12:02Z</time></trkpt><trkpt lat="42.217973056975524" lon="13.839613923377339"><ele>491.0</ele><time>2026-05-02T09:12:03Z</time></trkpt><trkpt lat="42.217868982340136" lon="13.839743171339709"><ele>491.0</ele><time>2026-05-02T09:12:04Z</time></trkpt><trkpt lat="42.21776030569531" lon="13.83986720784649"><ele>491.0</ele><time>2026-05-02T09:12:05Z</time></trkpt><trkpt lat="42.21764793438819" lon="13.839982306319401"><ele>491.0</ele><time>2026-05-02T09:12:06Z</time></trkpt><trkpt lat="42.21753287292178" lon="13.840089699596762"><ele>488.25</ele><time>2026-05-02T09:12:07Z</time></trkpt><trkpt lat="42.2174092197342" lon="13.840199153483928"><ele>485.5</ele><time>2026-05-02T09:12:08Z</time></trkpt><trkpt lat="42.21728987279259" lon="13.840317190597512"><ele>482.75</ele><time>2026-05-02T09:12:09Z</time></trkpt><trkpt lat="42.21717457696481" lon="13.840428163233195"><ele>480.0</ele><time>2026-05-02T09:12:10Z</time></trkpt><trkpt lat="42.21708069827304" lon="13.840513555352143"><ele>480.0</ele><time>2026-05-02T09:12:11Z</time></trkpt><trkpt lat="42.21697849901746" lon="13.840590632117022"><ele>480.0</ele><time>2026-05-02T09:12:12Z</time></trkpt><trkpt lat="42.21687111801031" lon="13.840665377200576"><ele>480.0</ele><time>2026-05-02T09:12:13Z</time></trkpt><trkpt lat="42.21676432867888" lon="13.840729077318684"><ele>480.0</ele><time>2026-05-02T09:12:14Z</time></trkpt><trkpt lat="42.21666707164174" lon="13.840788872535727"><ele>480.0</ele><time>2026-05-02T09:12:15Z</time></trkpt><trkpt lat="42.21657700996361" lon="13.84084703547239"><ele>480.0</ele><time>2026-05-02T09:12:16Z</time></trkpt><trkpt lat="42.2164820712095" lon="13.840897786861964"><ele>480.0</ele><time>2026-05-02T09:12:17Z</time></trkpt><trkpt lat="42.21638521294379" lon="13.84096016079275"><ele>480.0</ele><time>2026-05-02T09:12:18Z</time></trkpt><trkpt lat="42.21627919360161" lon="13.841026703941877"><ele>480.0</ele><time>2026-05-02T09:12:19Z</time></trkpt><trkpt lat="42.21617008101335" lon="13.841091078585803"><ele>477.5</ele><time>2026-05-02T09:12:20Z</time></trkpt><trkpt lat="42.21605913599062" lon="13.841156588962658"><ele>475.0</ele><time>2026-05-02T09:12:21Z</time></trkpt><trkpt lat="42.21595366196555" lon="13.841210262484745"><ele>472.5</ele><time>2026-05-02T09:12:22Z</time></trkpt><trkpt lat="42.215846312308905" lon="13.841252848139165"><ele>470.0</ele><time>2026-05-02T09:12:23Z</time></trkpt><trkpt lat="42.21573198261854" lon="13.841278946718834"><ele>465.6</ele><time>2026-05-02T09:12:24Z</time></trkpt><trkpt lat="42.21561975688984" lon="13.841294323148249"><ele>461.2</ele><time>2026-05-02T09:12:24.999Z</time></trkpt><trkpt lat="42.21553161552828" lon="13.841295499960484"><ele>456.79999999999995</ele><time>2026-05-02T09:12:25.999Z</time></trkpt><trkpt lat="42.21545952026095" lon="13.841270856697271"><ele>452.4</ele><time>2026-05-02T09:12:26.999Z</time></trkpt><trkpt lat="42.21539495600172" lon="13.841207538181111"><ele>448.0</ele><time>2026-05-02T09:12:27.999Z</time></trkpt><trkpt lat="42.21533258362141" lon="13.841101922345741"><ele>446.25</ele><time>2026-05-02T09:12:28.999Z</time></trkpt><trkpt lat="42.215276637317814" lon="13.840948959162846"><ele>444.5</ele><time>2026-05-02T09:12:29.999Z</time></trkpt><trkpt lat="42.215222003903015" lon="13.840788143237281"><ele>442.75</ele><time>2026-05-02T09:12:30.999Z</time></trkpt><trkpt lat="42.21517146187876" lon="13.840644039683355"><ele>441.0</ele><time>2026-05-02T09:12:31.999Z</time></trkpt><trkpt lat="42.21513728376258" lon="13.840531192282135"><ele>441.0</ele><time>2026-05-02T09:12:32.999Z</time></trkpt><trkpt lat="42.215125749898945" lon="13.840437038000452"><ele>441.0</ele><time>2026-05-02T09:12:33.999Z</time></trkpt><trkpt lat="42.21514509882617" lon="13.840345374487383"><ele>441.0</ele><time>2026-05-02T09:12:34.999Z</time></trkpt><trkpt lat="42.21519908724148" lon="13.84025446825252"><ele>441.0</ele><time>2026-05-02T09:12:35.999Z</time></trkpt><trkpt lat="42.215293409911254" lon="13.840157216886043"><ele>441.0</ele><time>2026-05-02T09:12:36.999Z</time></trkpt><trkpt lat="42.2154081593572" lon="13.840064729116788"><ele>440.5</ele><time>2026-05-02T09:12:37.999Z</time></trkpt><trkpt lat="42.21551363842229" lon="13.839982958055508"><ele>440.0</ele><time>2026-05-02T09:12:38.999Z</time></trkpt><trkpt lat="42.21561303307211" lon="13.839895948556029"><ele>439.5</ele><time>2026-05-02T09:12:39.999Z</time></trkpt><trkpt lat="42.21570727902651" lon="13.839808131010416"><ele>439.0</ele><time>2026-05-02T09:12:40.999Z</time></trkpt><trkpt lat="42.21579038982491" lon="13.839714366682868"><ele>437.75</ele><time>2026-05-02T09:12:41.999Z</time></trkpt><trkpt lat="42.21585746907504" lon="13.839603487184407"><ele>436.5</ele><time>2026-05-02T09:12:42.999Z</time></trkpt><trkpt lat="42.21591777447029" lon="13.83946305351548"><ele>435.25</ele><time>2026-05-02T09:12:43.999Z</time></trkpt><trkpt lat="42.21597962260095" lon="13.839303292199672"><ele>434.0</ele><time>2026-05-02T09:12:44.999Z</time></trkpt><trkpt lat="42.21604906373553" lon="13.839139182869511"><ele>434.0</ele><time>2026-05-02T09:12:45.999Z</time></trkpt><trkpt lat="42.216116091865075" lon="13.838973998695568"><ele>434.0</ele><time>2026-05-02T09:12:46.999Z</time></trkpt><trkpt lat="42.21617804286464" lon="13.838804207249462"><ele>434.0</ele><time>2026-05-02T09:12:47.999Z</time></trkpt><trkpt lat="42.21623433951247" lon="13.8386403588928"><ele>434.0</ele><time>2026-05-02T09:12:48.999Z</time></trkpt><trkpt lat="42.21628534223127" lon="13.838469907353172"><ele>430.3333333333333</ele><time>2026-05-02T09:12:50Z</time></trkpt><trkpt lat="42.21633485234092" lon="13.8382873076414"><ele>426.66666666666663</ele><time>2026-05-02T09:12:51Z</time></trkpt><trkpt lat="42.21638200128999" lon="13.838086456368083"><ele>423.0</ele><time>2026-05-02T09:12:52Z</time></trkpt><trkpt lat="42.216429573760436" lon="13.83789302278071"><ele>423.0</ele><time>2026-05-02T09:12:53Z</time></trkpt><trkpt lat="42.21648046206323" lon="13.837692373285353"><ele>423.0</ele><time>2026-05-02T09:12:54Z</time></trkpt><trkpt lat="42.216528275762386" lon="13.837490120714104"><ele>423.0</ele><time>2026-05-02T09:12:55Z</time></trkpt><trkpt lat="42.216573804651425" lon="13.837296075369117"><ele>423.0</ele><time>2026-05-02T09:12:56Z</time></trkpt><trkpt lat="42.21661772599449" lon="13.837106142621217"><ele>423.0</ele><time>2026-05-02T09:12:57Z</time></trkpt><trkpt lat="42.21666094946356" lon="13.836917121850457"><ele>423.0</ele><time>2026-05-02T09:12:58Z</time></trkpt><trkpt lat="42.216705000897896" lon="13.83672296596072"><ele>423.0</ele><time>2026-05-02T09:12:59Z</time></trkpt><trkpt lat="42.21676175477346" lon="13.836527803227966"><ele>419.0</ele><time>2026-05-02T09:13:00Z</time></trkpt><trkpt lat="42.21683242814838" lon="13.836343232449197"><ele>415.0</ele><time>2026-05-02T09:13:01Z</time></trkpt><trkpt lat="42.21691194202279" lon="13.836166168869749"><ele>411.0</ele><time>2026-05-02T09:13:02Z</time></trkpt><trkpt lat="42.2169910391436" lon="13.836004440400162"><ele>411.0</ele><time>2026-05-02T09:13:03Z</time></trkpt><trkpt lat="42.21706570590511" lon="13.835854724047644"><ele>411.0</ele><time>2026-05-02T09:13:04Z</time></trkpt><trkpt lat="42.21714854520192" lon="13.835704156107392"><ele>411.0</ele><time>2026-05-02T09:13:05Z</time></trkpt><trkpt lat="42.2172359090588" lon="13.835555129314647"><ele>411.0</ele><time>2026-05-02T09:13:06Z</time></trkpt><trkpt lat="42.21732485419339" lon="13.835400825261928"><ele>411.0</ele><time>2026-05-02T09:13:07Z</time></trkpt><trkpt lat="42.217410122162505" lon="13.835258231852468"><ele>411.0</ele><time>2026-05-02T09:13:08Z</time></trkpt><trkpt lat="42.21748746709602" lon="13.8351203944813"><ele>411.0</ele><time>2026-05-02T09:13:09Z</time></trkpt><trkpt lat="42.21754178273891" lon="13.834994244141875"><ele>411.0</ele><time>2026-05-02T09:13:10Z</time></trkpt><trkpt lat="42.217570402555445" lon="13.83485723003811"><ele>408.0</ele><time>2026-05-02T09:13:11Z</time></trkpt><trkpt lat="42.21757025747878" lon="13.834704182958848"><ele>405.0</ele><time>2026-05-02T09:13:12Z</time></trkpt><trkpt lat="42.217549895831525" lon="13.834535453187815"><ele>402.0</ele><time>2026-05-02T09:13:13Z</time></trkpt><trkpt lat="42.21752562027455" lon="13.834347999686031"><ele>399.0</ele><time>2026-05-02T09:13:14Z</time></trkpt><trkpt lat="42.21750074678789" lon="13.834153025341802"><ele>397.0</ele><time>2026-05-02T09:13:15Z</time></trkpt><trkpt lat="42.217480157089966" lon="13.83395816520221"><ele>395.0</ele><time>2026-05-02T09:13:16Z</time></trkpt><trkpt lat="42.2174579163554" lon="13.833767351540223"><ele>393.0</ele><time>2026-05-02T09:13:17Z</time></trkpt><trkpt lat="42.217436171320884" lon="13.833574631002591"><ele>391.0</ele><time>2026-05-02T09:13:18Z</time></trkpt><trkpt lat="42.21741199343721" lon="13.833388444539185"><ele>389.0</ele><time>2026-05-02T09:13:19Z</time></trkpt><trkpt lat="42.217399247446025" lon="13.833208495229663"><ele>387.0</ele><time>2026-05-02T09:13:20Z</time></trkpt><trkpt lat="42.21739974258996" lon="13.833031687112982"><ele>385.0</ele><time>2026-05-02T09:13:21Z</time></trkpt><trkpt lat="42.21740688669242" lon="13.832845605233317"><ele>383.0</ele><time>2026-05-02T09:13:22Z</time></trkpt><trkpt lat="42.21741929502108" lon="13.832654201272733"><ele>381.25</ele><time>2026-05-02T09:13:23Z</time></trkpt><trkpt lat="42.217433176422176" lon="13.8324693998136"><ele>379.5</ele><time>2026-05-02T09:13:24Z</time></trkpt><trkpt lat="42.21744604637024" lon="13.832275754353821"><ele>377.75</ele><time>2026-05-02T09:13:25Z</time></trkpt><trkpt lat="42.217463345023" lon="13.83208415543362"><ele>376.0</ele><time>2026-05-02T09:13:26Z</time></trkpt><trkpt lat="42.2174817724566" lon="13.83191088544118"><ele>375.0</ele><time>2026-05-02T09:13:27Z</time></trkpt><trkpt lat="42.217497245264916" lon="13.831751902215593"><ele>374.0</ele><time>2026-05-02T09:13:28Z</time></trkpt><trkpt lat="42.21750998487278" lon="13.831591091771696"><ele>373.0</ele><time>2026-05-02T09:13:29Z</time></trkpt><trkpt lat="42.217524103909795" lon="13.831418034824912"><ele>372.0</ele><time>2026-05-02T09:13:30Z</time></trkpt><trkpt lat="42.21755086544639" lon="13.83123884975898"><ele>372.0</ele><time>2026-05-02T09:13:31Z</time></trkpt><trkpt lat="42.2175951159947" lon="13.831057045096365"><ele>372.0</ele><time>2026-05-02T09:13:32Z</time></trkpt><trkpt lat="42.21764719263796" lon="13.830889181865619"><ele>372.0</ele><time>2026-05-02T09:13:33Z</time></trkpt><trkpt lat="42.21769781271863" lon="13.830736716120411"><ele>372.0</ele><time>2026-05-02T09:13:34Z</time></trkpt><trkpt lat="42.21774381179928" lon="13.830594949057165"><ele>371.25</ele><time>2026-05-02T09:13:35Z</time></trkpt><trkpt lat="42.21778625177546" lon="13.830460523450563"><ele>370.5</ele><time>2026-05-02T09:13:36Z</time></trkpt><trkpt lat="42.217830251604354" lon="13.830330925673227"><ele>369.75</ele><time>2026-05-02T09:13:37Z</time></trkpt><trkpt lat="42.21789059336076" lon="13.830182282047737"><ele>369.0</ele><time>2026-05-02T09:13:38Z</time></trkpt><trkpt lat="42.217950462363916" lon="13.830030987591305"><ele>367.75</ele><time>2026-05-02T09:13:39Z</time></trkpt><trkpt lat="42.21799736750719" lon="13.829860867571458"><ele>366.5</ele><time>2026-05-02T09:13:40Z</time></trkpt><trkpt lat="42.21801940669918" lon="13.82967333433149"><ele>365.25</ele><time>2026-05-02T09:13:41Z</time></trkpt><trkpt lat="42.21802160342525" lon="13.82946711533173"><ele>364.0</ele><time>2026-05-02T09:13:42Z</time></trkpt><trkpt lat="42.21800316181972" lon="13.829245605674982"><ele>363.0</ele><time>2026-05-02T09:13:43Z</time></trkpt><trkpt lat="42.217979306452754" lon="13.829011129934209"><ele>362.0</ele><time>2026-05-02T09:13:44Z</time></trkpt><trkpt lat="42.21795341735102" lon="13.82877594898003"><ele>361.0</ele><time>2026-05-02T09:13:45Z</time></trkpt><trkpt lat="42.21793422218814" lon="13.828552807172784"><ele>359.3333333333333</ele><time>2026-05-02T09:13:46Z</time></trkpt><trkpt lat="42.21791903082185" lon="13.828337191810775"><ele>357.6666666666667</ele><time>2026-05-02T09:13:47Z</time></trkpt><trkpt lat="42.217904123393225" lon="13.828123869575359"><ele>356.0</ele><time>2026-05-02T09:13:48Z</time></trkpt><trkpt lat="42.217890150551796" lon="13.827914174489022"><ele>356.0</ele><time>2026-05-02T09:13:49Z</time></trkpt><trkpt lat="42.2178811757518" lon="13.827724767733466"><ele>356.0</ele><time>2026-05-02T09:13:50Z</time></trkpt><trkpt lat="42.21787025983551" lon="13.827550677105917"><ele>356.0</ele><time>2026-05-02T09:13:51Z</time></trkpt><trkpt lat="42.21786292842967" lon="13.827391907716565"><ele>356.0</ele><time>2026-05-02T09:13:52Z</time></trkpt><trkpt lat="42.21786252560283" lon="13.827245079290517"><ele>354.6</ele><time>2026-05-02T09:13:53Z</time></trkpt><trkpt lat="42.21786311991109" lon="13.827112596631098"><ele>353.20000000000005</ele><time>2026-05-02T09:13:54Z</time></trkpt><trkpt lat="42.21786296223421" lon="13.82699112209031"><ele>351.79999999999995</ele><time>2026-05-02T09:13:55Z</time></trkpt><trkpt lat="42.21784196074768" lon="13.826875961309725"><ele>350.4</ele><time>2026-05-02T09:13:56Z</time></trkpt><trkpt lat="42.21778568186783" lon="13.826768058519608"><ele>349.0</ele><time>2026-05-02T09:13:57Z</time></trkpt><trkpt lat="42.21768761218575" lon="13.826691750830024"><ele>347.6</ele><time>2026-05-02T09:13:58Z</time></trkpt><trkpt lat="42.21758254806858" lon="13.826633078810788"><ele>346.2</ele><time>2026-05-02T09:13:59Z</time></trkpt><trkpt lat="42.21749079497264" lon="13.826581555122269"><ele>344.8</ele><time>2026-05-02T09:13:59.999Z</time></trkpt><trkpt lat="42.21741951493654" lon="13.826527090390481"><ele>343.40000000000003</ele><time>2026-05-02T09:14:00.999Z</time></trkpt><trkpt lat="42.21733889214661" lon="13.826422448444896"><ele>342.0</ele><time>2026-05-02T09:14:02.999Z</time></trkpt><trkpt lat="42.21737065632554" lon="13.826235363433364"><ele>342.0</ele><time>2026-05-02T09:14:04.999Z</time></trkpt><trkpt lat="42.21743885175532" lon="13.826130809146616"><ele>342.0</ele><time>2026-05-02T09:14:05.999Z</time></trkpt><trkpt lat="42.21752716163055" lon="13.826015825241727"><ele>342.0</ele><time>2026-05-02T09:14:06.999Z</time></trkpt><trkpt lat="42.217608848470746" lon="13.825893993040532"><ele>342.0</ele><time>2026-05-02T09:14:07.999Z</time></trkpt><trkpt lat="42.217683096826676" lon="13.825782412101715"><ele>339.8</ele><time>2026-05-02T09:14:08.999Z</time></trkpt><trkpt lat="42.21773978668196" lon="13.825679021127213"><ele>337.6</ele><time>2026-05-02T09:14:09.999Z</time></trkpt><trkpt lat="42.21776672354443" lon="13.825575230536876"><ele>335.40000000000003</ele><time>2026-05-02T09:14:10.999Z</time></trkpt><trkpt lat="42.217764861130995" lon="13.82546013784592"><ele>333.20000000000005</ele><time>2026-05-02T09:14:11.999Z</time></trkpt><trkpt lat="42.21773799736471" lon="13.825341491556944"><ele>331.0</ele><time>2026-05-02T09:14:12.999Z</time></trkpt><trkpt lat="42.21767985961205" lon="13.825235267665224"><ele>331.0</ele><time>2026-05-02T09:14:13.999Z</time></trkpt><trkpt lat="42.217595286437934" lon="13.825162387195885"><ele>331.0</ele><time>2026-05-02T09:14:14.999Z</time></trkpt><trkpt lat="42.21749314501294" lon="13.825144041012654"><ele>331.0</ele><time>2026-05-02T09:14:15.999Z</time></trkpt><trkpt lat="42.21738868622788" lon="13.825147686593029"><ele>331.0</ele><time>2026-05-02T09:14:16.999Z</time></trkpt><trkpt lat="42.21729243327058" lon="13.825138386542038"><ele>331.0</ele><time>2026-05-02T09:14:17.999Z</time></trkpt><trkpt lat="42.21721436531119" lon="13.825114446198574"><ele>329.5</ele><time>2026-05-02T09:14:18.999Z</time></trkpt><trkpt lat="42.21712918010007" lon="13.82503207423888"><ele>328.0</ele><time>2026-05-02T09:14:20.999Z</time></trkpt><trkpt lat="42.21708183703235" lon="13.82497029736354"><ele>326.5</ele><time>2026-05-02T09:14:21.999Z</time></trkpt><trkpt lat="42.21702535236456" lon="13.824895686390835"><ele>325.0</ele><time>2026-05-02T09:14:22.999Z</time></trkpt><trkpt lat="42.21697039920427" lon="13.824806306016367"><ele>323.5</ele><time>2026-05-02T09:14:23.999Z</time></trkpt><trkpt lat="42.21691428375808" lon="13.824689548850083"><ele>322.0</ele><time>2026-05-02T09:14:24.999Z</time></trkpt><trkpt lat="42.21686635265424" lon="13.82457169152707"><ele>322.0</ele><time>2026-05-02T09:14:25.999Z</time></trkpt><trkpt lat="42.21681608677627" lon="13.82445150668547"><ele>322.0</ele><time>2026-05-02T09:14:26.999Z</time></trkpt><trkpt lat="42.21675780088527" lon="13.824311358196873"><ele>322.0</ele><time>2026-05-02T09:14:27.999Z</time></trkpt><trkpt lat="42.21670843307954" lon="13.824148821280648"><ele>322.0</ele><time>2026-05-02T09:14:28.999Z</time></trkpt><trkpt lat="42.21664027268231" lon="13.823988557235909"><ele>321.25</ele><time>2026-05-02T09:14:29.999Z</time></trkpt><trkpt lat="42.21656916896288" lon="13.82382137262381"><ele>320.5</ele><time>2026-05-02T09:14:30.999Z</time></trkpt><trkpt lat="42.21649597323411" lon="13.823649269119867"><ele>319.75</ele><time>2026-05-02T09:14:31.999Z</time></trkpt><trkpt lat="42.21642833343055" lon="13.823490229135649"><ele>319.0</ele><time>2026-05-02T09:14:32.999Z</time></trkpt><trkpt lat="42.21636375071287" lon="13.823337477220065"><ele>317.5</ele><time>2026-05-02T09:14:33.999Z</time></trkpt><trkpt lat="42.216292485135675" lon="13.823210472334237"><ele>316.0</ele><time>2026-05-02T09:14:34.999Z</time></trkpt><trkpt lat="42.2162392350075" lon="13.823064807555957"><ele>314.5</ele><time>2026-05-02T09:14:35.999Z</time></trkpt><trkpt lat="42.21618432041463" lon="13.822935242899485"><ele>313.0</ele><time>2026-05-02T09:14:36.999Z</time></trkpt><trkpt lat="42.21612741110013" lon="13.822810262085456"><ele>313.0</ele><time>2026-05-02T09:14:37.999Z</time></trkpt><trkpt lat="42.216077751525525" lon="13.822689534530532"><ele>313.0</ele><time>2026-05-02T09:14:38.999Z</time></trkpt><trkpt lat="42.21603290930501" lon="13.822552683602021"><ele>313.0</ele><time>2026-05-02T09:14:39.999Z</time></trkpt><trkpt lat="42.215955364213194" lon="13.822452840527516"><ele>313.0</ele><time>2026-05-02T09:14:40.999Z</time></trkpt><trkpt lat="42.21587686709514" lon="13.822371845560175"><ele>313.0</ele><time>2026-05-02T09:14:41.999Z</time></trkpt><trkpt lat="42.21578511359329" lon="13.822296805116096"><ele>313.5</ele><time>2026-05-02T09:14:42.999Z</time></trkpt><trkpt lat="42.21565961698435" lon="13.822298856869205"><ele>314.0</ele><time>2026-05-02T09:14:43.999Z</time></trkpt><trkpt lat="42.21553415034216" lon="13.822303466965563"><ele>314.5</ele><time>2026-05-02T09:14:44.999Z</time></trkpt><trkpt lat="42.21540540549706" lon="13.822342163878073"><ele>315.0</ele><time>2026-05-02T09:14:45.999Z</time></trkpt><trkpt lat="42.21528478474608" lon="13.8224155892772"><ele>315.5</ele><time>2026-05-02T09:14:46.999Z</time></trkpt><trkpt lat="42.21515830452526" lon="13.822508036684837"><ele>316.0</ele><time>2026-05-02T09:14:47.999Z</time></trkpt><trkpt lat="42.21502225171845" lon="13.822562516449423"><ele>316.5</ele><time>2026-05-02T09:14:48.999Z</time></trkpt><trkpt lat="42.214900008641" lon="13.822632855046544"><ele>317.0</ele><time>2026-05-02T09:14:49.999Z</time></trkpt><trkpt lat="42.21478611706263" lon="13.822698388196015"><ele>317.0</ele><time>2026-05-02T09:14:50.999Z</time></trkpt><trkpt lat="42.21468364143375" lon="13.822778278281138"><ele>317.0</ele><time>2026-05-02T09:14:51.999Z</time></trkpt><trkpt lat="42.21457261582009" lon="13.822811470624261"><ele>317.0</ele><time>2026-05-02T09:14:52.999Z</time></trkpt><trkpt lat="42.21446305568564" lon="13.822810350179397"><ele>317.0</ele><time>2026-05-02T09:14:53.999Z</time></trkpt><trkpt lat="42.21435942970933" lon="13.82275230133625"><ele>317.0</ele><time>2026-05-02T09:14:54.999Z</time></trkpt><trkpt lat="42.2142791942298" lon="13.822672131805646"><ele>317.0</ele><time>2026-05-02T09:14:56Z</time></trkpt><trkpt lat="42.214210026294076" lon="13.822595562623514"><ele>317.0</ele><time>2026-05-02T09:14:57Z</time></trkpt><trkpt lat="42.214153717179585" lon="13.82252119833898"><ele>317.0</ele><time>2026-05-02T09:14:58Z</time></trkpt><trkpt lat="42.214120707082685" lon="13.822447811349091"><ele>317.0</ele><time>2026-05-02T09:14:59Z</time></trkpt><trkpt lat="42.21405527531286" lon="13.82231830253362"><ele>317.0</ele><time>2026-05-02T09:15:01Z</time></trkpt><trkpt lat="42.214052407353826" lon="13.822181168570845"><ele>317.0</ele><time>2026-05-02T09:15:03Z</time></trkpt><trkpt lat="42.21401869605772" lon="13.822101600225853"><ele>317.0</ele><time>2026-05-02T09:15:21Z</time></trkpt><trkpt lat="42.21404565067591" lon="13.822024161984634"><ele>317.0</ele><time>2026-05-02T09:15:23Z</time></trkpt><trkpt lat="42.214141708606874" lon="13.821948853232247"><ele>317.0</ele><time>2026-05-02T09:15:25Z</time></trkpt><trkpt lat="42.21423598884831" lon="13.821866117730629"><ele>317.0</ele><time>2026-05-02T09:15:27Z</time></trkpt><trkpt lat="42.214313937201815" lon="13.821773596492218"><ele>319.0</ele><time>2026-05-02T09:15:28.999Z</time></trkpt><trkpt lat="42.21438335087029" lon="13.821678296569468"><ele>319.0</ele><time>2026-05-02T09:15:30.999Z</time></trkpt><trkpt lat="42.21444719881101" lon="13.821592677622201"><ele>319.0</ele><time>2026-05-02T09:15:32.999Z</time></trkpt><trkpt lat="42.21449987333376" lon="13.821527832278656"><ele>319.0</ele><time>2026-05-02T09:15:34.999Z</time></trkpt><trkpt lat="42.21454818864565" lon="13.821459474119251"><ele>319.0</ele><time>2026-05-02T09:15:41.999Z</time></trkpt></trkseg><trkseg><trkpt lat="42.21462848440179" lon="13.821507535159997"><ele>319.0</ele><time>2026-05-02T09:31:11.999Z</time></trkpt><trkpt lat="42.21457261661271" lon="13.821444824250621"><ele>319.0</ele><time>2026-05-02T09:31:14.999Z</time></trkpt><trkpt lat="42.21462992500616" lon="13.821303961676486"><ele>319.0</ele><time>2026-05-02T09:31:17.999Z</time></trkpt><trkpt lat="42.21467571195248" lon="13.8212279621732"><ele>319.0</ele><time>2026-05-02T09:31:18.999Z</time></trkpt><trkpt lat="42.21476069535294" lon="13.82109671831637"><ele>319.0</ele><time>2026-05-02T09:31:20.999Z</time></trkpt><trkpt lat="42.214819523769236" lon="13.821011901816961"><ele>319.0</ele><time>2026-05-02T09:31:21.999Z</time></trkpt><trkpt lat="42.214883246359584" lon="13.820910945362717"><ele>319.0</ele><time>2026-05-02T09:31:22.999Z</time></trkpt><trkpt lat="42.21494732821575" lon="13.820799652442775"><ele>319.0</ele><time>2026-05-02T09:31:23.999Z</time></trkpt><trkpt lat="42.21502967239466" lon="13.820708290909707"><ele>319.0</ele><time>2026-05-02T09:31:24.999Z</time></trkpt><trkpt lat="42.21509601445427" lon="13.82060395621297"><ele>319.0</ele><time>2026-05-02T09:31:25.999Z</time></trkpt><trkpt lat="42.21515818296767" lon="13.820523419002974"><ele>319.0</ele><time>2026-05-02T09:31:26.999Z</time></trkpt><trkpt lat="42.21523563117372" lon="13.820395710607798"><ele>319.0</ele><time>2026-05-02T09:31:28.999Z</time></trkpt><trkpt lat="42.21522417494826" lon="13.820288841164755"><ele>319.0</ele><time>2026-05-02T09:31:30.999Z</time></trkpt><trkpt lat="42.215150674637485" lon="13.820251999472875"><ele>319.0</ele><time>2026-05-02T09:31:32.999Z</time></trkpt><trkpt lat="42.215063739600254" lon="13.820307317432183"><ele>319.0</ele><time>2026-05-02T09:31:34.999Z</time></trkpt><trkpt lat="42.21505048287394" lon="13.820390809917473"><ele>319.0</ele><time>2026-05-02T09:31:35.999Z</time></trkpt><trkpt lat="42.21500002325961" lon="13.820512765234856"><ele>319.0</ele><time>2026-05-02T09:31:37.999Z</time></trkpt><trkpt lat="42.2148975373086" lon="13.82053174065996"><ele>319.0</ele><time>2026-05-02T09:31:39.999Z</time></trkpt><trkpt lat="42.214943268757104" lon="13.820469989393183"><ele>319.0</ele><time>2026-05-02T09:39:24.999Z</time></trkpt><trkpt lat="42.21499102033237" lon="13.820405510300708"><ele>319.0</ele><time>2026-05-02T09:43:36Z</time></trkpt><trkpt lat="42.215043881065185" lon="13.820333104668851"><ele>319.0</ele><time>2026-05-02T09:45:43Z</time></trkpt><trkpt lat="42.21509225330792" lon="13.820268815311321"><ele>319.0</ele><time>2026-05-02T09:45:46Z</time></trkpt><trkpt lat="42.21514086177425" lon="13.820203179217263"><ele>319.0</ele><time>2026-05-02T09:45:50Z</time></trkpt><trkpt lat="42.2153137909101" lon="13.820311705831953"><ele>319.0</ele><time>2026-05-02T09:45:52Z</time></trkpt><trkpt lat="42.21537438385001" lon="13.820265438279613"><ele>319.0</ele><time>2026-05-02T09:45:53Z</time></trkpt><trkpt lat="42.215416579576136" lon="13.820189291400094"><ele>319.0</ele><time>2026-05-02T09:45:54Z</time></trkpt><trkpt lat="42.21546473023817" lon="13.820094218591631"><ele>319.0</ele><time>2026-05-02T09:45:55Z</time></trkpt><trkpt lat="42.21551011110321" lon="13.820026516253288"><ele>319.0</ele><time>2026-05-02T09:45:56Z</time></trkpt><trkpt lat="42.21558986046232" lon="13.819904301735583"><ele>319.0</ele><time>2026-05-02T09:45:58Z</time></trkpt><trkpt lat="42.21564643976521" lon="13.819821534936079"><ele>319.0</ele><time>2026-05-02T09:45:59Z</time></trkpt><trkpt lat="42.215704299836794" lon="13.819737378078198"><ele>319.0</ele><time>2026-05-02T09:46:00Z</time></trkpt><trkpt lat="42.21576903276552" lon="13.819642384289516"><ele>319.0</ele><time>2026-05-02T09:46:01Z</time></trkpt><trkpt lat="42.21583132168376" lon="13.819546997453102"><ele>319.0</ele><time>2026-05-02T09:46:02Z</time></trkpt><trkpt lat="42.21588898691744" lon="13.819466045390808"><ele>319.0</ele><time>2026-05-02T09:46:03Z</time></trkpt><trkpt lat="42.21594561614376" lon="13.819363305770153"><ele>319.16666666666663</ele><time>2026-05-02T09:46:04Z</time></trkpt><trkpt lat="42.216009926995326" lon="13.819272503768941"><ele>319.3333333333333</ele><time>2026-05-02T09:46:05Z</time></trkpt><trkpt lat="42.21607292895754" lon="13.819176358771404"><ele>319.5</ele><time>2026-05-02T09:46:06Z</time></trkpt><trkpt lat="42.21612808009226" lon="13.819088466052884"><ele>319.6666666666667</ele><time>2026-05-02T09:46:07Z</time></trkpt><trkpt lat="42.21617493042055" lon="13.819009118063665"><ele>319.83333333333337</ele><time>2026-05-02T09:46:08Z</time></trkpt><trkpt lat="42.21620495192079" lon="13.8189171238943"><ele>320.0</ele><time>2026-05-02T09:46:09Z</time></trkpt><trkpt lat="42.21621039897432" lon="13.818814905924405"><ele>320.0</ele><time>2026-05-02T09:46:10Z</time></trkpt><trkpt lat="42.21619383192367" lon="13.81868129096999"><ele>320.0</ele><time>2026-05-02T09:46:11Z</time></trkpt><trkpt lat="42.216180684468924" lon="13.818531922386"><ele>320.0</ele><time>2026-05-02T09:46:12Z</time></trkpt><trkpt lat="42.216198859140206" lon="13.818420991305699"><ele>320.0</ele><time>2026-05-02T09:46:13Z</time></trkpt><trkpt lat="42.216225505960026" lon="13.818337158838649"><ele>320.0</ele><time>2026-05-02T09:46:14Z</time></trkpt><trkpt lat="42.21624571559632" lon="13.818250838949764"><ele>320.0</ele><time>2026-05-02T09:46:15Z</time></trkpt><trkpt lat="42.21626463783165" lon="13.81815641801327"><ele>319.5</ele><time>2026-05-02T09:46:16Z</time></trkpt><trkpt lat="42.21643326705319" lon="13.818098760692875"><ele>319.0</ele><time>2026-05-02T09:46:17Z</time></trkpt><trkpt lat="42.21653660026719" lon="13.817987636265768"><ele>318.5</ele><time>2026-05-02T09:46:18.001Z</time></trkpt><trkpt lat="42.21665044616484" lon="13.817874761984555"><ele>318.0</ele><time>2026-05-02T09:46:19.001Z</time></trkpt><trkpt lat="42.216779387674386" lon="13.817765435146459"><ele>318.0</ele><time>2026-05-02T09:46:20.001Z</time></trkpt><trkpt lat="42.21692072223685" lon="13.817670434628853"><ele>318.0</ele><time>2026-05-02T09:46:21.001Z</time></trkpt><trkpt lat="42.217080599791736" lon="13.817575977526463"><ele>318.0</ele><time>2026-05-02T09:46:22.001Z</time></trkpt><trkpt lat="42.21724968243095" lon="13.817495364421225"><ele>318.3333333333333</ele><time>2026-05-02T09:46:23.001Z</time></trkpt><trkpt lat="42.217431093004556" lon="13.817428454416046"><ele>318.66666666666663</ele><time>2026-05-02T09:46:24.001Z</time></trkpt><trkpt lat="42.21762913304249" lon="13.817375030783563"><ele>319.0</ele><time>2026-05-02T09:46:25.001Z</time></trkpt><trkpt lat="42.21783703813456" lon="13.81733617121514"><ele>319.0</ele><time>2026-05-02T09:46:26.001Z</time></trkpt><trkpt lat="42.21805506222349" lon="13.81729923235406"><ele>319.0</ele><time>2026-05-02T09:46:27.001Z</time></trkpt><trkpt lat="42.21828113058702" lon="13.817258664132765"><ele>319.0</ele><time>2026-05-02T09:46:28.001Z</time></trkpt><trkpt lat="42.21850281152959" lon="13.817217058927987"><ele>319.0</ele><time>2026-05-02T09:46:29.001Z</time></trkpt><trkpt lat="42.21872136960583" lon="13.81717265443545"><ele>319.0</ele><time>2026-05-02T09:46:30.001Z</time></trkpt><trkpt lat="42.218944192181524" lon="13.817128489151544"><ele>319.0</ele><time>2026-05-02T09:46:31.001Z</time></trkpt><trkpt lat="42.21916304218214" lon="13.817093155410285"><ele>319.0</ele><time>2026-05-02T09:46:32.001Z</time></trkpt><trkpt lat="42.21937096844799" lon="13.817063610266969"><ele>319.0</ele><time>2026-05-02T09:46:33.001Z</time></trkpt><trkpt lat="42.219570789429916" lon="13.81703877221499"><ele>319.0</ele><time>2026-05-02T09:46:34.001Z</time></trkpt><trkpt lat="42.21977445250444" lon="13.817030232870003"><ele>318.66666666666663</ele><time>2026-05-02T09:46:35.001Z</time></trkpt><trkpt lat="42.21998179214075" lon="13.81704316467985"><ele>318.3333333333333</ele><time>2026-05-02T09:46:36.001Z</time></trkpt><trkpt lat="42.220185879855045" lon="13.817093585984873"><ele>318.0</ele><time>2026-05-02T09:46:37.001Z</time></trkpt><trkpt lat="42.220392594068116" lon="13.817164076432112"><ele>318.0</ele><time>2026-05-02T09:46:38.001Z</time></trkpt><trkpt lat="42.22059948485406" lon="13.817220043635215"><ele>318.0</ele><time>2026-05-02T09:46:39.001Z</time></trkpt><trkpt lat="42.220798758897374" lon="13.81727465998236"><ele>318.0</ele><time>2026-05-02T09:46:40.001Z</time></trkpt><trkpt lat="42.22099444545552" lon="13.817329391413521"><ele>317.6666666666667</ele><time>2026-05-02T09:46:41.001Z</time></trkpt><trkpt lat="42.22118353703181" lon="13.81738256373789"><ele>317.33333333333337</ele><time>2026-05-02T09:46:42.001Z</time></trkpt><trkpt lat="42.221375421227926" lon="13.817428997582534"><ele>317.0</ele><time>2026-05-02T09:46:43.001Z</time></trkpt><trkpt lat="42.22157303177047" lon="13.817459435070385"><ele>317.0</ele><time>2026-05-02T09:46:44.001Z</time></trkpt><trkpt lat="42.221776052365556" lon="13.817473141989547"><ele>317.0</ele><time>2026-05-02T09:46:45.001Z</time></trkpt><trkpt lat="42.2219794442816" lon="13.817469505768239"><ele>317.0</ele><time>2026-05-02T09:46:46.001Z</time></trkpt><trkpt lat="42.22218187054298" lon="13.817437408235282"><ele>318.0</ele><time>2026-05-02T09:46:47.001Z</time></trkpt><trkpt lat="42.222381783372605" lon="13.81738692258307"><ele>319.0</ele><time>2026-05-02T09:46:48.001Z</time></trkpt><trkpt lat="42.222582996562494" lon="13.8173234667814"><ele>320.0</ele><time>2026-05-02T09:46:49.001Z</time></trkpt><trkpt lat="42.22277396397282" lon="13.817239097957474"><ele>320.0</ele><time>2026-05-02T09:46:50.001Z</time></trkpt><trkpt lat="42.22295919419282" lon="13.81713555403572"><ele>320.0</ele><time>2026-05-02T09:46:51.001Z</time></trkpt><trkpt lat="42.22313308886949" lon="13.817022113097327"><ele>320.0</ele><time>2026-05-02T09:46:52.001Z</time></trkpt><trkpt lat="42.223303018927815" lon="13.816892481219703"><ele>320.33333333333337</ele><time>2026-05-02T09:46:53.001Z</time></trkpt><trkpt lat="42.2234765489272" lon="13.816746422558815"><ele>320.6666666666667</ele><time>2026-05-02T09:46:54.001Z</time></trkpt><trkpt lat="42.22366031808784" lon="13.816594933738191"><ele>321.0</ele><time>2026-05-02T09:46:55.001Z</time></trkpt><trkpt lat="42.22384175416426" lon="13.816434348437914"><ele>319.3333333333333</ele><time>2026-05-02T09:46:56.001Z</time></trkpt><trkpt lat="42.224030612730424" lon="13.816290539812382"><ele>317.66666666666663</ele><time>2026-05-02T09:46:57.001Z</time></trkpt><trkpt lat="42.224207427193704" lon="13.81614378815338"><ele>316.0</ele><time>2026-05-02T09:46:58.001Z</time></trkpt><trkpt lat="42.22438527077123" lon="13.815998668575416"><ele>316.3333333333333</ele><time>2026-05-02T09:46:59.001Z</time></trkpt><trkpt lat="42.22458226429051" lon="13.815837257711438"><ele>316.6666666666667</ele><time>2026-05-02T09:47:00.001Z</time></trkpt><trkpt lat="42.22476864965788" lon="13.815690905706305"><ele>317.0</ele><time>2026-05-02T09:47:01.001Z</time></trkpt><trkpt lat="42.22496847728551" lon="13.815588293775148"><ele>317.0</ele><time>2026-05-02T09:47:02.001Z</time></trkpt><trkpt lat="42.22516672947832" lon="13.815495779416558"><ele>317.0</ele><time>2026-05-02T09:47:03.001Z</time></trkpt><trkpt lat="42.225369018443615" lon="13.815423621643435"><ele>317.0</ele><time>2026-05-02T09:47:04Z</time></trkpt><trkpt lat="42.22557441127301" lon="13.8153645392483"><ele>317.0</ele><time>2026-05-02T09:47:05Z</time></trkpt><trkpt lat="42.22576728538806" lon="13.81530212397993"><ele>317.0</ele><time>2026-05-02T09:47:06Z</time></trkpt><trkpt lat="42.225955729124905" lon="13.815257254411048"><ele>317.0</ele><time>2026-05-02T09:47:07Z</time></trkpt><trkpt lat="42.2261493596793" lon="13.815209490763943"><ele>317.0</ele><time>2026-05-02T09:47:08Z</time></trkpt><trkpt lat="42.22634202679629" lon="13.815159856797223"><ele>317.0</ele><time>2026-05-02T09:47:09Z</time></trkpt><trkpt lat="42.22653070371595" lon="13.81510870539813"><ele>317.0</ele><time>2026-05-02T09:47:10Z</time></trkpt><trkpt lat="42.22672431040042" lon="13.815054258947555"><ele>319.0</ele><time>2026-05-02T09:47:11Z</time></trkpt><trkpt lat="42.226919771178174" lon="13.814998723828026"><ele>321.0</ele><time>2026-05-02T09:47:12Z</time></trkpt><trkpt lat="42.22711206559656" lon="13.814948734397381"><ele>323.0</ele><time>2026-05-02T09:47:13Z</time></trkpt><trkpt lat="42.22731008154051" lon="13.814909771378602"><ele>321.6666666666667</ele><time>2026-05-02T09:47:14Z</time></trkpt><trkpt lat="42.22751367165363" lon="13.814878256075088"><ele>320.3333333333333</ele><time>2026-05-02T09:47:15Z</time></trkpt><trkpt lat="42.227715683290675" lon="13.814861189242096"><ele>319.0</ele><time>2026-05-02T09:47:16Z</time></trkpt><trkpt lat="42.22787920738298" lon="13.814844907094692"><ele>319.0</ele><time>2026-05-02T09:47:17Z</time></trkpt><trkpt lat="42.22802275375869" lon="13.814829008032785"><ele>319.0</ele><time>2026-05-02T09:47:18Z</time></trkpt><trkpt lat="42.228153035858256" lon="13.814809370352616"><ele>319.0</ele><time>2026-05-02T09:47:19Z</time></trkpt><trkpt lat="42.22826542258703" lon="13.814798347501517"><ele>319.0</ele><time>2026-05-02T09:47:20Z</time></trkpt><trkpt lat="42.22835795178188" lon="13.814789397548182"><ele>319.0</ele><time>2026-05-02T09:47:21Z</time></trkpt><trkpt lat="42.22844317910453" lon="13.814787651864691"><ele>319.0</ele><time>2026-05-02T09:47:22Z</time></trkpt><trkpt lat="42.22851485309177" lon="13.814784161847642"><ele>319.0</ele><time>2026-05-02T09:47:23Z</time></trkpt><trkpt lat="42.22860232608115" lon="13.814785820046973"><ele>319.0</ele><time>2026-05-02T09:47:25Z</time></trkpt><trkpt lat="42.22867118909478" lon="13.814795353937482"><ele>319.0</ele><time>2026-05-02T09:47:27Z</time></trkpt><trkpt lat="42.22876359426725" lon="13.814813285690528"><ele>319.0</ele><time>2026-05-02T09:47:29Z</time></trkpt><trkpt lat="42.22887559136348" lon="13.814873705178895"><ele>319.0</ele><time>2026-05-02T09:47:31Z</time></trkpt><trkpt lat="42.228965542328886" lon="13.81491347257537"><ele>319.0</ele><time>2026-05-02T09:47:33Z</time></trkpt><trkpt lat="42.22906393343993" lon="13.81496919052777"><ele>319.0</ele><time>2026-05-02T09:47:35Z</time></trkpt><trkpt lat="42.22917240333658" lon="13.815033896131453"><ele>319.0</ele><time>2026-05-02T09:47:37Z</time></trkpt><trkpt lat="42.22928650068262" lon="13.815118756448621"><ele>318.8333333333333</ele><time>2026-05-02T09:47:39Z</time></trkpt><trkpt lat="42.22937295547146" lon="13.815159173634196"><ele>318.66666666666663</ele><time>2026-05-02T09:47:40Z</time></trkpt><trkpt lat="42.229433121403915" lon="13.815185376029898"><ele>318.5</ele><time>2026-05-02T09:47:41Z</time></trkpt><trkpt lat="42.22949009584737" lon="13.815225365004867"><ele>318.3333333333333</ele><time>2026-05-02T09:47:42Z</time></trkpt><trkpt lat="42.22959070321302" lon="13.815338316178938"><ele>318.1666666666667</ele><time>2026-05-02T09:47:44Z</time></trkpt><trkpt lat="42.22964402789705" lon="13.81540751317237"><ele>318.0</ele><time>2026-05-02T09:47:45Z</time></trkpt><trkpt lat="42.229689537315174" lon="13.81548531211861"><ele>318.0</ele><time>2026-05-02T09:47:46Z</time></trkpt><trkpt lat="42.229733217570384" lon="13.815561130861429"><ele>318.0</ele><time>2026-05-02T09:47:47Z</time></trkpt><trkpt lat="42.22977806264576" lon="13.815636974719256"><ele>318.0</ele><time>2026-05-02T09:47:48Z</time></trkpt><trkpt lat="42.229813154432044" lon="13.815713204026855"><ele>318.0</ele><time>2026-05-02T09:47:49Z</time></trkpt><trkpt lat="42.22984987773735" lon="13.815784042714718"><ele>318.0</ele><time>2026-05-02T09:47:50Z</time></trkpt><trkpt lat="42.22989261620993" lon="13.815858292454427"><ele>318.0</ele><time>2026-05-02T09:47:51Z</time></trkpt><trkpt lat="42.22993381594986" lon="13.81594816519248"><ele>318.0</ele><time>2026-05-02T09:47:52Z</time></trkpt><trkpt lat="42.22996334237619" lon="13.816055314751875"><ele>317.6</ele><time>2026-05-02T09:47:53Z</time></trkpt><trkpt lat="42.22995115840467" lon="13.816162014884247"><ele>317.20000000000005</ele><time>2026-05-02T09:47:54Z</time></trkpt><trkpt lat="42.229928912031774" lon="13.816298247413709"><ele>316.8</ele><time>2026-05-02T09:47:55Z</time></trkpt><trkpt lat="42.22990499527011" lon="13.816439169907088"><ele>316.40000000000003</ele><time>2026-05-02T09:47:56Z</time></trkpt><trkpt lat="42.229898995207336" lon="13.816582129645665"><ele>316.0</ele><time>2026-05-02T09:47:57Z</time></trkpt><trkpt lat="42.22990908080141" lon="13.816702173201977"><ele>316.0</ele><time>2026-05-02T09:47:58Z</time></trkpt><trkpt lat="42.22992728693288" lon="13.816803837688004"><ele>316.0</ele><time>2026-05-02T09:47:59Z</time></trkpt><trkpt lat="42.22994276892649" lon="13.8169013929831"><ele>316.0</ele><time>2026-05-02T09:48:00Z</time></trkpt><trkpt lat="42.22995957847569" lon="13.817019106328202"><ele>316.0</ele><time>2026-05-02T09:48:01Z</time></trkpt><trkpt lat="42.22998104381779" lon="13.817169242108776"><ele>316.0</ele><time>2026-05-02T09:48:02Z</time></trkpt><trkpt lat="42.23000436928956" lon="13.817355912612381"><ele>315.66666666666663</ele><time>2026-05-02T09:48:03Z</time></trkpt><trkpt lat="42.230024925417325" lon="13.8175649107893"><ele>315.3333333333333</ele><time>2026-05-02T09:48:04Z</time></trkpt><trkpt lat="42.23004130740961" lon="13.817783143057419"><ele>315.0</ele><time>2026-05-02T09:48:05Z</time></trkpt><trkpt lat="42.23005661874431" lon="13.817982317644491"><ele>315.0</ele><time>2026-05-02T09:48:06Z</time></trkpt><trkpt lat="42.23006999939189" lon="13.818164942656601"><ele>315.0</ele><time>2026-05-02T09:48:07Z</time></trkpt><trkpt lat="42.230088281133455" lon="13.81835610596073"><ele>315.0</ele><time>2026-05-02T09:48:08Z</time></trkpt><trkpt lat="42.23010053126864" lon="13.818573503877607"><ele>315.0</ele><time>2026-05-02T09:48:09Z</time></trkpt><trkpt lat="42.23010408454323" lon="13.818783520299926"><ele>315.0</ele><time>2026-05-02T09:48:10Z</time></trkpt><trkpt lat="42.23010286266933" lon="13.81896503479526"><ele>315.0</ele><time>2026-05-02T09:48:11Z</time></trkpt><trkpt lat="42.23010273385408" lon="13.819127054415933"><ele>315.0</ele><time>2026-05-02T09:48:12Z</time></trkpt><trkpt lat="42.23010715931616" lon="13.819265561844396"><ele>315.0</ele><time>2026-05-02T09:48:13Z</time></trkpt><trkpt lat="42.23011324456672" lon="13.819383884365449"><ele>315.0</ele><time>2026-05-02T09:48:14Z</time></trkpt><trkpt lat="42.23012101137271" lon="13.819480752939755"><ele>315.6</ele><time>2026-05-02T09:48:15Z</time></trkpt><trkpt lat="42.2301338761665" lon="13.819569950010647"><ele>316.2</ele><time>2026-05-02T09:48:16Z</time></trkpt><trkpt lat="42.230190295525084" lon="13.819658852338737"><ele>316.8</ele><time>2026-05-02T09:48:18Z</time></trkpt><trkpt lat="42.2303057257624" lon="13.819668199973163"><ele>317.4</ele><time>2026-05-02T09:48:20Z</time></trkpt><trkpt lat="42.23040829251492" lon="13.819655803202336"><ele>318.0</ele><time>2026-05-02T09:48:21Z</time></trkpt><trkpt lat="42.23052942513577" lon="13.81962418705752"><ele>319.75</ele><time>2026-05-02T09:48:22Z</time></trkpt><trkpt lat="42.23066565438972" lon="13.81960338426795"><ele>321.5</ele><time>2026-05-02T09:48:23Z</time></trkpt><trkpt lat="42.23079850715569" lon="13.819591729743717"><ele>323.25</ele><time>2026-05-02T09:48:24Z</time></trkpt><trkpt lat="42.23091579009367" lon="13.81958302861553"><ele>325.0</ele><time>2026-05-02T09:48:25Z</time></trkpt><trkpt lat="42.23104311271879" lon="13.819548976482155"><ele>325.0</ele><time>2026-05-02T09:48:26Z</time></trkpt><trkpt lat="42.23116973900861" lon="13.819482605027353"><ele>325.0</ele><time>2026-05-02T09:48:27Z</time></trkpt><trkpt lat="42.2312634998997" lon="13.819406300020075"><ele>325.0</ele><time>2026-05-02T09:48:28Z</time></trkpt><trkpt lat="42.23135476616948" lon="13.819335472763273"><ele>325.0</ele><time>2026-05-02T09:48:29Z</time></trkpt><trkpt lat="42.231470755513016" lon="13.81926206173887"><ele>323.75</ele><time>2026-05-02T09:48:30Z</time></trkpt><trkpt lat="42.23159520060647" lon="13.819195303650028"><ele>322.5</ele><time>2026-05-02T09:48:31Z</time></trkpt><trkpt lat="42.231725216965806" lon="13.819139142782122"><ele>321.25</ele><time>2026-05-02T09:48:32Z</time></trkpt><trkpt lat="42.23186271573824" lon="13.819102849251923"><ele>320.0</ele><time>2026-05-02T09:48:33Z</time></trkpt><trkpt lat="42.232009708514326" lon="13.81907963364382"><ele>320.0</ele><time>2026-05-02T09:48:34Z</time></trkpt><trkpt lat="42.23215455109722" lon="13.819070713350467"><ele>320.0</ele><time>2026-05-02T09:48:35Z</time></trkpt><trkpt lat="42.23229580993536" lon="13.819069523648388"><ele>320.0</ele><time>2026-05-02T09:48:36Z</time></trkpt><trkpt lat="42.232430252495405" lon="13.81906154826483"><ele>320.0</ele><time>2026-05-02T09:48:37Z</time></trkpt><trkpt lat="42.23256107566052" lon="13.819051740840571"><ele>320.25</ele><time>2026-05-02T09:48:38Z</time></trkpt><trkpt lat="42.23268867924556" lon="13.819052404009637"><ele>320.5</ele><time>2026-05-02T09:48:39Z</time></trkpt><trkpt lat="42.232835150008796" lon="13.819036279771108"><ele>320.75</ele><time>2026-05-02T09:48:40Z</time></trkpt><trkpt lat="42.23298867345042" lon="13.818989926444797"><ele>321.0</ele><time>2026-05-02T09:48:41Z</time></trkpt><trkpt lat="42.233143118892436" lon="13.818921483140233"><ele>323.5</ele><time>2026-05-02T09:48:42Z</time></trkpt><trkpt lat="42.23328485974268" lon="13.818844818726124"><ele>326.0</ele><time>2026-05-02T09:48:43Z</time></trkpt><trkpt lat="42.2334156550142" lon="13.818778650493194"><ele>328.5</ele><time>2026-05-02T09:48:44Z</time></trkpt><trkpt lat="42.23354768978242" lon="13.818710381082873"><ele>331.0</ele><time>2026-05-02T09:48:45Z</time></trkpt><trkpt lat="42.233684746996786" lon="13.818633074543419"><ele>331.0</ele><time>2026-05-02T09:48:46Z</time></trkpt><trkpt lat="42.2338198424791" lon="13.818550402642536"><ele>331.0</ele><time>2026-05-02T09:48:47Z</time></trkpt><trkpt lat="42.23394343583207" lon="13.818467787734154"><ele>331.0</ele><time>2026-05-02T09:48:48Z</time></trkpt><trkpt lat="42.234063375155166" lon="13.818390303981726"><ele>331.0</ele><time>2026-05-02T09:48:49Z</time></trkpt><trkpt lat="42.234177592863645" lon="13.818316933954351"><ele>329.75</ele><time>2026-05-02T09:48:50Z</time></trkpt><trkpt lat="42.23429723457135" lon="13.818228468737539"><ele>328.5</ele><time>2026-05-02T09:48:51Z</time></trkpt><trkpt lat="42.23442408809178" lon="13.818114762733963"><ele>327.25</ele><time>2026-05-02T09:48:52Z</time></trkpt><trkpt lat="42.23454925058703" lon="13.81798135716248"><ele>326.0</ele><time>2026-05-02T09:48:53Z</time></trkpt><trkpt lat="42.234669135845664" lon="13.81783806858584"><ele>326.0</ele><time>2026-05-02T09:48:54Z</time></trkpt><trkpt lat="42.234780168817075" lon="13.817683572750072"><ele>326.0</ele><time>2026-05-02T09:48:55Z</time></trkpt><trkpt lat="42.23487408857197" lon="13.817530445018592"><ele>326.0</ele><time>2026-05-02T09:48:56Z</time></trkpt><trkpt lat="42.234956276023595" lon="13.817385992821626"><ele>326.0</ele><time>2026-05-02T09:48:57Z</time></trkpt><trkpt lat="42.23503268185186" lon="13.817243951784292"><ele>324.75</ele><time>2026-05-02T09:48:58Z</time></trkpt><trkpt lat="42.23509907270929" lon="13.81710646425731"><ele>323.5</ele><time>2026-05-02T09:48:59Z</time></trkpt><trkpt lat="42.23515810448596" lon="13.816964894389335"><ele>322.25</ele><time>2026-05-02T09:49:00Z</time></trkpt><trkpt lat="42.23521553877231" lon="13.816817090039734"><ele>321.0</ele><time>2026-05-02T09:49:01Z</time></trkpt><trkpt lat="42.235269993710105" lon="13.816681535660848"><ele>320.25</ele><time>2026-05-02T09:49:02Z</time></trkpt><trkpt lat="42.23534638429832" lon="13.816569267976949"><ele>319.5</ele><time>2026-05-02T09:49:03.001Z</time></trkpt><trkpt lat="42.23542507127277" lon="13.816450376901477"><ele>318.75</ele><time>2026-05-02T09:49:04.001Z</time></trkpt><trkpt lat="42.23550976822946" lon="13.816352295266606"><ele>318.0</ele><time>2026-05-02T09:49:05.001Z</time></trkpt><trkpt lat="42.23561774316435" lon="13.816279929913014"><ele>319.0</ele><time>2026-05-02T09:49:06.001Z</time></trkpt><trkpt lat="42.2357423948431" lon="13.816232133992743"><ele>320.0</ele><time>2026-05-02T09:49:07.001Z</time></trkpt><trkpt lat="42.23587117263865" lon="13.816213910086155"><ele>321.0</ele><time>2026-05-02T09:49:08.001Z</time></trkpt><trkpt lat="42.23598203262132" lon="13.8162336703837"><ele>322.0</ele><time>2026-05-02T09:49:09Z</time></trkpt><trkpt lat="42.23609529831329" lon="13.816293956892581"><ele>322.0</ele><time>2026-05-02T09:49:10Z</time></trkpt><trkpt lat="42.23619493377193" lon="13.816413832616258"><ele>322.0</ele><time>2026-05-02T09:49:11Z</time></trkpt><trkpt lat="42.23630748558673" lon="13.816499905012925"><ele>322.0</ele><time>2026-05-02T09:49:12Z</time></trkpt><trkpt lat="42.236419400128874" lon="13.816597177446452"><ele>322.0</ele><time>2026-05-02T09:49:13Z</time></trkpt><trkpt lat="42.23655500808949" lon="13.816675219889607"><ele>321.5</ele><time>2026-05-02T09:49:14Z</time></trkpt><trkpt lat="42.236694982843446" lon="13.816737019558351"><ele>321.0</ele><time>2026-05-02T09:49:15Z</time></trkpt><trkpt lat="42.23682758298003" lon="13.816771410719252"><ele>320.5</ele><time>2026-05-02T09:49:16Z</time></trkpt><trkpt lat="42.23695231432704" lon="13.816775074083415"><ele>320.0</ele><time>2026-05-02T09:49:17Z</time></trkpt><trkpt lat="42.237057925353454" lon="13.816751352297945"><ele>320.0</ele><time>2026-05-02T09:49:18Z</time></trkpt><trkpt lat="42.23715709853479" lon="13.8167314675457"><ele>320.0</ele><time>2026-05-02T09:49:19Z</time></trkpt><trkpt lat="42.237245405280355" lon="13.816694699793642"><ele>320.0</ele><time>2026-05-02T09:49:20Z</time></trkpt><trkpt lat="42.23731933558889" lon="13.816661904738591"><ele>320.0</ele><time>2026-05-02T09:49:21Z</time></trkpt><trkpt lat="42.237406167889525" lon="13.816623321895023"><ele>320.0</ele><time>2026-05-02T09:49:22Z</time></trkpt><trkpt lat="42.23750240093437" lon="13.816572261267291"><ele>319.75</ele><time>2026-05-02T09:49:23Z</time></trkpt><trkpt lat="42.2376029420529" lon="13.81652156768126"><ele>319.5</ele><time>2026-05-02T09:49:24Z</time></trkpt><trkpt lat="42.23770610971107" lon="13.816470442268786"><ele>319.25</ele><time>2026-05-02T09:49:25Z</time></trkpt><trkpt lat="42.23782315119101" lon="13.816418009750072"><ele>319.0</ele><time>2026-05-02T09:49:26Z</time></trkpt><trkpt lat="42.2379461710736" lon="13.816363704562207"><ele>319.0</ele><time>2026-05-02T09:49:27Z</time></trkpt><trkpt lat="42.23806556410625" lon="13.816310389961975"><ele>319.0</ele><time>2026-05-02T09:49:28Z</time></trkpt><trkpt lat="42.23817662129644" lon="13.816253937744545"><ele>319.0</ele><time>2026-05-02T09:49:29Z</time></trkpt><trkpt lat="42.238289684201526" lon="13.816191299456433"><ele>319.0</ele><time>2026-05-02T09:49:30Z</time></trkpt><trkpt lat="42.238403590830664" lon="13.816133568839978"><ele>319.0</ele><time>2026-05-02T09:49:31Z</time></trkpt><trkpt lat="42.238521307814565" lon="13.816088640318359"><ele>319.0</ele><time>2026-05-02T09:49:32Z</time></trkpt><trkpt lat="42.23864260846888" lon="13.816100719257928"><ele>319.0</ele><time>2026-05-02T09:49:33Z</time></trkpt><trkpt lat="42.23875570469906" lon="13.816108428522465"><ele>319.0</ele><time>2026-05-02T09:49:34Z</time></trkpt><trkpt lat="42.2388652773288" lon="13.816114387830954"><ele>319.79999999999995</ele><time>2026-05-02T09:49:35Z</time></trkpt><trkpt lat="42.2389713553282" lon="13.816140691590247"><ele>320.59999999999997</ele><time>2026-05-02T09:49:36Z</time></trkpt><trkpt lat="42.23907480110556" lon="13.816151712809758"><ele>321.4</ele><time>2026-05-02T09:49:37Z</time></trkpt><trkpt lat="42.239172874220884" lon="13.816171145368234"><ele>322.2</ele><time>2026-05-02T09:49:38Z</time></trkpt><trkpt lat="42.239251291301095" lon="13.816187792020296"><ele>323.0</ele><time>2026-05-02T09:49:39Z</time></trkpt><trkpt lat="42.239319267186964" lon="13.816214487552578"><ele>323.0</ele><time>2026-05-02T09:49:40Z</time></trkpt><trkpt lat="42.239394723768086" lon="13.81637987720352"><ele>323.0</ele><time>2026-05-02T09:49:42Z</time></trkpt><trkpt lat="42.23945935739011" lon="13.816467716697192"><ele>323.0</ele><time>2026-05-02T09:49:44Z</time></trkpt><trkpt lat="42.239546770028525" lon="13.816503649898152"><ele>323.0</ele><time>2026-05-02T09:49:46Z</time></trkpt><trkpt lat="42.23968572710101" lon="13.81649100682497"><ele>323.0</ele><time>2026-05-02T09:49:48Z</time></trkpt><trkpt lat="42.23977497740222" lon="13.816473086202988"><ele>323.0</ele><time>2026-05-02T09:49:49Z</time></trkpt><trkpt lat="42.23986282169803" lon="13.816437605056382"><ele>323.0</ele><time>2026-05-02T09:49:50Z</time></trkpt><trkpt lat="42.239944476552964" lon="13.816397804713542"><ele>323.0</ele><time>2026-05-02T09:49:51Z</time></trkpt><trkpt lat="42.2400427213574" lon="13.816357961632521"><ele>323.0</ele><time>2026-05-02T09:49:52Z</time></trkpt><trkpt lat="42.240152470908676" lon="13.816327418436272"><ele>324.0</ele><time>2026-05-02T09:49:53Z</time></trkpt><trkpt lat="42.24027776122366" lon="13.816324952941725"><ele>325.0</ele><time>2026-05-02T09:49:54Z</time></trkpt><trkpt lat="42.24040775688039" lon="13.816323983380574"><ele>326.0</ele><time>2026-05-02T09:49:55Z</time></trkpt><trkpt lat="42.240537190981826" lon="13.816316297706006"><ele>327.0</ele><time>2026-05-02T09:49:56Z</time></trkpt><trkpt lat="42.240657376675635" lon="13.816311406030554"><ele>327.5</ele><time>2026-05-02T09:49:57Z</time></trkpt><trkpt lat="42.24078432245756" lon="13.816313135750887"><ele>328.0</ele><time>2026-05-02T09:49:58Z</time></trkpt><trkpt lat="42.24091014750702" lon="13.816313160148221"><ele>328.5</ele><time>2026-05-02T09:49:59Z</time></trkpt><trkpt lat="42.24102584916702" lon="13.816301987567192"><ele>329.0</ele><time>2026-05-02T09:50:00Z</time></trkpt><trkpt lat="42.241129711759925" lon="13.816288993890836"><ele>329.0</ele><time>2026-05-02T09:50:01Z</time></trkpt><trkpt lat="42.24122432609611" lon="13.816259766240275"><ele>329.0</ele><time>2026-05-02T09:50:02Z</time></trkpt><trkpt lat="42.24131627571246" lon="13.816229552462493"><ele>329.0</ele><time>2026-05-02T09:50:03Z</time></trkpt><trkpt lat="42.24139832900431" lon="13.816185647881605"><ele>329.0</ele><time>2026-05-02T09:50:04Z</time></trkpt><trkpt lat="42.24147654879207" lon="13.816118136001013"><ele>329.0</ele><time>2026-05-02T09:50:05Z</time></trkpt><trkpt lat="42.241554819959156" lon="13.816027471694339"><ele>327.6666666666667</ele><time>2026-05-02T09:50:06Z</time></trkpt><trkpt lat="42.24161669946857" lon="13.815929240770329"><ele>326.33333333333337</ele><time>2026-05-02T09:50:07Z</time></trkpt><trkpt lat="42.24165605825481" lon="13.815838092600309"><ele>325.0</ele><time>2026-05-02T09:50:08Z</time></trkpt><trkpt lat="42.241670331132" lon="13.815750231108817"><ele>323.6666666666667</ele><time>2026-05-02T09:50:09Z</time></trkpt><trkpt lat="42.24166313946064" lon="13.81564912234203"><ele>322.3333333333333</ele><time>2026-05-02T09:50:10Z</time></trkpt><trkpt lat="42.241660835520925" lon="13.815523023866968"><ele>321.0</ele><time>2026-05-02T09:50:11Z</time></trkpt><trkpt lat="42.2416831403713" lon="13.81537972736724"><ele>321.0</ele><time>2026-05-02T09:50:12Z</time></trkpt><trkpt lat="42.241745387663066" lon="13.815243149943392"><ele>321.0</ele><time>2026-05-02T09:50:13Z</time></trkpt><trkpt lat="42.241801288525366" lon="13.815136921155915"><ele>321.0</ele><time>2026-05-02T09:50:14Z</time></trkpt><trkpt lat="42.24184859101742" lon="13.815062127891585"><ele>321.0</ele><time>2026-05-02T09:50:15Z</time></trkpt><trkpt lat="42.24189597872676" lon="13.814984325336166"><ele>321.0</ele><time>2026-05-02T09:50:16Z</time></trkpt><trkpt lat="42.241941093000605" lon="13.814829400630178"><ele>320.6</ele><time>2026-05-02T09:50:17Z</time></trkpt><trkpt lat="42.241960201330926" lon="13.814674740020887"><ele>320.20000000000005</ele><time>2026-05-02T09:50:19Z</time></trkpt><trkpt lat="42.24202528558609" lon="13.81457753170692"><ele>319.79999999999995</ele><time>2026-05-02T09:50:21Z</time></trkpt><trkpt lat="42.242133869072056" lon="13.814520140255299"><ele>319.4</ele><time>2026-05-02T09:50:23Z</time></trkpt><trkpt lat="42.242219017245525" lon="13.814497349290384"><ele>319.0</ele><time>2026-05-02T09:50:24Z</time></trkpt><trkpt lat="42.24229028311954" lon="13.814475852271933"><ele>319.2</ele><time>2026-05-02T09:50:25Z</time></trkpt><trkpt lat="42.24236552372626" lon="13.81441976834725"><ele>319.4</ele><time>2026-05-02T09:50:26Z</time></trkpt><trkpt lat="42.24244357393071" lon="13.814336136363409"><ele>319.6</ele><time>2026-05-02T09:50:27Z</time></trkpt><trkpt lat="42.24252067737608" lon="13.814248451045987"><ele>319.8</ele><time>2026-05-02T09:50:28Z</time></trkpt><trkpt lat="42.24262167294464" lon="13.814150337628307"><ele>320.0</ele><time>2026-05-02T09:50:29Z</time></trkpt><trkpt lat="42.242725290016466" lon="13.814047947097965"><ele>320.0</ele><time>2026-05-02T09:50:30Z</time></trkpt><trkpt lat="42.24282644059154" lon="13.81393459085362"><ele>320.0</ele><time>2026-05-02T09:50:31Z</time></trkpt><trkpt lat="42.242922002891454" lon="13.813837280784096"><ele>320.0</ele><time>2026-05-02T09:50:32Z</time></trkpt><trkpt lat="42.243017042432214" lon="13.813732392830875"><ele>320.0</ele><time>2026-05-02T09:50:33Z</time></trkpt><trkpt lat="42.24310618123201" lon="13.813621078284138"><ele>321.25</ele><time>2026-05-02T09:50:34Z</time></trkpt><trkpt lat="42.243197601835455" lon="13.813495540641451"><ele>322.5</ele><time>2026-05-02T09:50:35Z</time></trkpt><trkpt lat="42.243277640254895" lon="13.813383261774586"><ele>323.75</ele><time>2026-05-02T09:50:36Z</time></trkpt><trkpt lat="42.2433660979747" lon="13.813291031126955"><ele>325.0</ele><time>2026-05-02T09:50:37Z</time></trkpt><trkpt lat="42.24344215325951" lon="13.813199643329185"><ele>325.0</ele><time>2026-05-02T09:50:38Z</time></trkpt><trkpt lat="42.24351825032083" lon="13.813104684305182"><ele>325.0</ele><time>2026-05-02T09:50:39Z</time></trkpt><trkpt lat="42.243600910859094" lon="13.81301444896"><ele>325.0</ele><time>2026-05-02T09:50:40Z</time></trkpt><trkpt lat="42.243680863625585" lon="13.812955315540108"><ele>325.0</ele><time>2026-05-02T09:50:41Z</time></trkpt><trkpt lat="42.243768138848225" lon="13.812944495435685"><ele>325.0</ele><time>2026-05-02T09:50:42Z</time></trkpt><trkpt lat="42.243879448120396" lon="13.812909273321997"><ele>326.2</ele><time>2026-05-02T09:50:43Z</time></trkpt><trkpt lat="42.24398652833885" lon="13.81286206417559"><ele>327.4</ele><time>2026-05-02T09:50:44Z</time></trkpt><trkpt lat="42.24407222775137" lon="13.812818342191898"><ele>328.6</ele><time>2026-05-02T09:50:45Z</time></trkpt><trkpt lat="42.244166362171455" lon="13.812796936702592"><ele>329.8</ele><time>2026-05-02T09:50:46Z</time></trkpt><trkpt lat="42.24424566197842" lon="13.812766502503578"><ele>331.0</ele><time>2026-05-02T09:50:47Z</time></trkpt><trkpt lat="42.24432614658379" lon="13.812735640900295"><ele>331.0</ele><time>2026-05-02T09:50:48Z</time></trkpt><trkpt lat="42.244424268163016" lon="13.812697112253453"><ele>331.0</ele><time>2026-05-02T09:50:49Z</time></trkpt><trkpt lat="42.24451049083901" lon="13.812663255910444"><ele>331.0</ele><time>2026-05-02T09:50:50Z</time></trkpt><trkpt lat="42.24460119911928" lon="13.812616773940336"><ele>331.0</ele><time>2026-05-02T09:50:51Z</time></trkpt><trkpt lat="42.24469471086229" lon="13.81258101969285"><ele>331.0</ele><time>2026-05-02T09:50:52Z</time></trkpt><trkpt lat="42.24477627919295" lon="13.812523355494301"><ele>330.4</ele><time>2026-05-02T09:50:53Z</time></trkpt><trkpt lat="42.24485174464228" lon="13.812459908693414"><ele>329.8</ele><time>2026-05-02T09:50:54Z</time></trkpt><trkpt lat="42.2449168648686" lon="13.812376383824668"><ele>329.2</ele><time>2026-05-02T09:50:55Z</time></trkpt><trkpt lat="42.24497700129721" lon="13.812270424549547"><ele>328.59999999999997</ele><time>2026-05-02T09:50:56Z</time></trkpt><trkpt lat="42.24502413234866" lon="13.812155001930021"><ele>328.0</ele><time>2026-05-02T09:50:57Z</time></trkpt><trkpt lat="42.24504409351034" lon="13.812035394147129"><ele>328.0</ele><time>2026-05-02T09:50:58Z</time></trkpt><trkpt lat="42.24505238987852" lon="13.811924113679844"><ele>328.0</ele><time>2026-05-02T09:50:59Z</time></trkpt><trkpt lat="42.2450647838267" lon="13.811820935668155"><ele>328.0</ele><time>2026-05-02T09:51:00Z</time></trkpt><trkpt lat="42.245082069924656" lon="13.811734300238566"><ele>328.0</ele><time>2026-05-02T09:51:01Z</time></trkpt><trkpt lat="42.24510025968189" lon="13.811651590046889"><ele>328.0</ele><time>2026-05-02T09:51:02Z</time></trkpt><trkpt lat="42.245174487000746" lon="13.811531828431313"><ele>328.0</ele><time>2026-05-02T09:51:04Z</time></trkpt><trkpt lat="42.2452380306193" lon="13.811442427876585"><ele>327.2</ele><time>2026-05-02T09:51:06Z</time></trkpt><trkpt lat="42.2453200673363" lon="13.811324711010553"><ele>326.4</ele><time>2026-05-02T09:51:08Z</time></trkpt><trkpt lat="42.24539176247229" lon="13.811263028552647"><ele>325.59999999999997</ele><time>2026-05-02T09:51:09Z</time></trkpt><trkpt lat="42.24546749158336" lon="13.811189750267381"><ele>324.79999999999995</ele><time>2026-05-02T09:51:10Z</time></trkpt><trkpt lat="42.24554109335355" lon="13.811125573331784"><ele>324.0</ele><time>2026-05-02T09:51:11Z</time></trkpt><trkpt lat="42.245610802632626" lon="13.81104883809588"><ele>324.2</ele><time>2026-05-02T09:51:12Z</time></trkpt><trkpt lat="42.24568400418137" lon="13.81096135077093"><ele>324.4</ele><time>2026-05-02T09:51:13Z</time></trkpt><trkpt lat="42.24575970170724" lon="13.810893852292736"><ele>324.6</ele><time>2026-05-02T09:51:14Z</time></trkpt><trkpt lat="42.245828163214235" lon="13.81081212639751"><ele>324.8</ele><time>2026-05-02T09:51:15Z</time></trkpt><trkpt lat="42.245899150058136" lon="13.810726614421437"><ele>325.0</ele><time>2026-05-02T09:51:16Z</time></trkpt><trkpt lat="42.24596324941149" lon="13.810649604318423"><ele>325.0</ele><time>2026-05-02T09:51:17Z</time></trkpt><trkpt lat="42.24603370787224" lon="13.810566032266102"><ele>325.0</ele><time>2026-05-02T09:51:18Z</time></trkpt><trkpt lat="42.24610813989024" lon="13.810476942981738"><ele>325.0</ele><time>2026-05-02T09:51:19Z</time></trkpt><trkpt lat="42.24615845149094" lon="13.810382155539722"><ele>325.0</ele><time>2026-05-02T09:51:20Z</time></trkpt><trkpt lat="42.24623036621136" lon="13.810293437249271"><ele>325.0</ele><time>2026-05-02T09:51:21Z</time></trkpt><trkpt lat="42.24629471186728" lon="13.81019296334253"><ele>325.0</ele><time>2026-05-02T09:51:22Z</time></trkpt><trkpt lat="42.246355096168855" lon="13.81009940936846"><ele>325.0</ele><time>2026-05-02T09:51:23Z</time></trkpt><trkpt lat="42.24640812927073" lon="13.809994359032851"><ele>325.0</ele><time>2026-05-02T09:51:24Z</time></trkpt><trkpt lat="42.246445122640914" lon="13.80987553543723"><ele>325.0</ele><time>2026-05-02T09:51:25Z</time></trkpt><trkpt lat="42.24647508114584" lon="13.809744246171356"><ele>325.0</ele><time>2026-05-02T09:51:26Z</time></trkpt><trkpt lat="42.24651950294906" lon="13.809595681935185"><ele>325.0</ele><time>2026-05-02T09:51:27Z</time></trkpt><trkpt lat="42.24656240565984" lon="13.809431355961163"><ele>325.0</ele><time>2026-05-02T09:51:28Z</time></trkpt><trkpt lat="42.24660083266445" lon="13.809278051059101"><ele>325.0</ele><time>2026-05-02T09:51:29Z</time></trkpt><trkpt lat="42.24664621760236" lon="13.809126934284437"><ele>325.0</ele><time>2026-05-02T09:51:30Z</time></trkpt><trkpt lat="42.24669016393462" lon="13.808970358449448"><ele>325.0</ele><time>2026-05-02T09:51:31Z</time></trkpt><trkpt lat="42.246732047280844" lon="13.808830483687002"><ele>325.0</ele><time>2026-05-02T09:51:32Z</time></trkpt><trkpt lat="42.24675897798378" lon="13.808696992393687"><ele>325.0</ele><time>2026-05-02T09:51:33Z</time></trkpt><trkpt lat="42.24678494343378" lon="13.8085734782643"><ele>325.0</ele><time>2026-05-02T09:51:34Z</time></trkpt><trkpt lat="42.24682063862025" lon="13.80845318934293"><ele>325.0</ele><time>2026-05-02T09:51:35Z</time></trkpt><trkpt lat="42.24682921368134" lon="13.808329427872685"><ele>325.0</ele><time>2026-05-02T09:51:36Z</time></trkpt><trkpt lat="42.24685329147787" lon="13.808207183712943"><ele>325.0</ele><time>2026-05-02T09:51:37Z</time></trkpt><trkpt lat="42.24689201531801" lon="13.808100577811992"><ele>325.0</ele><time>2026-05-02T09:51:38Z</time></trkpt><trkpt lat="42.2469548057155" lon="13.808001762412196"><ele>325.0</ele><time>2026-05-02T09:51:39Z</time></trkpt><trkpt lat="42.247024843893705" lon="13.807904914643444"><ele>325.0</ele><time>2026-05-02T09:51:40Z</time></trkpt><trkpt lat="42.247107463480624" lon="13.807815754267214"><ele>325.0</ele><time>2026-05-02T09:51:41Z</time></trkpt><trkpt lat="42.247188904535705" lon="13.807726175114757"><ele>325.0</ele><time>2026-05-02T09:51:42Z</time></trkpt><trkpt lat="42.247271385959166" lon="13.807643347914881"><ele>325.0</ele><time>2026-05-02T09:51:43Z</time></trkpt><trkpt lat="42.24735273775774" lon="13.80755670584768"><ele>325.0</ele><time>2026-05-02T09:51:44Z</time></trkpt><trkpt lat="42.2474447729655" lon="13.807486442846889"><ele>325.0</ele><time>2026-05-02T09:51:45Z</time></trkpt><trkpt lat="42.247533280467316" lon="13.807430460125419"><ele>325.16666666666663</ele><time>2026-05-02T09:51:46Z</time></trkpt><trkpt lat="42.247607391275125" lon="13.80736079936793"><ele>325.3333333333333</ele><time>2026-05-02T09:51:47Z</time></trkpt><trkpt lat="42.247666246225386" lon="13.80726854718607"><ele>325.5</ele><time>2026-05-02T09:51:48Z</time></trkpt><trkpt lat="42.24769958678381" lon="13.807166488504024"><ele>325.6666666666667</ele><time>2026-05-02T09:51:49Z</time></trkpt><trkpt lat="42.24772292031684" lon="13.807059338216545"><ele>325.83333333333337</ele><time>2026-05-02T09:51:50Z</time></trkpt><trkpt lat="42.247740440294955" lon="13.80694097304759"><ele>326.0</ele><time>2026-05-02T09:51:51Z</time></trkpt><trkpt lat="42.24775786733507" lon="13.806798098553733"><ele>326.0</ele><time>2026-05-02T09:51:52Z</time></trkpt><trkpt lat="42.247774329118926" lon="13.806671469511354"><ele>326.0</ele><time>2026-05-02T09:51:53Z</time></trkpt><trkpt lat="42.24779497020556" lon="13.806562320565636"><ele>326.0</ele><time>2026-05-02T09:51:54Z</time></trkpt><trkpt lat="42.24785045313561" lon="13.806458237006597"><ele>326.0</ele><time>2026-05-02T09:51:55Z</time></trkpt><trkpt lat="42.24790395001487" lon="13.806352871531285"><ele>326.0</ele><time>2026-05-02T09:51:56Z</time></trkpt><trkpt lat="42.24794839047794" lon="13.806236357330985"><ele>326.0</ele><time>2026-05-02T09:51:57Z</time></trkpt><trkpt lat="42.24800242454114" lon="13.806129480913256"><ele>326.0</ele><time>2026-05-02T09:51:58Z</time></trkpt><trkpt lat="42.248064790849114" lon="13.806010708129204"><ele>326.0</ele><time>2026-05-02T09:51:59Z</time></trkpt><trkpt lat="42.248117176396605" lon="13.805892415204749"><ele>326.0</ele><time>2026-05-02T09:52:00Z</time></trkpt><trkpt lat="42.248166518681685" lon="13.805788574547298"><ele>326.0</ele><time>2026-05-02T09:52:01Z</time></trkpt><trkpt lat="42.24824262266532" lon="13.805704669345731"><ele>327.8</ele><time>2026-05-02T09:52:02Z</time></trkpt><trkpt lat="42.24830046928579" lon="13.80560092655427"><ele>329.6</ele><time>2026-05-02T09:52:03Z</time></trkpt><trkpt lat="42.24836209178644" lon="13.805491743810425"><ele>331.4</ele><time>2026-05-02T09:52:04Z</time></trkpt><trkpt lat="42.24842769924435" lon="13.805401656424197"><ele>333.2</ele><time>2026-05-02T09:52:05Z</time></trkpt><trkpt lat="42.24850042107579" lon="13.805341373685891"><ele>335.0</ele><time>2026-05-02T09:52:06Z</time></trkpt><trkpt lat="42.24859380462476" lon="13.80527893285925"><ele>335.0</ele><time>2026-05-02T09:52:07Z</time></trkpt><trkpt lat="42.24868164363922" lon="13.805241642872398"><ele>335.0</ele><time>2026-05-02T09:52:08Z</time></trkpt><trkpt lat="42.24877551736624" lon="13.805219829865893"><ele>335.0</ele><time>2026-05-02T09:52:09Z</time></trkpt><trkpt lat="42.24888059450517" lon="13.8052074259067"><ele>335.0</ele><time>2026-05-02T09:52:10Z</time></trkpt><trkpt lat="42.24897651783264" lon="13.805189155266218"><ele>335.0</ele><time>2026-05-02T09:52:11Z</time></trkpt><trkpt lat="42.24906840190524" lon="13.805140405389954"><ele>335.4</ele><time>2026-05-02T09:52:12Z</time></trkpt><trkpt lat="42.24916468212709" lon="13.805048104050773"><ele>335.8</ele><time>2026-05-02T09:52:13Z</time></trkpt><trkpt lat="42.24924776999827" lon="13.804947267330276"><ele>336.20000000000005</ele><time>2026-05-02T09:52:14Z</time></trkpt><trkpt lat="42.249330381289276" lon="13.804837961459773"><ele>336.6</ele><time>2026-05-02T09:52:15Z</time></trkpt><trkpt lat="42.249414186064925" lon="13.804770426975926"><ele>337.0</ele><time>2026-05-02T09:52:16Z</time></trkpt><trkpt lat="42.24948071154663" lon="13.804739070317813"><ele>337.0</ele><time>2026-05-02T09:52:26Z</time></trkpt><trkpt lat="42.24953096398152" lon="13.804877506666895"><ele>337.0</ele><time>2026-05-02T09:52:28Z</time></trkpt><trkpt lat="42.249609762227976" lon="13.804933920872568"><ele>337.0</ele><time>2026-05-02T09:52:29Z</time></trkpt><trkpt lat="42.24967330084488" lon="13.804984937416942"><ele>337.0</ele><time>2026-05-02T09:52:30Z</time></trkpt><trkpt lat="42.24976066370185" lon="13.805010694822178"><ele>337.0</ele><time>2026-05-02T09:52:31Z</time></trkpt><trkpt lat="42.24985532819326" lon="13.805030413869684"><ele>337.5</ele><time>2026-05-02T09:52:32Z</time></trkpt><trkpt lat="42.24994568269178" lon="13.80503286319879"><ele>338.0</ele><time>2026-05-02T09:52:33Z</time></trkpt><trkpt lat="42.25006495631865" lon="13.805016510806306"><ele>338.5</ele><time>2026-05-02T09:52:34Z</time></trkpt><trkpt lat="42.25020031244895" lon="13.805003146857404"><ele>339.0</ele><time>2026-05-02T09:52:35Z</time></trkpt><trkpt lat="42.250331012935405" lon="13.80499767888492"><ele>339.0</ele><time>2026-05-02T09:52:36Z</time></trkpt><trkpt lat="42.250475980273556" lon="13.804991059295741"><ele>339.0</ele><time>2026-05-02T09:52:37Z</time></trkpt><trkpt lat="42.25062504414839" lon="13.80497946712541"><ele>339.0</ele><time>2026-05-02T09:52:38Z</time></trkpt><trkpt lat="42.25076616276554" lon="13.804960826109141"><ele>339.0</ele><time>2026-05-02T09:52:39Z</time></trkpt><trkpt lat="42.250883549522165" lon="13.804975373885112"><ele>341.0</ele><time>2026-05-02T09:52:40Z</time></trkpt><trkpt lat="42.250992672838294" lon="13.804988594749403"><ele>343.0</ele><time>2026-05-02T09:52:41Z</time></trkpt><trkpt lat="42.25107485332669" lon="13.805061618110237"><ele>345.0</ele><time>2026-05-02T09:52:42Z</time></trkpt><trkpt lat="42.251140226662635" lon="13.805167185410058"><ele>347.0</ele><time>2026-05-02T09:52:43Z</time></trkpt><trkpt lat="42.25118608177816" lon="13.805310158849718"><ele>349.0</ele><time>2026-05-02T09:52:44Z</time></trkpt><trkpt lat="42.25117735215734" lon="13.805485912863535"><ele>349.0</ele><time>2026-05-02T09:52:45Z</time></trkpt><trkpt lat="42.251195800312544" lon="13.805670650521918"><ele>349.0</ele><time>2026-05-02T09:52:46Z</time></trkpt><trkpt lat="42.25123645541039" lon="13.805863211693042"><ele>349.0</ele><time>2026-05-02T09:52:47Z</time></trkpt><trkpt lat="42.25127426511323" lon="13.80606675842685"><ele>349.0</ele><time>2026-05-02T09:52:48Z</time></trkpt><trkpt lat="42.25134467531757" lon="13.806249765426767"><ele>349.0</ele><time>2026-05-02T09:52:49Z</time></trkpt><trkpt lat="42.25143774981922" lon="13.806438839667596"><ele>349.0</ele><time>2026-05-02T09:52:50Z</time></trkpt><trkpt lat="42.25153547681003" lon="13.806640190061021"><ele>349.0</ele><time>2026-05-02T09:52:51Z</time></trkpt><trkpt lat="42.2516283122577" lon="13.806847819992694"><ele>351.66666666666663</ele><time>2026-05-02T09:52:52Z</time></trkpt><trkpt lat="42.25171555865951" lon="13.807050756542537"><ele>354.3333333333333</ele><time>2026-05-02T09:52:53Z</time></trkpt><trkpt lat="42.25179299427052" lon="13.807231505703392"><ele>357.0</ele><time>2026-05-02T09:52:54Z</time></trkpt><trkpt lat="42.2518755841209" lon="13.807419025350365"><ele>357.0</ele><time>2026-05-02T09:52:55Z</time></trkpt><trkpt lat="42.25196348534542" lon="13.80761434156313"><ele>357.0</ele><time>2026-05-02T09:52:56Z</time></trkpt><trkpt lat="42.252049758029735" lon="13.807800987456382"><ele>357.0</ele><time>2026-05-02T09:52:57Z</time></trkpt><trkpt lat="42.252131631985684" lon="13.807968003821118"><ele>357.0</ele><time>2026-05-02T09:52:58Z</time></trkpt><trkpt lat="42.252216785689534" lon="13.808126020051516"><ele>357.0</ele><time>2026-05-02T09:52:59Z</time></trkpt><trkpt lat="42.252299611018906" lon="13.80826769853195"><ele>357.0</ele><time>2026-05-02T09:53:00Z</time></trkpt><trkpt lat="42.252376881725205" lon="13.808394037936283"><ele>357.0</ele><time>2026-05-02T09:53:01Z</time></trkpt><trkpt lat="42.252448361749515" lon="13.808519450148834"><ele>358.8</ele><time>2026-05-02T09:53:02Z</time></trkpt><trkpt lat="42.252526090166214" lon="13.808649503361442"><ele>360.6</ele><time>2026-05-02T09:53:03Z</time></trkpt><trkpt lat="42.25258732484527" lon="13.808754672635997"><ele>362.40000000000003</ele><time>2026-05-02T09:53:04Z</time></trkpt><trkpt lat="42.252630085863814" lon="13.808833789877394"><ele>364.20000000000005</ele><time>2026-05-02T09:53:05Z</time></trkpt><trkpt lat="42.2526963014364" lon="13.808958697675317"><ele>366.0</ele><time>2026-05-02T09:53:07Z</time></trkpt><trkpt lat="42.252734089256634" lon="13.809081301079926"><ele>366.0</ele><time>2026-05-02T09:53:09Z</time></trkpt><trkpt lat="42.2527619105806" lon="13.809159101579562"><ele>366.0</ele><time>2026-05-02T09:53:10Z</time></trkpt><trkpt lat="42.252826457071755" lon="13.809272484734613"><ele>366.0</ele><time>2026-05-02T09:53:11Z</time></trkpt><trkpt lat="42.252909476440486" lon="13.809391899779442"><ele>366.0</ele><time>2026-05-02T09:53:12Z</time></trkpt><trkpt lat="42.25300229422547" lon="13.809508251729032"><ele>366.0</ele><time>2026-05-02T09:53:13Z</time></trkpt><trkpt lat="42.25309929019526" lon="13.809609548739168"><ele>368.25</ele><time>2026-05-02T09:53:14Z</time></trkpt><trkpt lat="42.25318263111047" lon="13.809739025855588"><ele>370.5</ele><time>2026-05-02T09:53:15Z</time></trkpt><trkpt lat="42.253275925271076" lon="13.80985564540372"><ele>372.75</ele><time>2026-05-02T09:53:16Z</time></trkpt><trkpt lat="42.25338373368733" lon="13.809959399919352"><ele>375.0</ele><time>2026-05-02T09:53:17Z</time></trkpt><trkpt lat="42.253486119635895" lon="13.81007882275816"><ele>374.75</ele><time>2026-05-02T09:53:18Z</time></trkpt><trkpt lat="42.25361446664415" lon="13.81017508640768"><ele>374.5</ele><time>2026-05-02T09:53:19Z</time></trkpt><trkpt lat="42.25373449439604" lon="13.810282302760484"><ele>374.25</ele><time>2026-05-02T09:53:20Z</time></trkpt><trkpt lat="42.253831602321284" lon="13.810434040944081"><ele>374.0</ele><time>2026-05-02T09:53:21Z</time></trkpt><trkpt lat="42.25395215977491" lon="13.810576051310873"><ele>376.0</ele><time>2026-05-02T09:53:22Z</time></trkpt><trkpt lat="42.254064648109264" lon="13.810728905158587"><ele>378.0</ele><time>2026-05-02T09:53:23Z</time></trkpt><trkpt lat="42.254170717759116" lon="13.810875030549482"><ele>380.0</ele><time>2026-05-02T09:53:24Z</time></trkpt><trkpt lat="42.254297557961486" lon="13.81096735828363"><ele>380.25</ele><time>2026-05-02T09:53:25Z</time></trkpt><trkpt lat="42.25438368876016" lon="13.811098057250774"><ele>380.5</ele><time>2026-05-02T09:53:26Z</time></trkpt><trkpt lat="42.254461972668025" lon="13.811225096778688"><ele>380.75</ele><time>2026-05-02T09:53:27Z</time></trkpt><trkpt lat="42.254530853399466" lon="13.81136071048468"><ele>381.0</ele><time>2026-05-02T09:53:28Z</time></trkpt><trkpt lat="42.25458097441504" lon="13.811522163730633"><ele>381.0</ele><time>2026-05-02T09:53:29Z</time></trkpt><trkpt lat="42.25462840006886" lon="13.811701118779252"><ele>381.0</ele><time>2026-05-02T09:53:30Z</time></trkpt><trkpt lat="42.25467540568316" lon="13.811860068438786"><ele>381.0</ele><time>2026-05-02T09:53:31Z</time></trkpt><trkpt lat="42.254708199707544" lon="13.81194683736162"><ele>381.0</ele><time>2026-05-02T09:53:32Z</time></trkpt><trkpt lat="42.25475030389312" lon="13.812010762141263"><ele>381.0</ele><time>2026-05-02T09:53:34Z</time></trkpt><trkpt lat="42.25479355595761" lon="13.812089067249872"><ele>383.0</ele><time>2026-05-02T09:53:38Z</time></trkpt><trkpt lat="42.25483922381535" lon="13.812156404817326"><ele>385.0</ele><time>2026-05-02T09:53:39Z</time></trkpt><trkpt lat="42.25490342678602" lon="13.812264223492411"><ele>387.0</ele><time>2026-05-02T09:53:41Z</time></trkpt><trkpt lat="42.25497643265055" lon="13.81241153988842"><ele>389.0</ele><time>2026-05-02T09:53:43Z</time></trkpt><trkpt lat="42.25504412989403" lon="13.812522560250265"><ele>391.0</ele><time>2026-05-02T09:53:45Z</time></trkpt><trkpt lat="42.25496018150282" lon="13.812345962206418"><ele>391.0</ele><time>2026-05-02T09:53:52Z</time></trkpt><trkpt lat="42.254883885491545" lon="13.812252190933167"><ele>391.0</ele><time>2026-05-02T09:53:53Z</time></trkpt><trkpt lat="42.25482279588207" lon="13.812146112699251"><ele>391.0</ele><time>2026-05-02T09:53:54Z</time></trkpt><trkpt lat="42.254768773642844" lon="13.812049240005493"><ele>391.0</ele><time>2026-05-02T09:53:55Z</time></trkpt><trkpt lat="42.25472794725219" lon="13.811976134370516"><ele>391.0</ele><time>2026-05-02T09:53:56Z</time></trkpt><trkpt lat="42.25472222266799" lon="13.811832801328087"><ele>390.6</ele><time>2026-05-02T09:53:58Z</time></trkpt><trkpt lat="42.25480746213603" lon="13.811676713130684"><ele>390.20000000000005</ele><time>2026-05-02T09:54:00Z</time></trkpt><trkpt lat="42.25487771608599" lon="13.811581996125392"><ele>389.79999999999995</ele><time>2026-05-02T09:54:01Z</time></trkpt><trkpt lat="42.25495381443653" lon="13.811479686938315"><ele>389.4</ele><time>2026-05-02T09:54:02Z</time></trkpt><trkpt lat="42.255016764916846" lon="13.811381786797256"><ele>389.0</ele><time>2026-05-02T09:54:03Z</time></trkpt><trkpt lat="42.255078206685795" lon="13.811263346522264"><ele>389.0</ele><time>2026-05-02T09:54:04Z</time></trkpt><trkpt lat="42.25514291676771" lon="13.811137425147054"><ele>389.0</ele><time>2026-05-02T09:54:05Z</time></trkpt><trkpt lat="42.255193665641" lon="13.811028889709661"><ele>389.0</ele><time>2026-05-02T09:54:06Z</time></trkpt><trkpt lat="42.2552330559764" lon="13.81091778892245"><ele>389.0</ele><time>2026-05-02T09:54:07Z</time></trkpt><trkpt lat="42.255275471233126" lon="13.810794896059157"><ele>389.0</ele><time>2026-05-02T09:54:08Z</time></trkpt><trkpt lat="42.25531243389223" lon="13.810676990099697"><ele>388.79999999999995</ele><time>2026-05-02T09:54:09Z</time></trkpt><trkpt lat="42.25535052815108" lon="13.810571134958947"><ele>388.59999999999997</ele><time>2026-05-02T09:54:10Z</time></trkpt><trkpt lat="42.25540022174624" lon="13.810459340542714"><ele>388.4</ele><time>2026-05-02T09:54:11Z</time></trkpt><trkpt lat="42.25547696398988" lon="13.810342678148555"><ele>388.2</ele><time>2026-05-02T09:54:12Z</time></trkpt><trkpt lat="42.255560571232536" lon="13.810218622292913"><ele>388.0</ele><time>2026-05-02T09:54:13Z</time></trkpt><trkpt lat="42.255648855015856" lon="13.81011187804516"><ele>388.0</ele><time>2026-05-02T09:54:14Z</time></trkpt><trkpt lat="42.25573214493516" lon="13.810012231514143"><ele>388.0</ele><time>2026-05-02T09:54:15Z</time></trkpt><trkpt lat="42.25579933781495" lon="13.809879339041402"><ele>388.0</ele><time>2026-05-02T09:54:16Z</time></trkpt><trkpt lat="42.25586118387695" lon="13.809751545925518"><ele>388.0</ele><time>2026-05-02T09:54:17Z</time></trkpt><trkpt lat="42.25594138560925" lon="13.809610759970528"><ele>388.0</ele><time>2026-05-02T09:54:18Z</time></trkpt><trkpt lat="42.25602024639005" lon="13.809469925533651"><ele>388.0</ele><time>2026-05-02T09:54:19Z</time></trkpt><trkpt lat="42.256103085941284" lon="13.809338553216179"><ele>388.0</ele><time>2026-05-02T09:54:20Z</time></trkpt><trkpt lat="42.25617169361152" lon="13.809200272428448"><ele>388.0</ele><time>2026-05-02T09:54:21Z</time></trkpt><trkpt lat="42.256255816957506" lon="13.809092160927637"><ele>387.79999999999995</ele><time>2026-05-02T09:54:22Z</time></trkpt><trkpt lat="42.25633183332328" lon="13.809004800859634"><ele>387.6</ele><time>2026-05-02T09:54:23Z</time></trkpt><trkpt lat="42.25641291228037" lon="13.808906735395885"><ele>387.4</ele><time>2026-05-02T09:54:24Z</time></trkpt><trkpt lat="42.25650755876225" lon="13.808809967525967"><ele>387.20000000000005</ele><time>2026-05-02T09:54:25Z</time></trkpt><trkpt lat="42.256586436006536" lon="13.808709673652903"><ele>387.0</ele><time>2026-05-02T09:54:26Z</time></trkpt><trkpt lat="42.256656539687235" lon="13.808631338486359"><ele>387.0</ele><time>2026-05-02T09:54:27Z</time></trkpt><trkpt lat="42.25673573243404" lon="13.808574365336593"><ele>387.0</ele><time>2026-05-02T09:54:28Z</time></trkpt><trkpt lat="42.25682213965508" lon="13.808521068742412"><ele>387.0</ele><time>2026-05-02T09:54:29Z</time></trkpt><trkpt lat="42.256909158034645" lon="13.80844619719495"><ele>387.0</ele><time>2026-05-02T09:54:30Z</time></trkpt><trkpt lat="42.25700493811653" lon="13.808362238529218"><ele>387.0</ele><time>2026-05-02T09:54:31Z</time></trkpt><trkpt lat="42.257116642579874" lon="13.80826038114302"><ele>386.25</ele><time>2026-05-02T09:54:32Z</time></trkpt><trkpt lat="42.257227011603035" lon="13.808155644094283"><ele>385.5</ele><time>2026-05-02T09:54:33Z</time></trkpt><trkpt lat="42.25733687504737" lon="13.80804679171381"><ele>384.75</ele><time>2026-05-02T09:54:34Z</time></trkpt><trkpt lat="42.25745895652083" lon="13.807950282588067"><ele>384.0</ele><time>2026-05-02T09:54:35Z</time></trkpt><trkpt lat="42.25758434251583" lon="13.80786548775659"><ele>384.0</ele><time>2026-05-02T09:54:36Z</time></trkpt><trkpt lat="42.25771024033475" lon="13.807777949421693"><ele>384.0</ele><time>2026-05-02T09:54:37Z</time></trkpt><trkpt lat="42.25782850216662" lon="13.807682360655752"><ele>384.0</ele><time>2026-05-02T09:54:38Z</time></trkpt><trkpt lat="42.25792632916539" lon="13.80758128311821"><ele>384.0</ele><time>2026-05-02T09:54:39Z</time></trkpt><trkpt lat="42.258030271403435" lon="13.8074841649465"><ele>382.5</ele><time>2026-05-02T09:54:40Z</time></trkpt><trkpt lat="42.258141555165864" lon="13.807387764351049"><ele>381.0</ele><time>2026-05-02T09:54:41Z</time></trkpt><trkpt lat="42.25827453668506" lon="13.807305669058739"><ele>379.5</ele><time>2026-05-02T09:54:42Z</time></trkpt><trkpt lat="42.25840984351222" lon="13.807241641205273"><ele>378.0</ele><time>2026-05-02T09:54:43Z</time></trkpt><trkpt lat="42.25854593182777" lon="13.807203071862924"><ele>378.0</ele><time>2026-05-02T09:54:44Z</time></trkpt><trkpt lat="42.258674833053725" lon="13.807180243694804"><ele>378.0</ele><time>2026-05-02T09:54:45Z</time></trkpt><trkpt lat="42.258790950766446" lon="13.807138878493978"><ele>378.0</ele><time>2026-05-02T09:54:46Z</time></trkpt><trkpt lat="42.258918324635104" lon="13.807084096265351"><ele>378.0</ele><time>2026-05-02T09:54:47Z</time></trkpt><trkpt lat="42.259045782895605" lon="13.807027993576193"><ele>377.75</ele><time>2026-05-02T09:54:48Z</time></trkpt><trkpt lat="42.25915918347961" lon="13.806969753641896"><ele>377.5</ele><time>2026-05-02T09:54:49Z</time></trkpt><trkpt lat="42.25926642342636" lon="13.80688853466508"><ele>377.25</ele><time>2026-05-02T09:54:50Z</time></trkpt><trkpt lat="42.25939076409736" lon="13.806793960373318"><ele>377.0</ele><time>2026-05-02T09:54:51Z</time></trkpt><trkpt lat="42.25951190862567" lon="13.80671845911054"><ele>377.0</ele><time>2026-05-02T09:54:52Z</time></trkpt><trkpt lat="42.259645911107796" lon="13.806658059089035"><ele>377.0</ele><time>2026-05-02T09:54:53Z</time></trkpt><trkpt lat="42.259769571055664" lon="13.806599102111429"><ele>377.0</ele><time>2026-05-02T09:54:54Z</time></trkpt><trkpt lat="42.259885889073104" lon="13.806539899047548"><ele>377.0</ele><time>2026-05-02T09:54:55Z</time></trkpt><trkpt lat="42.260014219193" lon="13.806466722328818"><ele>377.0</ele><time>2026-05-02T09:54:56Z</time></trkpt><trkpt lat="42.26012024301365" lon="13.80639221891585"><ele>377.0</ele><time>2026-05-02T09:54:57Z</time></trkpt><trkpt lat="42.26022190630925" lon="13.80628021455832"><ele>377.0</ele><time>2026-05-02T09:54:58Z</time></trkpt><trkpt lat="42.26035648165442" lon="13.806177457422596"><ele>377.0</ele><time>2026-05-02T09:54:59Z</time></trkpt><trkpt lat="42.260480240237875" lon="13.806100474305008"><ele>377.0</ele><time>2026-05-02T09:55:00Z</time></trkpt><trkpt lat="42.26058845170707" lon="13.806031721180549"><ele>377.0</ele><time>2026-05-02T09:55:01Z</time></trkpt><trkpt lat="42.26069518827147" lon="13.805961267156889"><ele>377.0</ele><time>2026-05-02T09:55:02Z</time></trkpt><trkpt lat="42.26079342892311" lon="13.805897311846831"><ele>377.0</ele><time>2026-05-02T09:55:03Z</time></trkpt><trkpt lat="42.260886206643264" lon="13.805841172418397"><ele>377.0</ele><time>2026-05-02T09:55:04Z</time></trkpt><trkpt lat="42.26096039049713" lon="13.805802109493339"><ele>376.25</ele><time>2026-05-02T09:55:05Z</time></trkpt><trkpt lat="42.26108187066842" lon="13.805749118500344"><ele>375.5</ele><time>2026-05-02T09:55:07Z</time></trkpt><trkpt lat="42.261163458505116" lon="13.80571347187005"><ele>374.75</ele><time>2026-05-02T09:55:08Z</time></trkpt><trkpt lat="42.261268047579385" lon="13.805664352346241"><ele>374.0</ele><time>2026-05-02T09:55:09Z</time></trkpt><trkpt lat="42.26138802445859" lon="13.805608006067187"><ele>373.25</ele><time>2026-05-02T09:55:10Z</time></trkpt><trkpt lat="42.26152766547338" lon="13.805543891955553"><ele>372.5</ele><time>2026-05-02T09:55:11Z</time></trkpt><trkpt lat="42.2616624096232" lon="13.805487727799695"><ele>371.75</ele><time>2026-05-02T09:55:12Z</time></trkpt><trkpt lat="42.26178581054601" lon="13.805441035587569"><ele>371.0</ele><time>2026-05-02T09:55:13Z</time></trkpt><trkpt lat="42.26189970422568" lon="13.805398530343622"><ele>371.0</ele><time>2026-05-02T09:55:14Z</time></trkpt><trkpt lat="42.2620100631682" lon="13.805357703053216"><ele>371.0</ele><time>2026-05-02T09:55:15Z</time></trkpt><trkpt lat="42.26211356714775" lon="13.80532421966749"><ele>371.0</ele><time>2026-05-02T09:55:16Z</time></trkpt><trkpt lat="42.26219407663739" lon="13.805302971974413"><ele>371.0</ele><time>2026-05-02T09:55:17Z</time></trkpt><trkpt lat="42.262262048882526" lon="13.805298850757323"><ele>371.0</ele><time>2026-05-02T09:55:18Z</time></trkpt><trkpt lat="42.262347253478985" lon="13.805283066018328"><ele>370.8</ele><time>2026-05-02T09:55:20.001Z</time></trkpt><trkpt lat="42.26246126575499" lon="13.805332905145866"><ele>370.6</ele><time>2026-05-02T09:55:22.001Z</time></trkpt><trkpt lat="42.2625431680116" lon="13.805330550376443"><ele>370.4</ele><time>2026-05-02T09:55:23.001Z</time></trkpt><trkpt lat="42.262626964792425" lon="13.805331768181492"><ele>370.2</ele><time>2026-05-02T09:55:24.001Z</time></trkpt><trkpt lat="42.262719143314534" lon="13.805312049079815"><ele>370.0</ele><time>2026-05-02T09:55:25.001Z</time></trkpt><trkpt lat="42.26281859294259" lon="13.805286974411963"><ele>370.0</ele><time>2026-05-02T09:55:26.001Z</time></trkpt><trkpt lat="42.2629332800322" lon="13.805261264016023"><ele>370.0</ele><time>2026-05-02T09:55:27Z</time></trkpt><trkpt lat="42.26306328934295" lon="13.80523352793159"><ele>370.0</ele><time>2026-05-02T09:55:28Z</time></trkpt><trkpt lat="42.26320359693652" lon="13.805203875511676"><ele>370.0</ele><time>2026-05-02T09:55:29Z</time></trkpt><trkpt lat="42.26334856936801" lon="13.805171723545568"><ele>368.75</ele><time>2026-05-02T09:55:30Z</time></trkpt><trkpt lat="42.26348967998749" lon="13.805136895222216"><ele>367.5</ele><time>2026-05-02T09:55:31Z</time></trkpt><trkpt lat="42.26362418784507" lon="13.805103696566386"><ele>366.25</ele><time>2026-05-02T09:55:32Z</time></trkpt><trkpt lat="42.26375022636416" lon="13.805074926982392"><ele>365.0</ele><time>2026-05-02T09:55:33Z</time></trkpt><trkpt lat="42.26387807807363" lon="13.805056603988707"><ele>364.25</ele><time>2026-05-02T09:55:34Z</time></trkpt><trkpt lat="42.264002051718364" lon="13.805051601453096"><ele>363.5</ele><time>2026-05-02T09:55:35Z</time></trkpt><trkpt lat="42.26412904406969" lon="13.805052053176428"><ele>362.75</ele><time>2026-05-02T09:55:36Z</time></trkpt><trkpt lat="42.264253096683305" lon="13.805050012471765"><ele>362.0</ele><time>2026-05-02T09:55:37Z</time></trkpt><trkpt lat="42.26438097736474" lon="13.80503800759696"><ele>362.0</ele><time>2026-05-02T09:55:38Z</time></trkpt><trkpt lat="42.264509791499435" lon="13.8049976492013"><ele>362.0</ele><time>2026-05-02T09:55:39Z</time></trkpt><trkpt lat="42.2646558109549" lon="13.804970657915334"><ele>362.0</ele><time>2026-05-02T09:55:40Z</time></trkpt><trkpt lat="42.26480424631066" lon="13.804939159891644"><ele>362.0</ele><time>2026-05-02T09:55:41Z</time></trkpt><trkpt lat="42.2649479148548" lon="13.804901687258159"><ele>361.0</ele><time>2026-05-02T09:55:42Z</time></trkpt><trkpt lat="42.26508497590971" lon="13.804857508673093"><ele>360.0</ele><time>2026-05-02T09:55:43Z</time></trkpt><trkpt lat="42.26522958581163" lon="13.804806710045982"><ele>359.0</ele><time>2026-05-02T09:55:44Z</time></trkpt><trkpt lat="42.26536822863296" lon="13.804758051594943"><ele>358.0</ele><time>2026-05-02T09:55:45Z</time></trkpt><trkpt lat="42.26549867303371" lon="13.80470832013837"><ele>357.5</ele><time>2026-05-02T09:55:46Z</time></trkpt><trkpt lat="42.265624922763195" lon="13.804661030449942"><ele>357.0</ele><time>2026-05-02T09:55:47Z</time></trkpt><trkpt lat="42.26575114525471" lon="13.804610705083622"><ele>356.5</ele><time>2026-05-02T09:55:48Z</time></trkpt><trkpt lat="42.26587216016443" lon="13.804563730130203"><ele>356.0</ele><time>2026-05-02T09:55:49Z</time></trkpt><trkpt lat="42.26599015295217" lon="13.804520539837279"><ele>356.0</ele><time>2026-05-02T09:55:50Z</time></trkpt><trkpt lat="42.26610153983175" lon="13.804485015269323"><ele>356.0</ele><time>2026-05-02T09:55:51Z</time></trkpt><trkpt lat="42.266209148469436" lon="13.804445060448481"><ele>356.0</ele><time>2026-05-02T09:55:52Z</time></trkpt><trkpt lat="42.26631075362429" lon="13.804388676334899"><ele>356.0</ele><time>2026-05-02T09:55:53Z</time></trkpt><trkpt lat="42.26640952594679" lon="13.804315163342386"><ele>356.0</ele><time>2026-05-02T09:55:54Z</time></trkpt><trkpt lat="42.266519846651484" lon="13.804255496232688"><ele>355.8</ele><time>2026-05-02T09:55:55Z</time></trkpt><trkpt lat="42.26661984497609" lon="13.804169483714583"><ele>355.6</ele><time>2026-05-02T09:55:56Z</time></trkpt><trkpt lat="42.26669589483878" lon="13.804072066969354"><ele>355.4</ele><time>2026-05-02T09:55:57Z</time></trkpt><trkpt lat="42.266777420771184" lon="13.803988382583068"><ele>355.2</ele><time>2026-05-02T09:55:58Z</time></trkpt><trkpt lat="42.26686046023334" lon="13.803922807394413"><ele>355.0</ele><time>2026-05-02T09:55:59Z</time></trkpt><trkpt lat="42.26692995729991" lon="13.803832503785893"><ele>355.0</ele><time>2026-05-02T09:56:00Z</time></trkpt><trkpt lat="42.26699110245699" lon="13.803738981885965"><ele>355.0</ele><time>2026-05-02T09:56:01Z</time></trkpt><trkpt lat="42.267047990165054" lon="13.803650277236791"><ele>355.0</ele><time>2026-05-02T09:56:02Z</time></trkpt><trkpt lat="42.2670970859794" lon="13.80355988860439"><ele>355.0</ele><time>2026-05-02T09:56:03Z</time></trkpt><trkpt lat="42.26714818269196" lon="13.803460159261196"><ele>355.0</ele><time>2026-05-02T09:56:04Z</time></trkpt><trkpt lat="42.26719792816285" lon="13.803355209825497"><ele>355.0</ele><time>2026-05-02T09:56:05Z</time></trkpt><trkpt lat="42.26725293026105" lon="13.803236424669143"><ele>354.8333333333333</ele><time>2026-05-02T09:56:06Z</time></trkpt><trkpt lat="42.26730279454696" lon="13.803123124966824"><ele>354.66666666666663</ele><time>2026-05-02T09:56:07Z</time></trkpt><trkpt lat="42.2673563454375" lon="13.803015747962023"><ele>354.5</ele><time>2026-05-02T09:56:08Z</time></trkpt><trkpt lat="42.26740667478263" lon="13.802914827644187"><ele>354.3333333333333</ele><time>2026-05-02T09:56:09Z</time></trkpt><trkpt lat="42.26745003730644" lon="13.802823896353049"><ele>354.1666666666667</ele><time>2026-05-02T09:56:10Z</time></trkpt><trkpt lat="42.2674912021868" lon="13.802737066540066"><ele>354.0</ele><time>2026-05-02T09:56:12Z</time></trkpt><trkpt lat="42.26752054215245" lon="13.802656772935022"><ele>354.0</ele><time>2026-05-02T09:56:14Z</time></trkpt><trkpt lat="42.26748221419809" lon="13.802553544171802"><ele>354.0</ele><time>2026-05-02T09:56:15Z</time></trkpt><trkpt lat="42.2675323193165" lon="13.802468326128585"><ele>354.0</ele><time>2026-05-02T09:56:16Z</time></trkpt><trkpt lat="42.2676000184628" lon="13.802372167053248"><ele>354.0</ele><time>2026-05-02T09:56:17Z</time></trkpt><trkpt lat="42.26766380815644" lon="13.802282567402528"><ele>354.0</ele><time>2026-05-02T09:56:18Z</time></trkpt><trkpt lat="42.26774257707722" lon="13.802191811216673"><ele>354.0</ele><time>2026-05-02T09:56:19Z</time></trkpt><trkpt lat="42.26781047652831" lon="13.802105807593426"><ele>354.0</ele><time>2026-05-02T09:56:20Z</time></trkpt><trkpt lat="42.267886071025934" lon="13.80200601917832"><ele>354.0</ele><time>2026-05-02T09:56:21Z</time></trkpt><trkpt lat="42.267974488714664" lon="13.80192064197875"><ele>354.0</ele><time>2026-05-02T09:56:22Z</time></trkpt><trkpt lat="42.26805925481423" lon="13.801806575253048"><ele>354.0</ele><time>2026-05-02T09:56:23Z</time></trkpt><trkpt lat="42.26815567810732" lon="13.801710221337759"><ele>353.75</ele><time>2026-05-02T09:56:24Z</time></trkpt><trkpt lat="42.268248051429225" lon="13.801603359232667"><ele>353.5</ele><time>2026-05-02T09:56:25Z</time></trkpt><trkpt lat="42.2683387544262" lon="13.801504746733752"><ele>353.25</ele><time>2026-05-02T09:56:26Z</time></trkpt><trkpt lat="42.26842241715464" lon="13.801415444679051"><ele>353.0</ele><time>2026-05-02T09:56:27Z</time></trkpt><trkpt lat="42.268500795143424" lon="13.801317040413192"><ele>353.0</ele><time>2026-05-02T09:56:28Z</time></trkpt><trkpt lat="42.26859099438851" lon="13.801218876490353"><ele>353.0</ele><time>2026-05-02T09:56:29Z</time></trkpt><trkpt lat="42.26869105567961" lon="13.801117769776242"><ele>353.0</ele><time>2026-05-02T09:56:30Z</time></trkpt><trkpt lat="42.2687823450291" lon="13.801026096498727"><ele>353.0</ele><time>2026-05-02T09:56:31Z</time></trkpt><trkpt lat="42.26887986839235" lon="13.800956886799492"><ele>352.79999999999995</ele><time>2026-05-02T09:56:32Z</time></trkpt><trkpt lat="42.26897778185932" lon="13.800866618431426"><ele>352.6</ele><time>2026-05-02T09:56:33Z</time></trkpt><trkpt lat="42.26907322456191" lon="13.800787167917296"><ele>352.4</ele><time>2026-05-02T09:56:34Z</time></trkpt><trkpt lat="42.26917118668958" lon="13.8007148490201"><ele>352.20000000000005</ele><time>2026-05-02T09:56:35Z</time></trkpt><trkpt lat="42.2692683058382" lon="13.800664790117702"><ele>352.0</ele><time>2026-05-02T09:56:36Z</time></trkpt><trkpt lat="42.269369393907574" lon="13.800623171547075"><ele>352.0</ele><time>2026-05-02T09:56:37Z</time></trkpt><trkpt lat="42.26947175260827" lon="13.800584236569968"><ele>352.0</ele><time>2026-05-02T09:56:38Z</time></trkpt><trkpt lat="42.269565651546834" lon="13.800550928864784"><ele>352.0</ele><time>2026-05-02T09:56:39Z</time></trkpt><trkpt lat="42.26964799505408" lon="13.800469545643638"><ele>352.0</ele><time>2026-05-02T09:56:40Z</time></trkpt><trkpt lat="42.26973629389147" lon="13.80037687537787"><ele>352.0</ele><time>2026-05-02T09:56:41Z</time></trkpt><trkpt lat="42.26982826159534" lon="13.800276400559207"><ele>350.75</ele><time>2026-05-02T09:56:42Z</time></trkpt><trkpt lat="42.269920857868044" lon="13.8001590120246"><ele>349.5</ele><time>2026-05-02T09:56:43Z</time></trkpt><trkpt lat="42.270020822298555" lon="13.800050134291899"><ele>348.25</ele><time>2026-05-02T09:56:44Z</time></trkpt><trkpt lat="42.27011001046922" lon="13.799943523234061"><ele>347.0</ele><time>2026-05-02T09:56:45Z</time></trkpt><trkpt lat="42.270205467403244" lon="13.799872363471664"><ele>347.0</ele><time>2026-05-02T09:56:46Z</time></trkpt><trkpt lat="42.27030190444864" lon="13.799788306155866"><ele>347.0</ele><time>2026-05-02T09:56:47Z</time></trkpt><trkpt lat="42.27039956515896" lon="13.799684951010297"><ele>347.0</ele><time>2026-05-02T09:56:48Z</time></trkpt><trkpt lat="42.27050448524735" lon="13.79962581951632"><ele>347.0</ele><time>2026-05-02T09:56:49Z</time></trkpt><trkpt lat="42.27059797219059" lon="13.7995436966835"><ele>347.75</ele><time>2026-05-02T09:56:50Z</time></trkpt><trkpt lat="42.27071664378915" lon="13.799499046657738"><ele>348.5</ele><time>2026-05-02T09:56:51Z</time></trkpt><trkpt lat="42.27083752591132" lon="13.799456828451685"><ele>349.25</ele><time>2026-05-02T09:56:52Z</time></trkpt><trkpt lat="42.2709720603963" lon="13.79939666358833"><ele>350.0</ele><time>2026-05-02T09:56:53Z</time></trkpt><trkpt lat="42.27109439327284" lon="13.799347039716737"><ele>349.5</ele><time>2026-05-02T09:56:54Z</time></trkpt><trkpt lat="42.271215594118594" lon="13.799281107722953"><ele>349.0</ele><time>2026-05-02T09:56:55Z</time></trkpt><trkpt lat="42.27134990890215" lon="13.79921761977035"><ele>348.5</ele><time>2026-05-02T09:56:56Z</time></trkpt><trkpt lat="42.27147966117535" lon="13.799153817893716"><ele>348.0</ele><time>2026-05-02T09:56:57Z</time></trkpt><trkpt lat="42.27160753007973" lon="13.79911657012657"><ele>348.0</ele><time>2026-05-02T09:56:58Z</time></trkpt><trkpt lat="42.27172041555137" lon="13.799044819065688"><ele>348.0</ele><time>2026-05-02T09:56:59Z</time></trkpt><trkpt lat="42.271849563689116" lon="13.798987615597671"><ele>348.0</ele><time>2026-05-02T09:57:00Z</time></trkpt><trkpt lat="42.27196929801684" lon="13.7989240434691"><ele>348.0</ele><time>2026-05-02T09:57:01Z</time></trkpt><trkpt lat="42.27207375909509" lon="13.798843350468738"><ele>348.0</ele><time>2026-05-02T09:57:02Z</time></trkpt><trkpt lat="42.27218293346236" lon="13.798778469981881"><ele>348.0</ele><time>2026-05-02T09:57:03Z</time></trkpt><trkpt lat="42.272290878573656" lon="13.798715083249132"><ele>348.0</ele><time>2026-05-02T09:57:04Z</time></trkpt><trkpt lat="42.27239583486851" lon="13.79863301889083"><ele>348.0</ele><time>2026-05-02T09:57:05Z</time></trkpt><trkpt lat="42.27249358531614" lon="13.798546364334854"><ele>347.75</ele><time>2026-05-02T09:57:06Z</time></trkpt><trkpt lat="42.27260366484417" lon="13.798480723541747"><ele>347.5</ele><time>2026-05-02T09:57:07Z</time></trkpt><trkpt lat="42.27271298204503" lon="13.7983952779669"><ele>347.25</ele><time>2026-05-02T09:57:08Z</time></trkpt><trkpt lat="42.272819049889854" lon="13.798290628577165"><ele>347.0</ele><time>2026-05-02T09:57:09Z</time></trkpt><trkpt lat="42.27292560565852" lon="13.79821345582656"><ele>347.0</ele><time>2026-05-02T09:57:10Z</time></trkpt><trkpt lat="42.27302157656356" lon="13.798135260579565"><ele>347.0</ele><time>2026-05-02T09:57:11Z</time></trkpt><trkpt lat="42.27313182533122" lon="13.798072036025388"><ele>347.0</ele><time>2026-05-02T09:57:12Z</time></trkpt><trkpt lat="42.27325105897491" lon="13.797990719952242"><ele>347.0</ele><time>2026-05-02T09:57:13Z</time></trkpt><trkpt lat="42.27336908063793" lon="13.797921597403043"><ele>346.5</ele><time>2026-05-02T09:57:14Z</time></trkpt><trkpt lat="42.2734795154858" lon="13.797851586490097"><ele>346.0</ele><time>2026-05-02T09:57:15Z</time></trkpt><trkpt lat="42.27360157133129" lon="13.797765180731282"><ele>345.5</ele><time>2026-05-02T09:57:16Z</time></trkpt><trkpt lat="42.273725497233684" lon="13.79767725779636"><ele>345.0</ele><time>2026-05-02T09:57:17Z</time></trkpt><trkpt lat="42.273837551517" lon="13.79759836484286"><ele>345.5</ele><time>2026-05-02T09:57:18Z</time></trkpt><trkpt lat="42.273950254282276" lon="13.797538363892082"><ele>346.0</ele><time>2026-05-02T09:57:19Z</time></trkpt><trkpt lat="42.27403761187701" lon="13.797477337141192"><ele>346.5</ele><time>2026-05-02T09:57:20.001Z</time></trkpt><trkpt lat="42.2741407179953" lon="13.797377978288614"><ele>347.0</ele><time>2026-05-02T09:57:21.001Z</time></trkpt><trkpt lat="42.27423954100245" lon="13.797305855463039"><ele>347.0</ele><time>2026-05-02T09:57:22.001Z</time></trkpt><trkpt lat="42.27432756726285" lon="13.797215272343003"><ele>347.0</ele><time>2026-05-02T09:57:23.001Z</time></trkpt><trkpt lat="42.27441576808662" lon="13.797120787052501"><ele>347.0</ele><time>2026-05-02T09:57:24.001Z</time></trkpt><trkpt lat="42.274514937764486" lon="13.797038701950576"><ele>347.0</ele><time>2026-05-02T09:57:25.001Z</time></trkpt><trkpt lat="42.27462520185453" lon="13.796962152182171"><ele>347.0</ele><time>2026-05-02T09:57:26.001Z</time></trkpt><trkpt lat="42.27472656147931" lon="13.796888446946259"><ele>347.0</ele><time>2026-05-02T09:57:27.001Z</time></trkpt><trkpt lat="42.27481665215017" lon="13.796797278687242"><ele>347.0</ele><time>2026-05-02T09:57:28.001Z</time></trkpt><trkpt lat="42.27490657502224" lon="13.796729030780423"><ele>347.0</ele><time>2026-05-02T09:57:29.001Z</time></trkpt><trkpt lat="42.27501003455646" lon="13.796683931040725"><ele>347.0</ele><time>2026-05-02T09:57:30.001Z</time></trkpt><trkpt lat="42.27510090154958" lon="13.796582407038413"><ele>347.0</ele><time>2026-05-02T09:57:31.001Z</time></trkpt><trkpt lat="42.27517641226155" lon="13.796492338568244"><ele>347.0</ele><time>2026-05-02T09:57:32.001Z</time></trkpt><trkpt lat="42.275252426477614" lon="13.796383631516852"><ele>347.0</ele><time>2026-05-02T09:57:33Z</time></trkpt><trkpt lat="42.27534266814192" lon="13.796298580447337"><ele>347.0</ele><time>2026-05-02T09:57:34Z</time></trkpt><trkpt lat="42.2754449078199" lon="13.796252947286204"><ele>347.0</ele><time>2026-05-02T09:57:35Z</time></trkpt><trkpt lat="42.27555548296817" lon="13.796223751927187"><ele>347.0</ele><time>2026-05-02T09:57:36Z</time></trkpt><trkpt lat="42.27564939574889" lon="13.796198392222834"><ele>347.0</ele><time>2026-05-02T09:57:37Z</time></trkpt><trkpt lat="42.27573667058957" lon="13.796150549348829"><ele>347.0</ele><time>2026-05-02T09:57:38Z</time></trkpt><trkpt lat="42.27582434661416" lon="13.796074441008203"><ele>347.0</ele><time>2026-05-02T09:57:39Z</time></trkpt><trkpt lat="42.27592436363452" lon="13.795990807443022"><ele>347.0</ele><time>2026-05-02T09:57:40Z</time></trkpt><trkpt lat="42.27602621721751" lon="13.795894879287951"><ele>347.0</ele><time>2026-05-02T09:57:41Z</time></trkpt><trkpt lat="42.27610668561953" lon="13.795779614000669"><ele>347.0</ele><time>2026-05-02T09:57:42Z</time></trkpt><trkpt lat="42.27620964537131" lon="13.795668355307841"><ele>347.0</ele><time>2026-05-02T09:57:43Z</time></trkpt><trkpt lat="42.276302071460584" lon="13.795560411762363"><ele>347.0</ele><time>2026-05-02T09:57:44Z</time></trkpt><trkpt lat="42.27639884602922" lon="13.795474881627566"><ele>349.25</ele><time>2026-05-02T09:57:45Z</time></trkpt><trkpt lat="42.27649419766979" lon="13.79540268248098"><ele>351.5</ele><time>2026-05-02T09:57:46Z</time></trkpt><trkpt lat="42.27658784858896" lon="13.795319445293694"><ele>353.75</ele><time>2026-05-02T09:57:47Z</time></trkpt><trkpt lat="42.276704509249946" lon="13.795284898571328"><ele>356.0</ele><time>2026-05-02T09:57:48Z</time></trkpt><trkpt lat="42.27680958122262" lon="13.795225969739723"><ele>356.0</ele><time>2026-05-02T09:57:49Z</time></trkpt><trkpt lat="42.276928333137754" lon="13.79518635363747"><ele>356.0</ele><time>2026-05-02T09:57:50Z</time></trkpt><trkpt lat="42.27704419534705" lon="13.795173920027011"><ele>356.0</ele><time>2026-05-02T09:57:51Z</time></trkpt><trkpt lat="42.27715197500795" lon="13.795157096096851"><ele>356.0</ele><time>2026-05-02T09:57:52Z</time></trkpt><trkpt lat="42.27726402601285" lon="13.795126951265889"><ele>354.6</ele><time>2026-05-02T09:57:53Z</time></trkpt><trkpt lat="42.27737047551385" lon="13.795127082590364"><ele>353.20000000000005</ele><time>2026-05-02T09:57:54Z</time></trkpt><trkpt lat="42.27746418931768" lon="13.795104100492722"><ele>351.79999999999995</ele><time>2026-05-02T09:57:55Z</time></trkpt><trkpt lat="42.277552189462924" lon="13.795078824920745"><ele>350.4</ele><time>2026-05-02T09:57:56Z</time></trkpt><trkpt lat="42.277642434597915" lon="13.795074787006184"><ele>349.0</ele><time>2026-05-02T09:57:57Z</time></trkpt><trkpt lat="42.277746844511846" lon="13.795086272970405"><ele>349.0</ele><time>2026-05-02T09:57:58Z</time></trkpt><trkpt lat="42.277850026832866" lon="13.795103076766532"><ele>349.0</ele><time>2026-05-02T09:57:59Z</time></trkpt><trkpt lat="42.277962240113176" lon="13.7951543594808"><ele>349.0</ele><time>2026-05-02T09:58:00Z</time></trkpt><trkpt lat="42.27808127499573" lon="13.795176070300295"><ele>349.0</ele><time>2026-05-02T09:58:01Z</time></trkpt><trkpt lat="42.278203865327676" lon="13.795215773271622"><ele>350.5</ele><time>2026-05-02T09:58:02Z</time></trkpt><trkpt lat="42.278329779957126" lon="13.795242197366935"><ele>352.0</ele><time>2026-05-02T09:58:03Z</time></trkpt><trkpt lat="42.27844715392624" lon="13.795269602120118"><ele>353.5</ele><time>2026-05-02T09:58:04Z</time></trkpt><trkpt lat="42.278561134055536" lon="13.795292228941777"><ele>355.0</ele><time>2026-05-02T09:58:05Z</time></trkpt><trkpt lat="42.27866548323074" lon="13.79531198200697"><ele>355.0</ele><time>2026-05-02T09:58:06Z</time></trkpt><trkpt lat="42.278755008527085" lon="13.795310959442654"><ele>355.0</ele><time>2026-05-02T09:58:07Z</time></trkpt><trkpt lat="42.278838237070275" lon="13.795293771017413"><ele>355.0</ele><time>2026-05-02T09:58:08Z</time></trkpt><trkpt lat="42.27892781878861" lon="13.795260391127409"><ele>355.0</ele><time>2026-05-02T09:58:09Z</time></trkpt><trkpt lat="42.27902497298313" lon="13.795233124704893"><ele>355.0</ele><time>2026-05-02T09:58:10Z</time></trkpt><trkpt lat="42.27911947457653" lon="13.795194020525694"><ele>354.25</ele><time>2026-05-02T09:58:11Z</time></trkpt><trkpt lat="42.279230808389805" lon="13.795191211765665"><ele>353.5</ele><time>2026-05-02T09:58:12Z</time></trkpt><trkpt lat="42.279334753853256" lon="13.795136967782403"><ele>352.75</ele><time>2026-05-02T09:58:13Z</time></trkpt><trkpt lat="42.279443044553545" lon="13.795079314033158"><ele>352.0</ele><time>2026-05-02T09:58:14Z</time></trkpt><trkpt lat="42.279542470359566" lon="13.79499695116045"><ele>349.5</ele><time>2026-05-02T09:58:15Z</time></trkpt><trkpt lat="42.27963681215365" lon="13.79491609778204"><ele>347.0</ele><time>2026-05-02T09:58:16Z</time></trkpt><trkpt lat="42.27972783994522" lon="13.794829436019478"><ele>344.5</ele><time>2026-05-02T09:58:17Z</time></trkpt><trkpt lat="42.27984426925896" lon="13.794723008240357"><ele>342.0</ele><time>2026-05-02T09:58:18Z</time></trkpt><trkpt lat="42.279980072761845" lon="13.794602988164906"><ele>342.0</ele><time>2026-05-02T09:58:19Z</time></trkpt><trkpt lat="42.28012198306947" lon="13.794473888376515"><ele>342.0</ele><time>2026-05-02T09:58:20Z</time></trkpt><trkpt lat="42.280270322962245" lon="13.794338069878691"><ele>342.0</ele><time>2026-05-02T09:58:21Z</time></trkpt><trkpt lat="42.28041317682424" lon="13.794209519960356"><ele>342.0</ele><time>2026-05-02T09:58:22Z</time></trkpt><trkpt lat="42.28057367487727" lon="13.794100971772476"><ele>342.0</ele><time>2026-05-02T09:58:23Z</time></trkpt><trkpt lat="42.28072821865477" lon="13.793984427325382"><ele>342.0</ele><time>2026-05-02T09:58:24Z</time></trkpt><trkpt lat="42.28087753772691" lon="13.793885592070351"><ele>342.0</ele><time>2026-05-02T09:58:25Z</time></trkpt><trkpt lat="42.28102031491557" lon="13.793802326868235"><ele>342.0</ele><time>2026-05-02T09:58:26Z</time></trkpt><trkpt lat="42.281164486293754" lon="13.793706673340973"><ele>342.0</ele><time>2026-05-02T09:58:27Z</time></trkpt><trkpt lat="42.281307081904835" lon="13.793632569048759"><ele>342.0</ele><time>2026-05-02T09:58:28Z</time></trkpt><trkpt lat="42.28144414803768" lon="13.793584239065586"><ele>342.0</ele><time>2026-05-02T09:58:29Z</time></trkpt><trkpt lat="42.28156112138836" lon="13.793513684026943"><ele>342.0</ele><time>2026-05-02T09:58:30Z</time></trkpt><trkpt lat="42.281664741594874" lon="13.79341667950147"><ele>342.0</ele><time>2026-05-02T09:58:31Z</time></trkpt><trkpt lat="42.28176702511964" lon="13.793342102345102"><ele>342.0</ele><time>2026-05-02T09:58:32Z</time></trkpt><trkpt lat="42.281870301574216" lon="13.793269750295389"><ele>342.0</ele><time>2026-05-02T09:58:33Z</time></trkpt><trkpt lat="42.28196820908309" lon="13.79318678989792"><ele>342.0</ele><time>2026-05-02T09:58:34Z</time></trkpt><trkpt lat="42.28207707981052" lon="13.793126443681174"><ele>342.0</ele><time>2026-05-02T09:58:35Z</time></trkpt><trkpt lat="42.282180030197715" lon="13.793010995971267"><ele>342.25</ele><time>2026-05-02T09:58:36Z</time></trkpt><trkpt lat="42.28229316545831" lon="13.792902029396027"><ele>342.5</ele><time>2026-05-02T09:58:37Z</time></trkpt><trkpt lat="42.282401123815895" lon="13.792773778457553"><ele>342.75</ele><time>2026-05-02T09:58:38Z</time></trkpt><trkpt lat="42.28250228371185" lon="13.79266178828183"><ele>343.0</ele><time>2026-05-02T09:58:39Z</time></trkpt><trkpt lat="42.28257135767296" lon="13.79254137102812"><ele>343.0</ele><time>2026-05-02T09:58:40Z</time></trkpt><trkpt lat="42.282616656210664" lon="13.792423035110545"><ele>343.0</ele><time>2026-05-02T09:58:41Z</time></trkpt><trkpt lat="42.28263552823692" lon="13.792309728816837"><ele>343.0</ele><time>2026-05-02T09:58:42Z</time></trkpt><trkpt lat="42.28262239726484" lon="13.792212704185777"><ele>343.0</ele><time>2026-05-02T09:58:44Z</time></trkpt><trkpt lat="42.28265745665472" lon="13.792138538915244"><ele>343.0</ele><time>2026-05-02T09:58:47Z</time></trkpt><trkpt lat="42.28274053225924" lon="13.792148940834016"><ele>343.0</ele><time>2026-05-02T09:58:48Z</time></trkpt><trkpt lat="42.28279272631536" lon="13.792070480769107"><ele>343.0</ele><time>2026-05-02T09:58:49Z</time></trkpt><trkpt lat="42.28285888051552" lon="13.792010336007035"><ele>343.0</ele><time>2026-05-02T09:58:50Z</time></trkpt><trkpt lat="42.28294042960804" lon="13.791936353848227"><ele>343.0</ele><time>2026-05-02T09:58:51Z</time></trkpt><trkpt lat="42.28303077622546" lon="13.791851647213127"><ele>343.0</ele><time>2026-05-02T09:58:52Z</time></trkpt><trkpt lat="42.28312893068032" lon="13.791785078400181"><ele>343.0</ele><time>2026-05-02T09:58:53Z</time></trkpt><trkpt lat="42.28323120096579" lon="13.791698655570466"><ele>344.0</ele><time>2026-05-02T09:58:54Z</time></trkpt><trkpt lat="42.283342403797654" lon="13.791607740116385"><ele>345.0</ele><time>2026-05-02T09:58:55Z</time></trkpt><trkpt lat="42.283457547361905" lon="13.791513829550615"><ele>346.0</ele><time>2026-05-02T09:58:56Z</time></trkpt><trkpt lat="42.28356094803343" lon="13.791429496324282"><ele>347.0</ele><time>2026-05-02T09:58:57Z</time></trkpt><trkpt lat="42.28362495147805" lon="13.79135424515118"><ele>347.0</ele><time>2026-05-02T09:58:58Z</time></trkpt><trkpt lat="42.28368815423572" lon="13.791314514576136"><ele>347.0</ele><time>2026-05-02T09:58:59Z</time></trkpt><trkpt lat="42.283750487599065" lon="13.791276360975562"><ele>347.0</ele><time>2026-05-02T09:59:01Z</time></trkpt><trkpt lat="42.28363682578086" lon="13.79110243602479"><ele>347.0</ele><time>2026-05-02T09:59:03Z</time></trkpt><trkpt lat="42.28356273299142" lon="13.791027503060498"><ele>347.0</ele><time>2026-05-02T09:59:04Z</time></trkpt><trkpt lat="42.283481985633266" lon="13.79092563400032"><ele>347.25</ele><time>2026-05-02T09:59:05Z</time></trkpt><trkpt lat="42.283379179007945" lon="13.790818760727097"><ele>347.5</ele><time>2026-05-02T09:59:06Z</time></trkpt><trkpt lat="42.28327861259156" lon="13.790694050633286"><ele>347.75</ele><time>2026-05-02T09:59:07Z</time></trkpt><trkpt lat="42.28318982168367" lon="13.790562764772547"><ele>348.0</ele><time>2026-05-02T09:59:08Z</time></trkpt><trkpt lat="42.28311980096593" lon="13.790461741925675"><ele>346.79999999999995</ele><time>2026-05-02T09:59:09Z</time></trkpt><trkpt lat="42.28307469587015" lon="13.79038777087684"><ele>345.6</ele><time>2026-05-02T09:59:10Z</time></trkpt><trkpt lat="42.28303696083422" lon="13.79023308111648"><ele>344.4</ele><time>2026-05-02T09:59:12Z</time></trkpt><trkpt lat="42.2830738940277" lon="13.790121091957237"><ele>343.20000000000005</ele><time>2026-05-02T09:59:13Z</time></trkpt><trkpt lat="42.28308349131016" lon="13.789990470786956"><ele>342.0</ele><time>2026-05-02T09:59:14Z</time></trkpt><trkpt lat="42.28306962067105" lon="13.789861382235049"><ele>342.0</ele><time>2026-05-02T09:59:16Z</time></trkpt><trkpt lat="42.283093731332464" lon="13.789724672005873"><ele>342.0</ele><time>2026-05-02T09:59:18Z</time></trkpt><trkpt lat="42.28306032723658" lon="13.789602048942335"><ele>342.0</ele><time>2026-05-02T09:59:20Z</time></trkpt><trkpt lat="42.28304820867894" lon="13.789504294002375"><ele>342.0</ele><time>2026-05-02T09:59:21Z</time></trkpt><trkpt lat="42.28298182654932" lon="13.789448106717394"><ele>342.0</ele><time>2026-05-02T09:59:23Z</time></trkpt><trkpt lat="42.28322976807283" lon="13.789183358621308"><ele>342.5</ele><time>2026-05-02T09:59:25Z</time></trkpt><trkpt lat="42.28326680030458" lon="13.789026697887708"><ele>343.0</ele><time>2026-05-02T09:59:27Z</time></trkpt><trkpt lat="42.283292142599976" lon="13.7889423929615"><ele>343.5</ele><time>2026-05-02T09:59:28Z</time></trkpt><trkpt lat="42.28332178675774" lon="13.788849957817224"><ele>344.0</ele><time>2026-05-02T09:59:29Z</time></trkpt><trkpt lat="42.28334031201718" lon="13.788744287797888"><ele>344.5</ele><time>2026-05-02T09:59:30Z</time></trkpt><trkpt lat="42.283362456851684" lon="13.788641279202023"><ele>345.0</ele><time>2026-05-02T09:59:31Z</time></trkpt><trkpt lat="42.283379539161565" lon="13.788540480458774"><ele>344.3333333333333</ele><time>2026-05-02T09:59:32Z</time></trkpt><trkpt lat="42.28339235792861" lon="13.788423597484844"><ele>343.6666666666667</ele><time>2026-05-02T09:59:33Z</time></trkpt><trkpt lat="42.28339809070236" lon="13.788306816956243"><ele>343.0</ele><time>2026-05-02T09:59:34Z</time></trkpt><trkpt lat="42.28339568635314" lon="13.788189584262552"><ele>342.33333333333337</ele><time>2026-05-02T09:59:35Z</time></trkpt><trkpt lat="42.28338504964106" lon="13.78807068728853"><ele>341.6666666666667</ele><time>2026-05-02T09:59:36Z</time></trkpt><trkpt lat="42.28335230605519" lon="13.787944048950449"><ele>341.0</ele><time>2026-05-02T09:59:37Z</time></trkpt><trkpt lat="42.28331038724953" lon="13.787811099562012"><ele>341.0</ele><time>2026-05-02T09:59:38Z</time></trkpt><trkpt lat="42.28325720450233" lon="13.787687823478361"><ele>341.0</ele><time>2026-05-02T09:59:38.999Z</time></trkpt><trkpt lat="42.2831883722007" lon="13.787568118178472"><ele>341.0</ele><time>2026-05-02T09:59:39.999Z</time></trkpt><trkpt lat="42.283128263442336" lon="13.787475061117997"><ele>341.0</ele><time>2026-05-02T09:59:40.999Z</time></trkpt><trkpt lat="42.28307489486535" lon="13.787392827295227"><ele>341.0</ele><time>2026-05-02T09:59:41.999Z</time></trkpt><trkpt lat="42.283028705756294" lon="13.787314616562243"><ele>341.0</ele><time>2026-05-02T09:59:42.999Z</time></trkpt><trkpt lat="42.282986192088394" lon="13.787237761553373"><ele>341.0</ele><time>2026-05-02T09:59:43.999Z</time></trkpt><trkpt lat="42.28294508312333" lon="13.787152317861494"><ele>341.0</ele><time>2026-05-02T09:59:44.999Z</time></trkpt><trkpt lat="42.282887508402716" lon="13.787041830589905"><ele>341.0</ele><time>2026-05-02T09:59:45.999Z</time></trkpt><trkpt lat="42.282832092258076" lon="13.786919573122843"><ele>341.0</ele><time>2026-05-02T09:59:46.999Z</time></trkpt><trkpt lat="42.28276139566932" lon="13.786784492028255"><ele>341.0</ele><time>2026-05-02T09:59:47.999Z</time></trkpt><trkpt lat="42.282691857415834" lon="13.786622867489902"><ele>341.0</ele><time>2026-05-02T09:59:48.999Z</time></trkpt><trkpt lat="42.28262330796042" lon="13.786439802702146"><ele>341.0</ele><time>2026-05-02T09:59:49.999Z</time></trkpt><trkpt lat="42.282553885807324" lon="13.786245547176595"><ele>341.0</ele><time>2026-05-02T09:59:50.999Z</time></trkpt><trkpt lat="42.28249535594514" lon="13.786064698516801"><ele>341.0</ele><time>2026-05-02T09:59:51.999Z</time></trkpt><trkpt lat="42.28243972560695" lon="13.785892843866893"><ele>341.0</ele><time>2026-05-02T09:59:52.999Z</time></trkpt><trkpt lat="42.282374715275644" lon="13.785712438384632"><ele>341.0</ele><time>2026-05-02T09:59:53.999Z</time></trkpt><trkpt lat="42.28231897384463" lon="13.78552758951957"><ele>340.6666666666667</ele><time>2026-05-02T09:59:54.999Z</time></trkpt><trkpt lat="42.28227036300841" lon="13.785326821915051"><ele>340.3333333333333</ele><time>2026-05-02T09:59:55.999Z</time></trkpt><trkpt lat="42.282221503909085" lon="13.785136056641564"><ele>340.0</ele><time>2026-05-02T09:59:56.999Z</time></trkpt><trkpt lat="42.28216694402807" lon="13.784946735250916"><ele>340.0</ele><time>2026-05-02T09:59:57.999Z</time></trkpt><trkpt lat="42.28211685838078" lon="13.784753565970124"><ele>340.0</ele><time>2026-05-02T09:59:58.999Z</time></trkpt><trkpt lat="42.28206463174954" lon="13.784542364813937"><ele>340.0</ele><time>2026-05-02T09:59:59.999Z</time></trkpt><trkpt lat="42.282014583101116" lon="13.784349995734875"><ele>340.0</ele><time>2026-05-02T10:00:00.999Z</time></trkpt><trkpt lat="42.28196499786204" lon="13.784140581418956"><ele>340.0</ele><time>2026-05-02T10:00:01.999Z</time></trkpt><trkpt lat="42.281921806067494" lon="13.783944274717978"><ele>340.0</ele><time>2026-05-02T10:00:02.999Z</time></trkpt><trkpt lat="42.28186966321618" lon="13.783729666279951"><ele>340.0</ele><time>2026-05-02T10:00:03.999Z</time></trkpt><trkpt lat="42.281814104232716" lon="13.783518673379275"><ele>340.0</ele><time>2026-05-02T10:00:04.999Z</time></trkpt><trkpt lat="42.281761010473204" lon="13.7833059176105"><ele>340.0</ele><time>2026-05-02T10:00:05.999Z</time></trkpt><trkpt lat="42.281698938334614" lon="13.783105612406537"><ele>339.66666666666663</ele><time>2026-05-02T10:00:06.999Z</time></trkpt><trkpt lat="42.28163538989125" lon="13.782907694244713"><ele>339.3333333333333</ele><time>2026-05-02T10:00:07.999Z</time></trkpt><trkpt lat="42.28156884369005" lon="13.782713126769691"><ele>339.0</ele><time>2026-05-02T10:00:08.999Z</time></trkpt><trkpt lat="42.281494994013" lon="13.782521074843872"><ele>340.3333333333333</ele><time>2026-05-02T10:00:09.999Z</time></trkpt><trkpt lat="42.28141825958159" lon="13.782327060621267"><ele>341.66666666666663</ele><time>2026-05-02T10:00:10.999Z</time></trkpt><trkpt lat="42.28135044634936" lon="13.782127977326903"><ele>343.0</ele><time>2026-05-02T10:00:11.999Z</time></trkpt><trkpt lat="42.28128760706213" lon="13.781924889159983"><ele>342.66666666666663</ele><time>2026-05-02T10:00:12.999Z</time></trkpt><trkpt lat="42.28122021183237" lon="13.781720957155885"><ele>342.3333333333333</ele><time>2026-05-02T10:00:13.999Z</time></trkpt><trkpt lat="42.28115529929448" lon="13.78152422513515"><ele>342.0</ele><time>2026-05-02T10:00:14.999Z</time></trkpt><trkpt lat="42.28109601549845" lon="13.7813434660685"><ele>342.0</ele><time>2026-05-02T10:00:15.999Z</time></trkpt><trkpt lat="42.281035817875555" lon="13.781152835271847"><ele>342.0</ele><time>2026-05-02T10:00:16.999Z</time></trkpt><trkpt lat="42.28098196768637" lon="13.780954773095717"><ele>342.0</ele><time>2026-05-02T10:00:18Z</time></trkpt><trkpt lat="42.28093236231994" lon="13.780751795446353"><ele>341.75</ele><time>2026-05-02T10:00:19Z</time></trkpt><trkpt lat="42.2808849142426" lon="13.78056584417564"><ele>341.5</ele><time>2026-05-02T10:00:20Z</time></trkpt><trkpt lat="42.28084442884563" lon="13.78038332288838"><ele>341.25</ele><time>2026-05-02T10:00:21Z</time></trkpt><trkpt lat="42.28079775437243" lon="13.780190908939707"><ele>341.0</ele><time>2026-05-02T10:00:22Z</time></trkpt><trkpt lat="42.280760340732186" lon="13.780004233660605"><ele>341.75</ele><time>2026-05-02T10:00:23Z</time></trkpt><trkpt lat="42.28070701911455" lon="13.779838746606115"><ele>342.5</ele><time>2026-05-02T10:00:24Z</time></trkpt><trkpt lat="42.28064714456062" lon="13.779665233640683"><ele>343.25</ele><time>2026-05-02T10:00:25Z</time></trkpt><trkpt lat="42.280568907713494" lon="13.779508927583729"><ele>344.0</ele><time>2026-05-02T10:00:26Z</time></trkpt><trkpt lat="42.28049298481786" lon="13.77934132956562"><ele>344.5</ele><time>2026-05-02T10:00:27Z</time></trkpt><trkpt lat="42.28043763441673" lon="13.779171007630291"><ele>345.0</ele><time>2026-05-02T10:00:28Z</time></trkpt><trkpt lat="42.280398945295474" lon="13.779011400628608"><ele>345.5</ele><time>2026-05-02T10:00:29Z</time></trkpt><trkpt lat="42.280372171689926" lon="13.778840573954465"><ele>346.0</ele><time>2026-05-02T10:00:30Z</time></trkpt><trkpt lat="42.280350799144195" lon="13.778658243481772"><ele>345.66666666666663</ele><time>2026-05-02T10:00:31Z</time></trkpt><trkpt lat="42.28032295047336" lon="13.778461555665954"><ele>345.3333333333333</ele><time>2026-05-02T10:00:32Z</time></trkpt><trkpt lat="42.28030804052021" lon="13.778250973409879"><ele>345.0</ele><time>2026-05-02T10:00:33Z</time></trkpt><trkpt lat="42.28028529113991" lon="13.778032169608077"><ele>345.0</ele><time>2026-05-02T10:00:34Z</time></trkpt><trkpt lat="42.2802585586677" lon="13.777824881480875"><ele>345.0</ele><time>2026-05-02T10:00:35Z</time></trkpt><trkpt lat="42.280229366509886" lon="13.777616655479891"><ele>345.0</ele><time>2026-05-02T10:00:36Z</time></trkpt><trkpt lat="42.280201406004345" lon="13.777409488549702"><ele>345.25</ele><time>2026-05-02T10:00:37Z</time></trkpt><trkpt lat="42.28017383376284" lon="13.777208951466307"><ele>345.5</ele><time>2026-05-02T10:00:38Z</time></trkpt><trkpt lat="42.2801419227733" lon="13.777019865067974"><ele>345.75</ele><time>2026-05-02T10:00:39Z</time></trkpt><trkpt lat="42.28009574616819" lon="13.776827173441873"><ele>346.0</ele><time>2026-05-02T10:00:40Z</time></trkpt><trkpt lat="42.28005396116269" lon="13.776625641911698"><ele>346.0</ele><time>2026-05-02T10:00:41Z</time></trkpt><trkpt lat="42.280016421337045" lon="13.776417304458839"><ele>346.0</ele><time>2026-05-02T10:00:42Z</time></trkpt><trkpt lat="42.279986348739946" lon="13.776206865887847"><ele>346.0</ele><time>2026-05-02T10:00:43Z</time></trkpt><trkpt lat="42.279965505018865" lon="13.776005255751642"><ele>346.20000000000005</ele><time>2026-05-02T10:00:44Z</time></trkpt><trkpt lat="42.27994759318537" lon="13.775816505479721"><ele>346.40000000000003</ele><time>2026-05-02T10:00:45Z</time></trkpt><trkpt lat="42.279945740516965" lon="13.77567112218947"><ele>346.6</ele><time>2026-05-02T10:00:46Z</time></trkpt><trkpt lat="42.279953200315745" lon="13.775555822738264"><ele>346.8</ele><time>2026-05-02T10:00:47Z</time></trkpt><trkpt lat="42.279986452993015" lon="13.775411325309355"><ele>347.0</ele><time>2026-05-02T10:00:49Z</time></trkpt><trkpt lat="42.28010027534493" lon="13.775326516988411"><ele>347.0</ele><time>2026-05-02T10:00:51Z</time></trkpt><trkpt lat="42.28018299338481" lon="13.775276777912"><ele>347.0</ele><time>2026-05-02T10:00:52Z</time></trkpt><trkpt lat="42.28028168745869" lon="13.775217439109403"><ele>347.0</ele><time>2026-05-02T10:00:53Z</time></trkpt><trkpt lat="42.28038728942111" lon="13.775145185945307"><ele>347.0</ele><time>2026-05-02T10:00:54Z</time></trkpt><trkpt lat="42.28050149867838" lon="13.775073253280945"><ele>347.0</ele><time>2026-05-02T10:00:55Z</time></trkpt><trkpt lat="42.28062428824508" lon="13.774992947839158"><ele>347.0</ele><time>2026-05-02T10:00:56Z</time></trkpt><trkpt lat="42.2807468631706" lon="13.774907783292177"><ele>347.0</ele><time>2026-05-02T10:00:57Z</time></trkpt><trkpt lat="42.28086209059487" lon="13.77482635371285"><ele>347.0</ele><time>2026-05-02T10:00:58Z</time></trkpt><trkpt lat="42.28096951681664" lon="13.774753642190014"><ele>347.0</ele><time>2026-05-02T10:00:59Z</time></trkpt><trkpt lat="42.28107215166413" lon="13.774682009839472"><ele>347.0</ele><time>2026-05-02T10:01:00Z</time></trkpt><trkpt lat="42.281168397258824" lon="13.774617567021055"><ele>347.0</ele><time>2026-05-02T10:01:01Z</time></trkpt><trkpt lat="42.281261616147276" lon="13.774560075798767"><ele>347.0</ele><time>2026-05-02T10:01:02Z</time></trkpt><trkpt lat="42.28134249824596" lon="13.774514134227266"><ele>347.0</ele><time>2026-05-02T10:01:03Z</time></trkpt><trkpt lat="42.281408242418564" lon="13.774480447591689"><ele>347.0</ele><time>2026-05-02T10:01:04Z</time></trkpt><trkpt lat="42.28148068458472" lon="13.774438270865504"><ele>347.0</ele><time>2026-05-02T10:01:06Z</time></trkpt><trkpt lat="42.28153651010224" lon="13.77435726770261"><ele>347.6666666666667</ele><time>2026-05-02T10:02:42Z</time></trkpt><trkpt lat="42.28151448580714" lon="13.774262369042205"><ele>348.33333333333337</ele><time>2026-05-02T10:02:44Z</time></trkpt><trkpt lat="42.28145556503345" lon="13.774194875720346"><ele>349.0</ele><time>2026-05-02T10:02:45Z</time></trkpt><trkpt lat="42.28139800887258" lon="13.774122589710167"><ele>349.6666666666667</ele><time>2026-05-02T10:02:46Z</time></trkpt><trkpt lat="42.2813394599745" lon="13.774021673937098"><ele>350.3333333333333</ele><time>2026-05-02T10:02:47Z</time></trkpt><trkpt lat="42.281254723047724" lon="13.773950944856072"><ele>351.0</ele><time>2026-05-02T10:02:48Z</time></trkpt><trkpt lat="42.28119763036228" lon="13.773849456023546"><ele>351.0</ele><time>2026-05-02T10:02:49Z</time></trkpt><trkpt lat="42.28111737545464" lon="13.773745866694751"><ele>351.0</ele><time>2026-05-02T10:02:50Z</time></trkpt><trkpt lat="42.28101972512282" lon="13.77364451853541"><ele>351.0</ele><time>2026-05-02T10:02:51Z</time></trkpt><trkpt lat="42.280930670374914" lon="13.773514628336239"><ele>351.0</ele><time>2026-05-02T10:02:52Z</time></trkpt><trkpt lat="42.28085832021256" lon="13.77335948580794"><ele>351.5</ele><time>2026-05-02T10:02:53Z</time></trkpt><trkpt lat="42.28077864047287" lon="13.773202873937754"><ele>352.0</ele><time>2026-05-02T10:02:54Z</time></trkpt><trkpt lat="42.2806817394436" lon="13.773052089785116"><ele>352.5</ele><time>2026-05-02T10:02:55Z</time></trkpt><trkpt lat="42.28059209969335" lon="13.772876126227134"><ele>353.0</ele><time>2026-05-02T10:02:56Z</time></trkpt><trkpt lat="42.28049928543438" lon="13.772700379951376"><ele>353.5</ele><time>2026-05-02T10:02:57Z</time></trkpt><trkpt lat="42.28042579143991" lon="13.772521647120264"><ele>354.0</ele><time>2026-05-02T10:02:58Z</time></trkpt><trkpt lat="42.2803493417417" lon="13.772372805985766"><ele>354.5</ele><time>2026-05-02T10:02:59Z</time></trkpt><trkpt lat="42.280275473539504" lon="13.772254384152777"><ele>355.0</ele><time>2026-05-02T10:03:00Z</time></trkpt><trkpt lat="42.28017800514132" lon="13.772161420118668"><ele>355.0</ele><time>2026-05-02T10:03:01Z</time></trkpt><trkpt lat="42.280055925838056" lon="13.772078389073233"><ele>355.0</ele><time>2026-05-02T10:03:02Z</time></trkpt><trkpt lat="42.27993803005989" lon="13.771990308793027"><ele>355.0</ele><time>2026-05-02T10:03:03Z</time></trkpt><trkpt lat="42.27982787743591" lon="13.771897220630096"><ele>355.0</ele><time>2026-05-02T10:03:04Z</time></trkpt><trkpt lat="42.27974083605458" lon="13.771782295694228"><ele>355.5</ele><time>2026-05-02T10:03:05Z</time></trkpt><trkpt lat="42.279663597240024" lon="13.771647514695395"><ele>356.0</ele><time>2026-05-02T10:03:06Z</time></trkpt><trkpt lat="42.279599550468866" lon="13.771485005394519"><ele>356.5</ele><time>2026-05-02T10:03:07Z</time></trkpt><trkpt lat="42.279536275748455" lon="13.771306299238116"><ele>357.0</ele><time>2026-05-02T10:03:08Z</time></trkpt><trkpt lat="42.27946185582798" lon="13.77114790977916"><ele>357.40000000000003</ele><time>2026-05-02T10:03:09Z</time></trkpt><trkpt lat="42.27941356113501" lon="13.770998790952435"><ele>357.8</ele><time>2026-05-02T10:03:10Z</time></trkpt><trkpt lat="42.27936885780209" lon="13.770866175462722"><ele>358.2</ele><time>2026-05-02T10:03:11Z</time></trkpt><trkpt lat="42.27933483083044" lon="13.770764181579477"><ele>358.6</ele><time>2026-05-02T10:03:12Z</time></trkpt><trkpt lat="42.27928420032652" lon="13.770617118309808"><ele>359.0</ele><time>2026-05-02T10:03:14Z</time></trkpt><trkpt lat="42.27924668934846" lon="13.770503458537386"><ele>359.0</ele><time>2026-05-02T10:03:16Z</time></trkpt><trkpt lat="42.27921328671394" lon="13.77040208998235"><ele>359.0</ele><time>2026-05-02T10:03:19Z</time></trkpt><trkpt lat="42.279176820362515" lon="13.770308455922335"><ele>359.0</ele><time>2026-05-02T10:03:23Z</time></trkpt><trkpt lat="42.279128621065944" lon="13.770190420172687"><ele>359.0</ele><time>2026-05-02T10:03:26Z</time></trkpt><trkpt lat="42.27908698245403" lon="13.770033126841506"><ele>359.0</ele><time>2026-05-02T10:03:28Z</time></trkpt><trkpt lat="42.27904184542657" lon="13.769955092172282"><ele>359.1666666666667</ele><time>2026-05-02T10:03:29Z</time></trkpt><trkpt lat="42.279010460295176" lon="13.769853592846388"><ele>359.33333333333337</ele><time>2026-05-02T10:03:30Z</time></trkpt><trkpt lat="42.27897905151416" lon="13.769763724894016"><ele>359.5</ele><time>2026-05-02T10:03:31Z</time></trkpt><trkpt lat="42.27895039009503" lon="13.769674716499155"><ele>359.6666666666667</ele><time>2026-05-02T10:03:32Z</time></trkpt><trkpt lat="42.278920464934295" lon="13.769589910221143"><ele>359.8333333333333</ele><time>2026-05-02T10:03:33Z</time></trkpt><trkpt lat="42.27887237033983" lon="13.7694621785648"><ele>360.0</ele><time>2026-05-02T10:03:35Z</time></trkpt><trkpt lat="42.278850388714936" lon="13.769357235214477"><ele>360.0</ele><time>2026-05-02T10:03:37Z</time></trkpt><trkpt lat="42.278698521440646" lon="13.769423186601886"><ele>360.0</ele><time>2026-05-02T10:03:39Z</time></trkpt><trkpt lat="42.27862608027477" lon="13.769493119566196"><ele>360.0</ele><time>2026-05-02T10:03:40Z</time></trkpt><trkpt lat="42.278546547587204" lon="13.769571615509014"><ele>360.0</ele><time>2026-05-02T10:03:41Z</time></trkpt><trkpt lat="42.278457285400556" lon="13.769647628669981"><ele>360.0</ele><time>2026-05-02T10:03:42Z</time></trkpt><trkpt lat="42.278372740076236" lon="13.769744744554915"><ele>360.0</ele><time>2026-05-02T10:03:43Z</time></trkpt><trkpt lat="42.278281735859494" lon="13.769851271644447"><ele>360.0</ele><time>2026-05-02T10:03:44Z</time></trkpt><trkpt lat="42.278192772726065" lon="13.769955409518568"><ele>360.0</ele><time>2026-05-02T10:03:45Z</time></trkpt><trkpt lat="42.278114016340005" lon="13.770072296280535"><ele>359.6</ele><time>2026-05-02T10:03:46Z</time></trkpt><trkpt lat="42.27802676738717" lon="13.77016451689333"><ele>359.2</ele><time>2026-05-02T10:03:47Z</time></trkpt><trkpt lat="42.27794557063654" lon="13.770260183388503"><ele>358.79999999999995</ele><time>2026-05-02T10:03:48Z</time></trkpt><trkpt lat="42.277868472837675" lon="13.770353942057056"><ele>358.4</ele><time>2026-05-02T10:03:49Z</time></trkpt><trkpt lat="42.27778196922526" lon="13.770431868934624"><ele>358.0</ele><time>2026-05-02T10:03:50Z</time></trkpt><trkpt lat="42.27770421209168" lon="13.770518760640549"><ele>357.2</ele><time>2026-05-02T10:03:51Z</time></trkpt><trkpt lat="42.27762557161267" lon="13.770597879677535"><ele>356.4</ele><time>2026-05-02T10:03:52Z</time></trkpt><trkpt lat="42.27754415068981" lon="13.770651698389608"><ele>355.59999999999997</ele><time>2026-05-02T10:03:53Z</time></trkpt><trkpt lat="42.27745042127767" lon="13.770691407251672"><ele>354.79999999999995</ele><time>2026-05-02T10:03:54Z</time></trkpt><trkpt lat="42.27734193402648" lon="13.770728219627085"><ele>354.0</ele><time>2026-05-02T10:03:55Z</time></trkpt><trkpt lat="42.27721868507949" lon="13.770726446797172"><ele>352.5</ele><time>2026-05-02T10:03:56Z</time></trkpt><trkpt lat="42.2770841543238" lon="13.770715365082669"><ele>351.0</ele><time>2026-05-02T10:03:57Z</time></trkpt><trkpt lat="42.2769448860509" lon="13.770703210215462"><ele>349.5</ele><time>2026-05-02T10:03:58Z</time></trkpt><trkpt lat="42.276793522436165" lon="13.770684948514129"><ele>348.0</ele><time>2026-05-02T10:03:59Z</time></trkpt><trkpt lat="42.27664027591579" lon="13.77066602748896"><ele>348.0</ele><time>2026-05-02T10:04:00Z</time></trkpt><trkpt lat="42.27648387756961" lon="13.770625942307698"><ele>348.0</ele><time>2026-05-02T10:04:01Z</time></trkpt><trkpt lat="42.27633006823399" lon="13.770606008489136"><ele>348.0</ele><time>2026-05-02T10:04:02Z</time></trkpt><trkpt lat="42.27617988457962" lon="13.770585879741803"><ele>347.0</ele><time>2026-05-02T10:04:03Z</time></trkpt><trkpt lat="42.27603440672649" lon="13.770563643367593"><ele>346.0</ele><time>2026-05-02T10:04:04Z</time></trkpt><trkpt lat="42.27589406445501" lon="13.770542191972723"><ele>345.0</ele><time>2026-05-02T10:04:05Z</time></trkpt><trkpt lat="42.27575821369336" lon="13.770541394731408"><ele>344.0</ele><time>2026-05-02T10:04:06Z</time></trkpt><trkpt lat="42.27563834831847" lon="13.77052011403168"><ele>345.6</ele><time>2026-05-02T10:04:07Z</time></trkpt><trkpt lat="42.27552804919414" lon="13.77051439961165"><ele>347.2</ele><time>2026-05-02T10:04:08Z</time></trkpt><trkpt lat="42.27541714626392" lon="13.770532092459957"><ele>348.8</ele><time>2026-05-02T10:04:09Z</time></trkpt><trkpt lat="42.27531597063337" lon="13.77056936450963"><ele>350.40000000000003</ele><time>2026-05-02T10:04:10Z</time></trkpt><trkpt lat="42.27521725334062" lon="13.770610543195106"><ele>352.0</ele><time>2026-05-02T10:04:11Z</time></trkpt><trkpt lat="42.27511557689877" lon="13.770663573414867"><ele>352.0</ele><time>2026-05-02T10:04:12Z</time></trkpt><trkpt lat="42.27502306918765" lon="13.77072486752738"><ele>352.0</ele><time>2026-05-02T10:04:13Z</time></trkpt><trkpt lat="42.27495995997578" lon="13.770800094876947"><ele>352.0</ele><time>2026-05-02T10:04:14Z</time></trkpt><trkpt lat="42.27490952736374" lon="13.770914161345575"><ele>352.0</ele><time>2026-05-02T10:04:15Z</time></trkpt><trkpt lat="42.27486752084038" lon="13.771070506244723"><ele>352.0</ele><time>2026-05-02T10:04:16Z</time></trkpt><trkpt lat="42.27483942810073" lon="13.771254750006626"><ele>352.5</ele><time>2026-05-02T10:04:17Z</time></trkpt><trkpt lat="42.27480949699471" lon="13.771444558798867"><ele>353.0</ele><time>2026-05-02T10:04:18Z</time></trkpt><trkpt lat="42.274770939304176" lon="13.771642310282065"><ele>353.5</ele><time>2026-05-02T10:04:19Z</time></trkpt><trkpt lat="42.27471440269285" lon="13.77183022141194"><ele>354.0</ele><time>2026-05-02T10:04:20Z</time></trkpt><trkpt lat="42.27468964743874" lon="13.772011131570897"><ele>354.0</ele><time>2026-05-02T10:04:21Z</time></trkpt><trkpt lat="42.274645974089516" lon="13.77217001542693"><ele>354.0</ele><time>2026-05-02T10:04:22Z</time></trkpt><trkpt lat="42.2746092378656" lon="13.772328757307282"><ele>354.0</ele><time>2026-05-02T10:04:23Z</time></trkpt><trkpt lat="42.27456933563447" lon="13.772468146460977"><ele>354.0</ele><time>2026-05-02T10:04:24Z</time></trkpt><trkpt lat="42.27451926466802" lon="13.772591905827595"><ele>353.5</ele><time>2026-05-02T10:04:25Z</time></trkpt><trkpt lat="42.274445457716794" lon="13.772703097677443"><ele>353.0</ele><time>2026-05-02T10:04:26Z</time></trkpt><trkpt lat="42.27434621581914" lon="13.772819942943347"><ele>352.5</ele><time>2026-05-02T10:04:27Z</time></trkpt><trkpt lat="42.27425503383181" lon="13.77293448566459"><ele>352.0</ele><time>2026-05-02T10:04:28Z</time></trkpt><trkpt lat="42.27416763531625" lon="13.773038202188822"><ele>352.0</ele><time>2026-05-02T10:04:29Z</time></trkpt><trkpt lat="42.27407511424559" lon="13.773155947643705"><ele>352.0</ele><time>2026-05-02T10:04:30Z</time></trkpt><trkpt lat="42.27397905238606" lon="13.773277654386472"><ele>352.0</ele><time>2026-05-02T10:04:31Z</time></trkpt><trkpt lat="42.27387618539462" lon="13.77337929544351"><ele>352.0</ele><time>2026-05-02T10:04:32Z</time></trkpt><trkpt lat="42.27378743276684" lon="13.773482413016497"><ele>352.5</ele><time>2026-05-02T10:04:33Z</time></trkpt><trkpt lat="42.273699917405054" lon="13.773604213636647"><ele>353.0</ele><time>2026-05-02T10:04:34Z</time></trkpt><trkpt lat="42.273589565785905" lon="13.773728955811084"><ele>353.5</ele><time>2026-05-02T10:04:35Z</time></trkpt><trkpt lat="42.27347149848003" lon="13.773861490530921"><ele>354.0</ele><time>2026-05-02T10:04:36Z</time></trkpt><trkpt lat="42.27335719457232" lon="13.773994783897582"><ele>354.0</ele><time>2026-05-02T10:04:37Z</time></trkpt><trkpt lat="42.27324079210022" lon="13.774144515710095"><ele>354.0</ele><time>2026-05-02T10:04:38Z</time></trkpt><trkpt lat="42.273124776239065" lon="13.774308370313657"><ele>354.0</ele><time>2026-05-02T10:04:39Z</time></trkpt><trkpt lat="42.273016193159805" lon="13.774485129600624"><ele>355.0</ele><time>2026-05-02T10:04:40Z</time></trkpt><trkpt lat="42.27291796508489" lon="13.774672159775854"><ele>356.0</ele><time>2026-05-02T10:04:41Z</time></trkpt><trkpt lat="42.27281645425767" lon="13.774856543238204"><ele>357.0</ele><time>2026-05-02T10:04:42Z</time></trkpt><trkpt lat="42.27271530668258" lon="13.775028671664238"><ele>356.0</ele><time>2026-05-02T10:04:43Z</time></trkpt><trkpt lat="42.27261843109494" lon="13.775189407502888"><ele>355.0</ele><time>2026-05-02T10:04:44Z</time></trkpt><trkpt lat="42.27252967829965" lon="13.775330332476035"><ele>354.0</ele><time>2026-05-02T10:04:45Z</time></trkpt><trkpt lat="42.2724515403469" lon="13.775457484173854"><ele>353.0</ele><time>2026-05-02T10:04:46Z</time></trkpt><trkpt lat="42.27238204753507" lon="13.77559060864805"><ele>353.0</ele><time>2026-05-02T10:04:47Z</time></trkpt><trkpt lat="42.27232638743356" lon="13.775735101983491"><ele>353.0</ele><time>2026-05-02T10:04:48Z</time></trkpt><trkpt lat="42.272280576225725" lon="13.775903081830275"><ele>353.0</ele><time>2026-05-02T10:04:49Z</time></trkpt><trkpt lat="42.27224987556341" lon="13.776096086310561"><ele>353.0</ele><time>2026-05-02T10:04:50Z</time></trkpt><trkpt lat="42.27223241908968" lon="13.776308861524134"><ele>352.33333333333337</ele><time>2026-05-02T10:04:51Z</time></trkpt><trkpt lat="42.27221423511014" lon="13.776537866317312"><ele>351.6666666666667</ele><time>2026-05-02T10:04:52Z</time></trkpt><trkpt lat="42.27219212326228" lon="13.776773809765867"><ele>351.0</ele><time>2026-05-02T10:04:53Z</time></trkpt><trkpt lat="42.27216970835195" lon="13.777013063895758"><ele>350.0</ele><time>2026-05-02T10:04:54Z</time></trkpt><trkpt lat="42.27214579440618" lon="13.777265067751852"><ele>349.0</ele><time>2026-05-02T10:04:55Z</time></trkpt><trkpt lat="42.272119953340805" lon="13.77751509093754"><ele>348.0</ele><time>2026-05-02T10:04:56Z</time></trkpt><trkpt lat="42.27209719738747" lon="13.777756643159828"><ele>347.3333333333333</ele><time>2026-05-02T10:04:57Z</time></trkpt><trkpt lat="42.27207344334587" lon="13.778002606024042"><ele>346.66666666666663</ele><time>2026-05-02T10:04:58Z</time></trkpt><trkpt lat="42.272049831842175" lon="13.77824886270854"><ele>346.0</ele><time>2026-05-02T10:04:59Z</time></trkpt><trkpt lat="42.27202572472693" lon="13.778493382499033"><ele>345.0</ele><time>2026-05-02T10:05:00Z</time></trkpt><trkpt lat="42.27200350342987" lon="13.77873440669646"><ele>344.0</ele><time>2026-05-02T10:05:01Z</time></trkpt><trkpt lat="42.2719811921148" lon="13.778956830589838"><ele>343.0</ele><time>2026-05-02T10:05:02Z</time></trkpt><trkpt lat="42.27195684629294" lon="13.779176446460024"><ele>342.25</ele><time>2026-05-02T10:05:03Z</time></trkpt><trkpt lat="42.271929049324484" lon="13.779373927604677"><ele>341.5</ele><time>2026-05-02T10:05:04Z</time></trkpt><trkpt lat="42.27189930713466" lon="13.779554728792398"><ele>340.75</ele><time>2026-05-02T10:05:05Z</time></trkpt><trkpt lat="42.271859108059175" lon="13.779711340437627"><ele>340.0</ele><time>2026-05-02T10:05:06Z</time></trkpt><trkpt lat="42.27180319835236" lon="13.7798488157624"><ele>340.0</ele><time>2026-05-02T10:05:07Z</time></trkpt><trkpt lat="42.27170333198772" lon="13.77996434107204"><ele>340.0</ele><time>2026-05-02T10:05:08Z</time></trkpt><trkpt lat="42.27160104469941" lon="13.780116957696183"><ele>340.0</ele><time>2026-05-02T10:05:09Z</time></trkpt><trkpt lat="42.2714980979464" lon="13.780267860032536"><ele>340.0</ele><time>2026-05-02T10:05:10Z</time></trkpt><trkpt lat="42.27141400508205" lon="13.780424405806547"><ele>340.25</ele><time>2026-05-02T10:05:11Z</time></trkpt><trkpt lat="42.27132505630958" lon="13.780558076440755"><ele>340.5</ele><time>2026-05-02T10:05:12Z</time></trkpt><trkpt lat="42.2712338195162" lon="13.780671037630759"><ele>340.75</ele><time>2026-05-02T10:05:13Z</time></trkpt><trkpt lat="42.27116153517929" lon="13.780786073551777"><ele>341.0</ele><time>2026-05-02T10:05:14Z</time></trkpt><trkpt lat="42.27110626460913" lon="13.780891791521487"><ele>341.0</ele><time>2026-05-02T10:05:15Z</time></trkpt><trkpt lat="42.27105619005885" lon="13.780976856629076"><ele>341.0</ele><time>2026-05-02T10:05:16Z</time></trkpt><trkpt lat="42.270981734162305" lon="13.781079769397806"><ele>341.0</ele><time>2026-05-02T10:05:19Z</time></trkpt><trkpt lat="42.271057537606005" lon="13.781213579399468"><ele>341.0</ele><time>2026-05-02T10:05:21Z</time></trkpt><trkpt lat="42.271111194165094" lon="13.781273451597558"><ele>341.0</ele><time>2026-05-02T10:05:22Z</time></trkpt><trkpt lat="42.27122106796708" lon="13.781361718027267"><ele>340.2857142857143</ele><time>2026-05-02T10:05:24Z</time></trkpt><trkpt lat="42.271281708175906" lon="13.781405392285386"><ele>339.57142857142856</ele><time>2026-05-02T10:05:25Z</time></trkpt><trkpt lat="42.27135052977635" lon="13.781432923505246"><ele>338.8571428571429</ele><time>2026-05-02T10:05:26Z</time></trkpt><trkpt lat="42.27141708834095" lon="13.781474361886453"><ele>338.1428571428571</ele><time>2026-05-02T10:05:27Z</time></trkpt><trkpt lat="42.271486026975964" lon="13.781513610265064"><ele>337.42857142857144</ele><time>2026-05-02T10:05:28Z</time></trkpt><trkpt lat="42.27155098073514" lon="13.781548487304066"><ele>336.7142857142857</ele><time>2026-05-02T10:05:29Z</time></trkpt><trkpt lat="42.27161590156356" lon="13.78158345654073"><ele>336.0</ele><time>2026-05-02T10:05:30Z</time></trkpt><trkpt lat="42.27168153621828" lon="13.781620468889878"><ele>335.4</ele><time>2026-05-02T10:05:31Z</time></trkpt><trkpt lat="42.271786458421055" lon="13.781689768650184"><ele>334.8</ele><time>2026-05-02T10:05:33Z</time></trkpt><trkpt lat="42.27188651817297" lon="13.781777282095272"><ele>334.2</ele><time>2026-05-02T10:05:35Z</time></trkpt><trkpt lat="42.27197023130214" lon="13.781884457413499"><ele>333.59999999999997</ele><time>2026-05-02T10:05:37Z</time></trkpt><trkpt lat="42.272038769002826" lon="13.781972920604797"><ele>333.0</ele><time>2026-05-02T10:05:39Z</time></trkpt><trkpt lat="42.27209799292065" lon="13.782036013297004"><ele>333.0</ele><time>2026-05-02T10:05:41Z</time></trkpt><trkpt lat="42.27214124745618" lon="13.782101543116383"><ele>333.0</ele><time>2026-05-02T10:05:43Z</time></trkpt><trkpt lat="42.272217101047225" lon="13.782202465776605"><ele>333.0</ele><time>2026-05-02T10:05:56Z</time></trkpt><trkpt lat="42.27226360847574" lon="13.782265395277278"><ele>333.0</ele><time>2026-05-02T10:05:57Z</time></trkpt><trkpt lat="42.27232314834789" lon="13.782345553131867"><ele>333.0</ele><time>2026-05-02T10:05:58Z</time></trkpt><trkpt lat="42.27238445644074" lon="13.782436367345984"><ele>333.0</ele><time>2026-05-02T10:05:59Z</time></trkpt><trkpt lat="42.27245446762581" lon="13.782545136101975"><ele>333.25</ele><time>2026-05-02T10:06:00Z</time></trkpt><trkpt lat="42.272530487472814" lon="13.78266858082033"><ele>333.5</ele><time>2026-05-02T10:06:01Z</time></trkpt><trkpt lat="42.27260452692792" lon="13.782789401802992"><ele>333.75</ele><time>2026-05-02T10:06:02Z</time></trkpt><trkpt lat="42.27268675445944" lon="13.782918422041266"><ele>334.0</ele><time>2026-05-02T10:06:03Z</time></trkpt><trkpt lat="42.272770138721405" lon="13.783054501007173"><ele>334.5</ele><time>2026-05-02T10:06:04Z</time></trkpt><trkpt lat="42.27285243365477" lon="13.783189194352257"><ele>335.0</ele><time>2026-05-02T10:06:05Z</time></trkpt><trkpt lat="42.27293462365532" lon="13.78332325645995"><ele>335.5</ele><time>2026-05-02T10:06:06Z</time></trkpt><trkpt lat="42.2730218751098" lon="13.783462813051422"><ele>336.0</ele><time>2026-05-02T10:06:07Z</time></trkpt><trkpt lat="42.27311435234124" lon="13.783597317899888"><ele>336.25</ele><time>2026-05-02T10:06:08Z</time></trkpt><trkpt lat="42.27320316106175" lon="13.783721870679107"><ele>336.5</ele><time>2026-05-02T10:06:09Z</time></trkpt><trkpt lat="42.27330602805975" lon="13.78382970470787"><ele>336.75</ele><time>2026-05-02T10:06:10Z</time></trkpt><trkpt lat="42.27342353187076" lon="13.783924062888882"><ele>337.0</ele><time>2026-05-02T10:06:11Z</time></trkpt><trkpt lat="42.27354920489864" lon="13.784017298818492"><ele>337.0</ele><time>2026-05-02T10:06:12Z</time></trkpt><trkpt lat="42.27367364137503" lon="13.784124902064367"><ele>337.0</ele><time>2026-05-02T10:06:13Z</time></trkpt><trkpt lat="42.27379544840534" lon="13.784230340953743"><ele>337.0</ele><time>2026-05-02T10:06:14Z</time></trkpt><trkpt lat="42.27390652795889" lon="13.784331212698975"><ele>337.0</ele><time>2026-05-02T10:06:15Z</time></trkpt><trkpt lat="42.27401984650788" lon="13.784434007869356"><ele>336.8</ele><time>2026-05-02T10:06:16Z</time></trkpt><trkpt lat="42.274125700973116" lon="13.784535413939665"><ele>336.6</ele><time>2026-05-02T10:06:17Z</time></trkpt><trkpt lat="42.27421784655762" lon="13.784617832514657"><ele>336.40000000000003</ele><time>2026-05-02T10:06:18Z</time></trkpt><trkpt lat="42.27430584929683" lon="13.784691630555844"><ele>336.20000000000005</ele><time>2026-05-02T10:06:19Z</time></trkpt><trkpt lat="42.274377110170384" lon="13.784751492297616"><ele>336.0</ele><time>2026-05-02T10:06:20Z</time></trkpt><trkpt lat="42.274439054296295" lon="13.784808047814801"><ele>336.0</ele><time>2026-05-02T10:06:21Z</time></trkpt><trkpt lat="42.2744987607912" lon="13.784867913041719"><ele>336.0</ele><time>2026-05-02T10:06:22Z</time></trkpt><trkpt lat="42.27457066276214" lon="13.784913671749788"><ele>336.0</ele><time>2026-05-02T10:06:23Z</time></trkpt><trkpt lat="42.27462355145046" lon="13.784984356364097"><ele>336.0</ele><time>2026-05-02T10:06:24Z</time></trkpt><trkpt lat="42.274729037089884" lon="13.784969923729818"><ele>336.0</ele><time>2026-05-02T10:06:25Z</time></trkpt><trkpt lat="42.27477340953359" lon="13.785052065048138"><ele>336.0</ele><time>2026-05-02T10:06:26Z</time></trkpt><trkpt lat="42.274791811429004" lon="13.78516195867152"><ele>338.0</ele><time>2026-05-02T10:06:27Z</time></trkpt><trkpt lat="42.27481855853826" lon="13.785273201779159"><ele>338.0</ele><time>2026-05-02T10:06:28Z</time></trkpt><trkpt lat="42.27488476176532" lon="13.785375870987773"><ele>338.0</ele><time>2026-05-02T10:06:29Z</time></trkpt><trkpt lat="42.27497884642929" lon="13.785469481783444"><ele>338.0</ele><time>2026-05-02T10:06:30Z</time></trkpt><trkpt lat="42.27508003191334" lon="13.785566193416173"><ele>338.0</ele><time>2026-05-02T10:06:31Z</time></trkpt></trkseg></trk></gpx>